[[{"header":{"parameterUnit":"m.s-1","parameterCategory":1,"la1":30.6,"la2":28.766,"lo1":-90.7593,"lo2":-88.6598,"dx":0.0162,"dy":0.0183,"nx":116,"ny":114,"refTime":"2023-01-24T18:00:00:Z","depth":0,"parameterNumber":2,"parameterNumberName":"U-component_of_WINDS"},"data":[0.0,0.0,0.0,0.0,0.0,0.0,0.0,0.0,0.0,0.0,0.0,0.0,0.0,0.0,0.0,0.0,0.0,0.0,0.0,0.0,0.0,0.0,0.0,0.0,0.0,0.0,0.0,0.0,0.0,0.0,0.0,0.0,0.0,0.0,0.0,0.0,0.0,0.0,0.0,0.0,0.0,0.0,0.0,0.0,0.0,0.0,0.0,0.0,0.0,0.0,0.0,0.0,0.0,0.0,0.0,0.0,0.0,0.0,0.0,0.0,0.0,0.0,0.0,0.0,0.0,0.0,0.0,0.0,0.0,0.0,0.0,0.0,0.0,0.0,0.0,0.0,0.0,0.0,0.0,0.0,0.0,0.0,0.0,0.0,0.0,0.0,0.0,0.0,0.0,0.0,0.0,0.0,0.0,0.0,0.0,0.0,0.0,0.0,0.0,0.0,0.0,0.0,0.0,0.0,0.0,0.0,0.0,0.0,0.0,0.0,0.0,0.0,0.0,0.0,0.0,0.0,0.0,0.0,0.0,0.0,0.0,0.0,0.0,0.0,0.0,0.0,0.0,0.0,0.0,0.0,0.0,0.0,0.0,0.0,0.0,0.0,0.0,0.0,0.0,0.0,0.0,0.0,0.0,0.0,0.0,0.0,0.0,0.0,0.0,0.0,0.0,0.0,0.0,0.0,0.0,0.0,0.0,0.0,0.0,0.0,0.0,0.0,0.0,0.0,0.0,0.0,0.0,0.0,0.0,0.0,0.0,0.0,0.0,0.0,0.0,0.0,0.0,0.0,0.0,0.0,0.0,0.0,0.0,0.0,0.0,0.0,0.0,0.0,0.0,0.0,0.0,0.0,0.0,0.0,0.0,0.0,0.0,0.0,0.0,0.0,0.0,0.0,0.0,0.0,0.0,0.0,0.0,0.0,0.0,0.0,0.0,0.0,0.0,0.0,0.0,0.0,0.0,0.0,0.0,0.0,0.0,0.0,0.0,0.0,0.0,0.0,0.0,0.0,0.0,0.0,0.0,0.0,0.0,0.0,0.0,0.0,0.0,0.0,0.0,0.0,0.0,0.0,0.0,0.0,0.0,0.0,0.0,0.0,0.0,0.0,0.0,0.0,0.0,0.0,0.0,0.0,0.0,0.0,0.0,0.0,0.0,0.0,0.0,0.0,0.0,0.0,0.0,0.0,0.0,0.0,0.0,0.0,0.0,0.0,0.0,0.0,0.0,0.0,0.0,0.0,0.0,0.0,0.0,0.0,0.0,0.0,0.0,0.0,0.0,0.0,0.0,0.0,0.0,0.0,0.0,0.0,0.0,0.0,0.0,0.0,0.0,0.0,0.0,0.0,0.0,0.0,0.0,0.0,0.0,0.0,0.0,0.0,0.0,0.0,0.0,0.0,0.0,0.0,0.0,0.0,0.0,0.0,0.0,0.0,0.0,0.0,0.0,0.0,0.0,0.0,0.0,0.0,0.0,0.0,0.0,0.0,0.0,0.0,0.0,0.0,0.0,0.0,0.0,0.0,0.0,0.0,0.0,0.0,0.0,0.0,0.0,0.0,0.0,0.0,0.0,0.0,0.0,0.0,0.0,0.0,0.0,0.0,0.0,0.0,0.0,0.0,0.0,0.0,0.0,0.0,0.0,0.0,0.0,0.0,0.0,0.0,0.0,0.0,0.0,0.0,0.0,0.0,0.0,0.0,0.0,0.0,0.0,0.0,0.0,0.0,0.0,0.0,0.0,0.0,0.0,0.0,0.0,0.0,0.0,0.0,0.0,0.0,0.0,0.0,0.0,0.0,0.0,0.0,0.0,0.0,0.0,0.0,0.0,0.0,0.0,0.0,0.0,0.0,0.0,0.0,0.0,0.0,0.0,0.0,0.0,0.0,0.0,0.0,0.0,0.0,0.0,0.0,0.0,0.0,0.0,0.0,0.0,0.0,0.0,0.0,0.0,0.0,0.0,0.0,0.0,0.0,0.0,0.0,0.0,0.0,0.0,0.0,0.0,0.0,0.0,0.0,0.0,0.0,0.0,0.0,0.0,0.0,0.0,0.0,0.0,0.0,0.0,0.0,0.0,0.0,0.0,0.0,0.0,0.0,0.0,0.0,0.0,0.0,0.0,0.0,0.0,0.0,0.0,0.0,0.0,0.0,0.0,0.0,0.0,0.0,0.0,0.0,0.0,0.0,0.0,0.0,0.0,0.0,0.0,0.0,0.0,0.0,0.0,0.0,0.0,0.0,0.0,0.0,0.0,0.0,0.0,0.0,0.0,0.0,0.0,0.0,0.0,0.0,0.0,0.0,0.0,0.0,0.0,0.0,0.0,0.0,0.0,0.0,0.0,0.0,0.0,0.0,0.0,0.0,0.0,0.0,0.0,0.0,0.0,0.0,0.0,0.0,0.0,0.0,0.0,0.0,0.0,0.0,0.0,0.0,0.0,0.0,0.0,0.0,0.0,0.0,0.0,0.0,0.0,0.0,0.0,0.0,0.0,0.0,0.0,0.0,0.0,0.0,0.0,0.0,0.0,0.0,0.0,0.0,0.0,0.0,0.0,0.0,0.0,0.0,0.0,0.0,0.0,0.0,0.0,0.0,0.0,0.0,0.0,0.0,0.0,0.0,0.0,0.0,0.0,0.0,0.0,0.0,0.0,0.0,0.0,0.0,0.0,0.0,0.0,0.0,0.0,0.0,0.0,0.0,0.0,0.0,0.0,0.0,0.0,0.0,0.0,0.0,0.0,0.0,0.0,0.0,0.0,0.0,0.0,0.0,0.0,0.0,0.0,0.0,0.0,0.0,0.0,0.0,0.0,0.0,0.0,0.0,0.0,0.0,0.0,0.0,0.0,0.0,0.0,0.0,0.0,0.0,0.0,0.0,0.0,0.0,0.0,0.0,0.0,0.0,0.0,0.0,0.0,0.0,0.0,0.0,0.0,0.0,0.0,0.0,0.0,0.0,0.0,0.0,0.0,0.0,0.0,0.0,0.0,0.0,0.0,0.0,0.0,0.0,0.0,0.0,0.0,0.0,0.0,0.0,0.0,0.0,0.0,0.0,0.0,0.0,0.0,0.0,0.0,0.0,0.0,0.0,0.0,0.0,0.0,0.0,0.0,0.0,0.0,0.0,0.0,0.0,0.0,0.0,0.0,0.0,0.0,0.0,0.0,0.0,0.0,0.0,0.0,0.0,0.0,0.0,0.0,0.0,0.0,0.0,0.0,0.0,0.0,0.0,0.0,0.0,0.0,0.0,0.0,0.0,0.0,0.0,0.0,0.0,0.0,0.0,0.0,0.0,0.0,0.0,0.0,0.0,0.0,0.0,0.0,0.0,0.0,0.0,0.0,0.0,0.0,0.0,0.0,0.0,0.0,0.0,0.0,0.0,0.0,0.0,0.0,0.0,0.0,0.0,0.0,0.0,0.0,0.0,0.0,0.0,0.0,0.0,0.0,0.0,0.0,0.0,0.0,0.0,0.0,0.0,0.0,0.0,0.0,0.0,0.0,0.0,0.0,0.0,0.0,0.0,0.0,0.0,0.0,0.0,0.0,0.0,0.0,0.0,0.0,0.0,0.0,0.0,0.0,0.0,0.0,0.0,0.0,0.0,0.0,0.0,0.0,0.0,0.0,0.0,0.0,0.0,0.0,0.0,0.0,0.0,0.0,0.0,0.0,0.0,0.0,0.0,0.0,0.0,0.0,0.0,0.0,0.0,0.0,0.0,0.0,0.0,0.0,0.0,0.0,0.0,0.0,0.0,0.0,0.0,0.0,0.0,0.0,0.0,0.0,0.0,0.0,0.0,0.0,0.0,0.0,0.0,0.0,0.0,0.0,0.0,0.0,0.0,0.0,0.0,0.0,0.0,0.0,0.0,0.0,0.0,0.0,0.0,0.0,0.0,0.0,0.0,0.0,0.0,0.0,0.0,0.0,0.0,0.0,0.0,0.0,0.0,0.0,0.0,0.0,0.0,0.0,0.0,0.0,0.0,0.0,0.0,0.0,0.0,0.0,0.0,0.0,0.0,0.0,0.0,0.0,0.0,0.0,0.0,0.0,0.0,0.0,0.0,0.0,0.0,0.0,0.0,0.0,0.0,0.0,0.0,0.0,0.0,0.0,0.0,0.0,0.0,0.0,0.0,0.0,0.0,0.0,0.0,0.0,0.0,0.0,0.0,0.0,0.0,0.0,0.0,0.0,0.0,0.0,0.0,0.0,0.0,0.0,0.0,0.0,0.0,0.0,0.0,0.0,0.0,0.0,0.0,0.0,0.0,0.0,0.0,0.0,0.0,0.0,0.0,0.0,0.0,0.0,0.0,0.0,0.0,0.0,0.0,0.0,0.0,0.0,0.0,0.0,0.0,0.0,0.0,0.0,0.0,0.0,0.0,0.0,0.0,0.0,0.0,0.0,0.0,0.0,0.0,0.0,0.0,0.0,0.0,0.0,0.0,0.0,0.0,0.0,0.0,0.0,0.0,0.0,0.0,0.0,0.0,0.0,0.0,0.0,0.0,0.0,0.0,0.0,0.0,0.0,0.0,0.0,0.0,0.0,0.0,0.0,0.0,0.0,0.0,0.0,0.0,0.0,0.0,0.0,0.0,0.0,0.0,0.0,0.0,0.0,0.0,0.0,0.0,0.0,0.0,0.0,0.0,0.0,0.0,0.0,0.0,0.0,0.0,0.0,0.0,0.0,0.0,0.0,0.0,0.0,0.0,0.0,0.0,0.0,0.0,0.0,0.0,0.0,0.0,0.0,0.0,0.0,0.0,0.0,0.0,0.0,0.0,0.0,0.0,0.0,0.0,0.0,0.0,0.0,0.0,0.0,0.0,0.0,0.0,0.0,0.0,0.0,0.0,0.0,0.0,0.0,0.0,0.0,0.0,0.0,0.0,0.0,0.0,0.0,0.0,0.0,0.0,0.0,0.0,0.0,0.0,0.0,0.0,0.0,0.0,0.0,0.0,0.0,0.0,0.0,0.0,0.0,0.0,0.0,0.0,0.0,0.0,0.0,0.0,0.0,0.0,0.0,0.0,0.0,0.0,0.0,0.0,0.0,0.0,0.0,0.0,0.0,0.0,0.0,0.0,0.0,0.0,0.0,0.0,0.0,0.0,0.0,0.0,0.0,0.0,0.0,0.0,0.0,0.0,0.0,0.0,0.0,0.0,0.0,0.0,0.0,0.0,0.0,0.0,0.0,0.0,0.0,0.0,0.0,0.0,0.0,0.0,0.0,0.0,0.0,0.0,0.0,0.0,0.0,0.0,0.0,0.0,0.0,0.0,0.0,0.0,0.0,0.0,0.0,0.0,0.0,0.0,0.0,0.0,0.0,0.0,0.0,0.0,0.0,0.0,0.0,0.0,0.0,0.0,0.0,0.0,0.0,0.0,0.0,0.0,0.0,0.0,0.0,0.0,0.0,0.0,0.0,0.0,0.0,0.0,0.0,0.0,0.0,0.0,0.0,0.0,0.0,0.0,0.0,0.0,0.0,0.0,0.0,0.0,0.0,0.0,0.0,0.0,0.0,0.0,0.0,0.0,0.0,0.0,0.0,0.0,0.0,0.0,0.0,0.0,0.0,0.0,0.0,0.0,0.0,0.0,0.0,0.0,0.0,0.0,0.0,0.0,0.0,0.0,0.0,0.0,0.0,0.0,0.0,0.0,0.0,0.0,0.0,0.0,0.0,0.0,0.0,0.0,0.0,0.0,0.0,0.0,0.0,0.0,0.0,0.0,0.0,0.0,0.0,0.0,0.0,0.0,0.0,0.0,0.0,0.0,0.0,0.0,0.0,0.0,0.0,0.0,0.0,0.0,0.0,0.0,0.0,0.0,0.0,0.0,0.0,0.0,0.0,0.0,0.0,0.0,0.0,0.0,0.0,0.0,0.0,0.0,0.0,0.0,0.0,0.0,0.0,0.0,0.0,0.0,0.0,0.0,0.0,0.0,0.0,0.0,0.0,0.0,0.0,0.0,0.0,0.0,0.0,0.0,0.0,0.0,0.0,0.0,0.0,0.0,0.0,0.0,0.0,0.0,0.0,0.0,0.0,0.0,0.0,0.0,0.0,0.0,0.0,0.0,0.0,0.0,0.0,0.0,0.0,0.0,0.0,0.0,3.7771,0.0,0.0,0.0,0.0,0.0,0.0,0.0,0.0,0.0,0.0,0.0,0.0,0.0,0.0,0.0,0.0,0.0,0.0,0.0,0.0,0.0,0.0,0.0,0.0,0.0,0.0,0.0,0.0,0.0,0.0,0.0,0.0,0.0,0.0,0.0,0.0,0.0,0.0,0.0,0.0,0.0,0.0,0.0,0.0,0.0,0.0,0.0,0.0,0.0,0.0,0.0,0.0,0.0,0.0,0.0,0.0,0.0,0.0,0.0,0.0,0.0,0.0,0.0,0.0,0.0,0.0,0.0,0.0,0.0,0.0,0.0,0.0,0.0,0.0,0.0,0.0,0.0,0.0,0.0,0.0,0.0,0.0,0.0,0.0,0.0,0.0,0.0,0.0,0.0,0.0,0.0,0.0,0.0,0.0,0.0,0.0,0.0,0.0,0.0,0.0,0.0,0.0,0.0,0.0,0.0,0.0,0.0,0.0,0.0,0.0,0.0,0.0,0.0,0.0,0.0,0.0,3.7168,0.0,0.0,0.0,0.0,0.0,0.0,0.0,0.0,0.0,0.0,0.0,0.0,0.0,0.0,0.0,0.0,0.0,0.0,0.0,0.0,0.0,0.0,0.0,0.0,0.0,0.0,0.0,0.0,0.0,0.0,0.0,0.0,0.0,0.0,0.0,0.0,0.0,0.0,0.0,0.0,0.0,0.0,0.0,0.0,0.0,0.0,0.0,0.0,0.0,0.0,0.0,0.0,0.0,0.0,0.0,0.0,0.0,0.0,0.0,0.0,0.0,0.0,0.0,0.0,0.0,0.0,0.0,0.0,0.0,0.0,0.0,0.0,0.0,0.0,0.0,0.0,0.0,0.0,0.0,0.0,0.0,0.0,0.0,0.0,0.0,0.0,0.0,0.0,0.0,0.0,0.0,0.0,0.0,0.0,0.0,0.0,0.0,0.0,0.0,0.0,0.0,0.0,0.0,0.0,0.0,0.0,0.0,0.0,0.0,4.0074,3.9878,4.1332,4.1152,3.9608,3.9564,3.8259,3.6177,0.0,0.0,0.0,0.0,0.0,0.0,0.0,0.0,0.0,0.0,0.0,0.0,0.0,0.0,0.0,0.0,0.0,0.0,0.0,0.0,0.0,0.0,0.0,0.0,0.0,0.0,0.0,0.0,0.0,0.0,0.0,0.0,0.0,0.0,0.0,0.0,0.0,0.0,0.0,3.188,3.188,3.1707,3.1359,0.0,0.0,0.0,0.0,0.0,0.0,0.0,0.0,0.0,0.0,0.0,0.0,0.0,0.0,0.0,0.0,0.0,0.0,0.0,0.0,0.0,0.0,0.0,0.0,0.0,0.0,0.0,0.0,0.0,0.0,0.0,0.0,0.0,0.0,0.0,0.0,0.0,0.0,0.0,0.0,0.0,0.0,0.0,0.0,3.137,3.011,0.0,0.0,0.0,0.0,0.0,0.0,0.0,0.0,0.0,0.0,0.0,0.0,0.0,0.0,3.8506,4.0917,4.218,4.2273,4.3637,4.43,4.4231,4.3858,4.3539,4.3292,4.2986,0.0,3.8431,4.009,0.0,0.0,0.0,0.0,0.0,0.0,0.0,0.0,0.0,0.0,0.0,0.0,0.0,0.0,0.0,0.0,0.0,0.0,0.0,0.0,0.0,0.0,0.0,0.0,0.0,0.0,0.0,0.0,0.0,0.0,0.0,0.0,0.0,0.0,0.0,0.0,3.2739,3.3875,3.4445,3.4445,3.4582,3.4883,3.4883,3.3295,3.0623,3.0767,0.0,0.0,0.0,0.0,0.0,0.0,0.0,0.0,0.0,0.0,0.0,0.0,0.0,0.0,0.0,0.0,0.0,0.0,0.0,0.0,0.0,0.0,0.0,0.0,0.0,0.0,0.0,0.0,0.0,0.0,0.0,0.0,0.0,0.0,0.0,0.0,0.0,0.0,0.0,3.1035,3.1597,3.0018,3.1458,3.1838,0.0,0.0,0.0,0.0,0.0,0.0,0.0,0.0,0.0,3.9547,3.9966,4.0902,4.247,4.3714,4.4231,4.4071,4.4753,4.4988,4.4825,4.4482,4.4204,4.3986,4.3849,4.2867,4.1405,4.1348,4.0268,3.863,0.0,0.0,0.0,0.0,0.0,3.6838,0.0,0.0,0.0,0.0,0.0,0.0,0.0,0.0,0.0,0.0,0.0,0.0,0.0,0.0,0.0,0.0,0.0,0.0,0.0,0.0,0.0,0.0,0.0,0.0,0.0,0.0,0.0,0.0,3.4239,3.5644,3.662,3.6724,3.6943,3.719,3.719,3.5504,3.2669,3.2669,3.169,0.0,0.0,0.0,0.0,0.0,0.0,0.0,0.0,0.0,0.0,0.0,0.0,0.0,0.0,0.0,0.0,0.0,0.0,0.0,0.0,0.0,0.0,0.0,0.0,0.0,0.0,0.0,0.0,0.0,0.0,0.0,0.0,0.0,0.0,0.0,0.0,0.0,0.0,3.145,3.233,3.0648,3.2327,3.2994,0.0,0.0,0.0,0.0,0.0,0.0,3.8325,3.8762,4.0061,4.2393,4.2469,4.3482,4.5566,4.5586,4.5457,4.5222,4.5222,4.5033,4.4726,4.4631,4.4373,4.4016,4.3893,4.3837,4.3718,4.2745,4.164,4.0615,4.086,4.0888,4.0741,4.0448,4.0206,4.0249,0.0,0.0,0.0,0.0,0.0,0.0,0.0,0.0,0.0,0.0,0.0,0.0,0.0,0.0,0.0,0.0,0.0,0.0,0.0,0.0,0.0,0.0,0.0,0.0,0.0,0.0,0.0,3.4081,3.6506,3.7524,3.7173,3.7614,3.7614,3.719,3.719,3.6289,3.4747,3.4747,3.3618,3.1654,0.0,0.0,0.0,0.0,0.0,0.0,0.0,0.0,0.0,0.0,0.0,0.0,0.0,0.0,0.0,0.0,0.0,0.0,0.0,0.0,0.0,0.0,0.0,0.0,0.0,0.0,0.0,0.0,0.0,0.0,0.0,0.0,0.0,0.0,0.0,0.0,0.0,0.0,0.0,3.2661,3.4836,0.0,0.0,0.0,0.0,3.6992,3.8656,4.0051,4.1151,4.2717,4.4115,4.5337,4.5393,4.547,4.5586,4.5586,4.5586,4.5568,4.5568,4.54,4.5074,4.4751,4.4373,4.3986,4.3679,4.3954,4.469,4.5388,4.5186,4.4601,4.6372,4.6906,4.6524,4.5243,4.5108,4.5498,0.0,0.0,0.0,0.0,0.0,0.0,0.0,0.0,0.0,0.0,0.0,0.0,0.0,0.0,0.0,0.0,0.0,0.0,0.0,0.0,0.0,0.0,0.0,0.0,0.0,0.0,3.4561,3.453,3.6504,3.7173,3.6701,3.7026,3.7196,3.7208,3.7721,3.7684,3.7297,3.6666,3.5219,3.3355,3.3143,3.1652,0.0,0.0,0.0,0.0,0.0,0.0,0.0,0.0,0.0,0.0,0.0,0.0,0.0,0.0,0.0,0.0,0.0,0.0,0.0,0.0,0.0,0.0,0.0,0.0,0.0,0.0,0.0,0.0,0.0,0.0,0.0,0.0,0.0,0.0,0.0,0.0,0.0,3.4223,3.695,0.0,0.0,3.8308,3.9375,3.991,4.2145,4.3675,4.4075,4.4652,4.5187,4.5586,4.5586,4.5586,4.5586,4.5586,4.5586,4.5586,4.5362,4.5222,4.5094,4.5028,4.4901,4.4805,4.5492,4.5993,4.6361,4.7719,4.7774,4.7057,4.7746,4.8297,4.86,4.7526,4.7273,4.7443,0.0,0.0,0.0,0.0,0.0,0.0,0.0,0.0,0.0,0.0,0.0,0.0,0.0,0.0,0.0,0.0,0.0,0.0,0.0,0.0,0.0,0.0,0.0,0.0,0.0,3.3757,3.5155,3.5265,3.6394,3.6904,3.6772,3.7137,3.7421,3.7677,3.8117,3.8287,3.8274,3.7703,3.6589,3.5206,3.4977,3.309,3.0386,0.0,0.0,0.0,0.0,0.0,0.0,0.0,0.0,0.0,0.0,0.0,0.0,0.0,0.0,0.0,0.0,0.0,0.0,0.0,0.0,0.0,0.0,0.0,0.0,0.0,0.0,0.0,0.0,0.0,0.0,0.0,0.0,0.0,0.0,0.0,3.802,3.6768,3.9069,4.046,3.9738,4.1055,4.22,4.2774,4.4552,4.5586,4.5586,4.5586,4.5586,4.5586,4.5586,4.5586,4.5586,4.5586,4.5586,4.5605,4.5529,4.5449,4.5352,4.5817,4.5969,4.5897,4.7003,4.7682,4.8049,4.9426,4.9811,4.9554,4.9554,4.9903,5.0362,5.0068,4.9958,4.9921,0.0,0.0,0.0,0.0,0.0,0.0,0.0,0.0,0.0,0.0,0.0,0.0,0.0,0.0,0.0,0.0,0.0,0.0,0.0,0.0,0.0,0.0,0.0,0.0,3.4133,3.412,3.4864,3.6374,3.6433,3.6832,3.7525,3.8116,3.848,3.8616,3.845,3.8058,3.7557,3.7809,3.7632,3.7086,3.5599,3.3759,3.1771,0.0,0.0,0.0,0.0,0.0,0.0,0.0,0.0,0.0,0.0,0.0,0.0,0.0,0.0,0.0,0.0,0.0,0.0,0.0,0.0,0.0,0.0,0.0,0.0,0.0,0.0,0.0,0.0,0.0,0.0,0.0,0.0,0.0,3.6945,3.8833,4.029,4.029,4.1255,4.2566,4.4182,4.3643,4.3855,4.547,4.5586,4.5586,4.5586,4.5586,4.5586,4.5586,4.5586,4.5605,4.5624,4.5624,4.5643,4.5645,4.612,4.6163,4.5903,4.7143,4.7511,4.7241,4.8067,4.8893,4.9719,5.0545,5.1334,5.2032,5.2032,5.2032,5.2123,5.2913,5.3206,5.3096,0.0,0.0,0.0,0.0,0.0,0.0,0.0,0.0,0.0,0.0,0.0,0.0,0.0,0.0,0.0,0.0,0.0,0.0,0.0,0.0,0.0,0.0,0.0,0.0,3.3588,3.5729,3.6693,3.6374,3.7364,3.795,3.8179,3.9451,3.977,3.9247,3.9741,3.9465,3.8576,3.8285,3.7818,3.7212,3.7528,3.6206,3.4058,0.0,0.0,0.0,0.0,0.0,0.0,0.0,0.0,0.0,0.0,0.0,0.0,0.0,0.0,0.0,0.0,0.0,0.0,0.0,0.0,0.0,0.0,0.0,0.0,0.0,0.0,0.0,0.0,0.0,0.0,0.0,0.0,3.997,3.8202,4.0222,4.1992,4.227,4.3645,4.4739,4.5201,4.5028,4.5086,4.5566,4.5586,4.5586,4.5586,4.5586,4.5586,4.5586,4.5586,4.5893,4.6547,4.6547,4.6705,4.6978,4.6846,4.6958,4.7186,4.7863,4.842,4.8985,5.038,5.1114,5.1389,5.2215,5.2674,5.2876,5.2876,5.2876,5.2913,5.3133,5.3206,5.3188,0.0,0.0,0.0,0.0,0.0,0.0,0.0,0.0,0.0,0.0,0.0,0.0,0.0,0.0,0.0,0.0,0.0,0.0,0.0,0.0,0.0,0.0,0.0,3.4022,3.4985,3.6468,3.6981,3.6374,3.7493,3.8251,3.866,3.9886,4.0682,4.1113,4.1165,4.0817,4.0152,3.9771,3.9029,3.8262,3.9286,3.7736,3.4871,3.5232,3.4166,3.2533,3.2921,3.3167,3.3279,3.2827,0.0,0.0,0.0,0.0,0.0,0.0,0.0,0.0,0.0,0.0,0.0,0.0,0.0,0.0,0.0,0.0,0.0,0.0,0.0,0.0,0.0,0.0,0.0,0.0,4.0911,4.2087,4.1135,4.2503,4.3731,4.4107,4.5009,4.574,4.6105,4.6144,4.6144,4.6144,4.6451,4.6336,4.5624,4.5951,4.6144,4.6144,4.6144,4.6547,4.7394,4.7413,4.7452,4.7491,4.7829,4.8082,4.8234,4.9324,5.0123,0.0,5.194,5.2509,5.2546,5.3023,5.3206,0.0,0.0,0.0,0.0,0.0,5.3206,5.3206,0.0,0.0,0.0,0.0,0.0,0.0,0.0,0.0,0.0,0.0,0.0,0.0,0.0,0.0,0.0,0.0,0.0,0.0,0.0,0.0,0.0,3.4764,3.4436,3.5112,3.7155,3.6684,3.6502,3.6634,3.7378,3.8287,3.934,4.0169,4.1572,4.3353,4.2597,4.2114,4.1881,4.1676,4.0831,3.9713,4.0636,3.8704,3.5278,3.5509,3.4942,3.3965,3.3727,3.4303,3.5137,3.5017,0.0,0.0,0.0,0.0,0.0,0.0,0.0,0.0,0.0,0.0,0.0,0.0,0.0,0.0,0.0,0.0,0.0,0.0,0.0,0.0,0.0,0.0,0.0,0.0,4.2466,4.3791,4.4501,4.4972,4.5356,4.5722,4.5817,4.6182,4.6971,4.7048,4.7048,4.7048,4.7702,4.7451,4.5951,0.0,0.0,0.0,0.0,4.7432,4.824,4.8336,4.8218,4.7881,4.9126,4.9521,4.9317,5.1167,5.205,5.2179,5.2894,5.3206,5.3206,5.3206,5.3206,5.3206,5.3206,5.3206,5.3206,5.3206,5.3206,5.3206,0.0,0.0,0.0,0.0,0.0,0.0,0.0,0.0,0.0,0.0,0.0,0.0,0.0,0.0,0.0,0.0,0.0,0.0,0.0,0.0,3.199,3.4764,3.5096,3.5829,3.7175,3.6684,3.6963,3.8174,3.898,4.0066,4.1526,4.2695,4.3511,4.393,4.3789,4.3323,4.267,4.264,4.1747,4.0406,4.0593,3.9846,3.8667,3.9567,3.9228,3.8413,3.92,3.9358,3.9063,3.8177,3.8041,3.801,3.6707,0.0,0.0,0.0,0.0,0.0,0.0,0.0,0.0,0.0,0.0,0.0,0.0,0.0,0.0,0.0,0.0,0.0,0.0,0.0,0.0,4.1056,4.2673,4.4076,4.4527,4.5447,4.6197,4.6588,4.7221,4.7682,4.7855,4.7875,4.7875,4.7875,4.8009,4.7971,4.7625,4.7778,0.0,4.7875,4.7875,4.8279,4.9144,4.9856,5.0141,5.0071,0.0,0.0,5.14,5.1816,5.2344,5.2986,5.3133,5.3206,5.3206,5.3206,5.3206,5.3206,5.3206,5.3206,5.3206,5.3206,5.3206,5.3206,0.0,0.0,0.0,0.0,0.0,0.0,0.0,0.0,0.0,0.0,0.0,0.0,0.0,0.0,0.0,0.0,0.0,0.0,0.0,3.3635,3.4297,3.6696,3.6518,3.6916,3.8133,3.8264,3.8649,3.9222,4.0665,4.165,4.2244,4.3251,4.4069,4.4826,4.4826,4.453,4.4094,4.4049,4.3165,4.1793,4.208,4.1558,4.0613,4.0396,4.0311,4.0348,4.058,4.0939,4.1227,4.0679,4.0763,4.0965,4.0157,3.9625,3.8982,0.0,0.0,0.0,0.0,0.0,0.0,0.0,0.0,0.0,0.0,0.0,0.0,0.0,0.0,3.867,0.0,0.0,4.1515,4.2727,4.3897,4.4913,4.5677,4.6833,4.7442,4.6953,4.7605,4.8279,4.8702,4.8759,4.8759,4.8759,4.9144,4.9029,4.8144,4.8509,4.8759,4.8759,4.8759,4.9356,5.0644,5.1087,5.1323,5.1371,5.222,5.2404,5.1995,5.2417,5.2821,5.3206,5.3206,5.3206,5.3206,5.3206,5.3206,5.3206,5.3206,5.3206,5.3206,5.3206,5.3206,5.3206,0.0,0.0,0.0,0.0,0.0,0.0,0.0,0.0,0.0,0.0,0.0,0.0,0.0,0.0,0.0,0.0,0.0,0.0,0.0,3.5607,3.6708,3.8603,3.797,3.8097,3.9224,3.986,4.0246,4.0391,4.2131,4.2901,4.2743,4.3369,4.4292,4.5511,4.5648,4.5614,4.5521,4.5475,4.4572,4.3261,4.368,4.3084,4.1855,4.0593,4.0651,4.135,4.098,4.1558,4.2525,4.2525,4.2947,4.3497,4.3497,4.2598,4.1203,3.9258,3.779,0.0,0.0,0.0,0.0,0.0,0.0,0.0,0.0,0.0,3.8044,3.8518,3.8839,3.9577,4.1247,4.1699,4.2466,4.4465,4.5268,4.5996,4.6973,4.8186,4.8616,4.751,4.8105,4.8875,4.9586,4.9644,4.9644,4.9644,5.0298,5.0087,4.8682,4.926,4.9721,4.9875,4.9894,5.0625,5.2145,5.2237,5.2245,5.2239,5.2975,5.2953,5.2252,5.2913,5.3206,5.3206,5.3206,5.3206,5.3206,5.3206,5.3206,5.3206,5.3206,5.3206,5.3206,5.3206,5.3206,5.3206,0.0,0.0,0.0,0.0,0.0,0.0,0.0,0.0,0.0,0.0,0.0,0.0,0.0,0.0,0.0,0.0,0.0,0.0,0.0,3.6043,3.7704,3.867,3.8821,3.9186,3.98,3.9715,4.0577,4.2458,4.3004,4.3631,4.4316,4.4418,4.4821,4.5494,4.6063,4.6283,4.6289,4.6242,4.5404,4.3988,4.3988,4.3422,4.2598,4.2418,4.2441,4.2555,4.2976,4.3224,4.3369,4.3369,4.3424,4.3497,4.3497,4.3369,4.2616,3.9588,0.0,3.7753,0.0,0.0,0.0,3.6095,3.6908,3.7814,0.0,0.0,4.0166,4.0668,4.1889,4.2968,4.3185,4.3828,4.4499,4.5133,4.6127,4.6981,4.7467,4.8579,4.9298,4.9144,4.9875,5.0452,5.0548,5.0548,5.0548,5.0548,5.0625,5.0606,5.0414,5.0491,5.0875,5.1606,5.1625,5.2087,5.3049,5.3417,5.3403,5.3076,5.3505,5.3495,5.3078,5.317,5.3206,5.3206,5.3206,5.3206,5.3206,5.3206,5.3206,5.3206,5.3206,5.3206,5.3206,5.3206,5.3206,5.3206,0.0,0.0,0.0,0.0,0.0,0.0,0.0,0.0,0.0,0.0,0.0,0.0,0.0,0.0,0.0,0.0,0.0,0.0,3.3439,3.5593,3.7569,3.9313,3.9502,4.0343,4.1956,4.2359,4.3289,4.4764,4.5374,4.567,4.5648,4.5648,4.5783,4.6063,4.6728,4.6756,4.643,4.6819,4.6132,4.4794,4.466,4.4091,4.3364,4.3232,4.3178,4.3014,4.1703,4.1614,0.0,0.0,4.1896,4.2268,4.3185,4.2855,4.1662,3.9368,3.8046,0.0,3.5624,0.0,0.0,0.0,3.9443,4.009,4.1244,4.1873,4.228,4.2454,4.3406,4.4195,4.4195,4.4856,4.5606,0.0,4.7142,4.7983,4.8628,4.9548,5.0164,5.0164,5.0471,5.0702,5.0702,5.0702,5.0702,5.0702,5.0702,5.0702,5.0702,5.1144,5.1548,5.1895,5.2395,5.3087,5.3953,5.4111,5.4123,5.3975,5.4358,5.4202,5.3584,5.3851,5.3814,5.3545,5.3295,5.3206,5.3206,5.3206,5.3206,5.3206,5.3206,5.3206,5.3206,5.3206,5.3206,5.328,0.0,0.0,0.0,0.0,0.0,0.0,0.0,0.0,0.0,0.0,0.0,0.0,0.0,0.0,0.0,0.0,0.0,0.0,0.0,3.5436,3.7606,3.979,4.0102,0.0,4.3442,4.4287,4.5203,4.6188,4.7006,4.7044,4.6383,4.6383,4.6383,4.643,4.7106,4.715,4.671,4.7194,4.6557,4.5223,4.5072,4.4426,4.3565,4.3505,4.3222,4.2603,4.0708,4.0474,0.0,0.0,4.0166,4.0653,4.1809,4.1387,4.012,3.8505,3.7202,3.6303,3.6303,0.0,0.0,4.0799,4.1607,4.2194,4.3791,4.3809,4.3626,4.4066,4.4268,4.4507,4.4947,4.5516,0.0,4.7272,4.8109,4.8909,4.9724,5.0336,5.0702,5.0702,5.0702,5.0702,5.0702,5.0702,5.0702,5.0702,5.0914,5.1029,5.1029,5.1818,5.2375,5.2606,5.3241,5.3972,5.4818,5.4713,5.4683,5.4689,5.4867,5.4591,5.4013,5.4221,5.4118,5.3777,5.3381,5.3206,5.3206,5.3206,5.3206,5.3206,5.3206,5.3206,5.3243,5.3463,5.339,5.3353,0.0,0.0,0.0,0.0,0.0,0.0,0.0,0.0,0.0,0.0,0.0,0.0,0.0,0.0,0.0,0.0,0.0,0.0,0.0,3.6083,3.8175,3.9827,4.0653,4.1827,4.3442,4.4287,4.5203,4.6188,4.7006,4.7044,4.6383,4.6383,4.6383,4.643,4.7106,4.7385,4.7385,4.7385,4.6524,4.5098,4.5039,4.4101,4.2768,4.3304,4.2525,4.1167,4.1097,0.0,0.0,0.0,3.8781,3.8781,3.8836,3.8817,0.0,3.6853,3.634,0.0,0.0,0.0,4.1185,4.2047,4.2837,4.3846,4.5461,4.4617,4.3938,4.5498,4.4599,4.3993,4.5571,4.5883,4.6424,4.8012,4.8938,4.9736,5.0544,5.0683,5.0702,5.0702,5.0702,5.0702,0.0,5.0702,5.0702,5.0702,5.1414,5.1875,5.1875,5.2702,5.3549,5.4395,5.4453,5.4857,5.5665,5.5268,5.5069,5.5061,5.4701,5.4503,5.4452,5.4013,5.3814,5.3777,5.3381,5.3206,5.3206,5.3206,5.3206,5.3206,5.3206,5.3206,5.3298,5.4087,5.3867,5.3445,0.0,0.0,0.0,0.0,0.0,0.0,0.0,0.0,0.0,0.0,0.0,0.0,0.0,0.0,0.0,0.0,0.0,0.0,0.0,3.3881,3.6009,3.8193,4.0102,4.2121,4.425,4.5076,4.6195,4.7594,4.7849,4.7879,4.7656,4.7656,4.7656,4.7656,4.7897,4.7756,4.7391,4.7252,4.7284,4.7265,4.5488,4.513,4.535,4.286,4.1589,4.0836,0.0,0.0,0.0,0.0,0.0,0.0,3.8358,0.0,0.0,3.645,0.0,0.0,0.0,0.0,4.2231,4.3571,4.4507,4.5094,4.5112,4.5094,4.5094,4.5112,4.425,4.3663,4.4195,4.4745,4.536,4.6165,4.8096,4.9692,5.0225,5.0544,5.0702,5.0702,5.1164,0.0,0.0,0.0,0.0,5.151,5.2279,5.276,5.276,5.3587,5.4203,5.4491,5.5011,5.5434,5.5703,5.5577,5.5356,5.5107,5.4979,5.5034,5.5282,5.456,5.4255,5.4221,5.3502,5.3206,5.3206,5.3206,5.3206,5.3206,5.3206,5.3537,5.4032,5.4308,5.4913,5.5739,0.0,0.0,0.0,0.0,0.0,0.0,0.0,0.0,0.0,0.0,0.0,0.0,0.0,0.0,0.0,0.0,0.0,0.0,0.0,0.0,3.4045,3.6505,3.8395,4.0396,4.2525,4.4195,4.5681,4.7021,4.7884,4.8306,4.8306,4.8306,4.8306,4.8306,4.8306,4.8075,4.7702,4.7273,4.7189,4.7145,4.4784,4.4162,4.4309,4.1376,3.99,0.0,0.0,0.0,0.0,0.0,0.0,0.0,0.0,0.0,0.0,0.0,0.0,0.0,0.0,4.2543,4.3901,4.5241,4.5736,4.592,4.5975,4.5718,4.5498,4.5553,4.4011,4.2818,4.3387,4.3306,4.3597,4.5059,4.6888,4.8596,4.991,5.0336,5.0659,5.1087,5.1587,0.0,0.0,0.0,0.0,5.2395,5.3164,5.3664,5.3664,5.4472,5.4934,5.4934,5.5434,5.5703,5.5703,5.5703,5.5577,5.5306,5.5306,5.5446,5.5662,5.4867,5.4503,5.4471,5.3563,5.3206,5.3206,5.3206,5.3206,5.3243,5.3537,5.394,5.4509,5.5372,5.6528,5.774,0.0,0.0,0.0,0.0,0.0,0.0,0.0,0.0,0.0,0.0,0.0,0.0,0.0,0.0,0.0,0.0,0.0,0.0,0.0,0.0,0.0,3.4715,3.5771,3.7019,3.8597,4.1699,4.3699,4.4525,4.6819,4.7939,4.7939,4.7939,4.7939,4.7939,4.7939,4.7939,4.7827,4.7039,4.6043,4.4762,4.2883,4.1373,4.0113,3.8976,0.0,0.0,0.0,0.0,0.0,0.0,0.0,0.0,0.0,0.0,0.0,0.0,0.0,4.2338,4.243,4.4209,4.6213,4.6985,4.6581,4.6434,4.794,4.6507,4.5314,4.6801,4.392,4.1607,0.0,0.0,4.1473,4.4785,4.565,4.6913,4.9725,5.0174,5.0616,0.0,0.0,0.0,0.0,0.0,0.0,5.3395,0.0,5.4549,5.4549,5.528,5.5703,5.5703,5.5703,5.5703,5.5703,5.5703,5.5703,5.5703,5.5703,5.5703,5.5662,5.4867,5.4503,5.4471,5.3563,5.3206,5.3206,5.3206,5.3225,5.3353,5.4106,5.4454,5.4803,5.7134,5.8547,5.9281,0.0,0.0,0.0,0.0,0.0,0.0,0.0,0.0,0.0,0.0,0.0,0.0,0.0,0.0,0.0,0.0,0.0,0.0,0.0,0.0,0.0,0.0,0.0,0.0,0.0,0.0,0.0,0.0,0.0,4.2947,4.2947,4.2947,4.2947,0.0,4.2947,4.2719,4.2396,4.1946,4.201,4.2303,0.0,4.013,4.0598,0.0,0.0,0.0,0.0,0.0,0.0,0.0,0.0,0.0,0.0,0.0,3.8854,0.0,0.0,4.3014,4.4222,4.6097,4.7751,4.7958,4.8082,4.8076,4.789,4.7609,4.7333,4.715,4.392,4.1791,0.0,0.0,0.0,4.5291,4.7567,0.0,5.0387,5.1062,0.0,0.0,0.0,5.3914,5.4145,5.4914,0.0,0.0,5.5261,5.5395,5.5395,5.5588,5.5703,5.5703,5.5703,5.5703,5.5703,5.5703,5.5703,5.5703,5.5703,5.5703,5.5662,5.4867,5.4503,5.4471,5.3563,5.3206,5.3206,5.3206,5.3555,5.4106,5.4326,5.5133,5.6345,5.7556,5.8896,6.0181,0.0,0.0,0.0,0.0,0.0,0.0,0.0,0.0,0.0,0.0,0.0,0.0,0.0,0.0,0.0,0.0,0.0,0.0,0.0,0.0,0.0,0.0,0.0,0.0,0.0,0.0,0.0,0.0,0.0,0.0,0.0,4.1111,4.1111,4.1111,4.1111,4.0943,4.0682,0.0,0.0,0.0,0.0,0.0,0.0,0.0,0.0,0.0,0.0,0.0,0.0,0.0,0.0,3.9785,3.9914,4.0455,4.112,4.1675,0.0,4.4687,4.5782,4.7159,4.8306,4.8306,4.8479,4.8233,4.6749,4.6301,4.5755,4.425,4.1313,0.0,0.0,0.0,0.0,0.0,0.0,0.0,5.0728,5.1341,5.1979,0.0,5.3895,0.0,5.4991,5.5434,5.5703,0.0,5.5554,5.5512,5.5684,5.5535,5.5512,5.5684,5.5703,5.5703,5.5703,5.5703,5.5703,5.5703,5.5703,5.5703,5.5662,5.5034,5.476,5.4701,0.0,5.3444,5.3481,5.364,5.3995,5.4473,5.5188,5.6014,5.6987,5.851,5.963,6.0566,0.0,0.0,0.0,0.0,0.0,0.0,0.0,0.0,0.0,0.0,0.0,0.0,0.0,0.0,0.0,0.0,0.0,0.0,0.0,0.0,0.0,0.0,0.0,0.0,0.0,0.0,0.0,0.0,0.0,0.0,0.0,0.0,0.0,0.0,0.0,0.0,0.0,0.0,0.0,0.0,0.0,0.0,0.0,0.0,0.0,0.0,0.0,0.0,0.0,0.0,4.0203,4.1549,4.1882,4.2949,4.3975,4.3359,4.4789,4.6656,4.711,4.7868,4.8513,4.8495,4.8347,4.761,4.5329,4.4101,4.2837,4.0524,0.0,0.0,4.0029,0.0,4.0339,4.5092,0.0,4.7747,5.0928,5.1481,5.2307,5.4278,5.4587,5.4934,5.5626,5.5662,5.564,5.5703,5.5212,5.5141,5.5662,5.5375,5.5331,5.5703,5.5703,5.5703,5.5703,5.5703,5.5703,5.5703,5.5703,5.5703,5.5703,5.5282,5.5088,5.5061,0.0,0.0,5.4,5.4262,5.4528,5.4858,5.6253,5.6877,5.7244,5.9557,6.0401,6.0639,0.0,0.0,0.0,0.0,0.0,0.0,0.0,0.0,0.0,0.0,0.0,0.0,0.0,0.0,0.0,0.0,0.0,0.0,0.0,0.0,0.0,0.0,0.0,0.0,0.0,0.0,0.0,0.0,0.0,0.0,0.0,0.0,0.0,0.0,0.0,0.0,0.0,0.0,0.0,0.0,0.0,0.0,0.0,0.0,0.0,0.0,0.0,0.0,0.0,0.0,4.111,4.3576,4.396,4.4275,4.4595,4.5122,4.6278,4.7492,4.7975,4.8919,4.9719,4.9386,4.8538,4.7345,4.5592,4.4317,0.0,0.0,0.0,3.8634,4.3057,4.1827,0.0,4.7843,0.0,0.0,0.0,0.0,5.3275,0.0,0.0,0.0,0.0,0.0,0.0,0.0,0.0,0.0,5.564,5.5621,5.564,5.5703,5.5703,5.5703,5.5703,5.5703,5.5703,5.5703,5.5703,5.5703,5.5703,5.5282,5.5088,5.5061,0.0,0.0,5.4782,5.4501,5.5188,5.6418,5.6693,5.7207,5.7997,5.9758,6.0401,6.0639,0.0,0.0,0.0,0.0,0.0,0.0,0.0,0.0,0.0,0.0,0.0,0.0,0.0,0.0,0.0,0.0,0.0,0.0,0.0,0.0,0.0,0.0,0.0,0.0,0.0,0.0,0.0,0.0,0.0,0.0,0.0,0.0,0.0,0.0,0.0,0.0,0.0,0.0,0.0,0.0,0.0,0.0,0.0,0.0,0.0,0.0,0.0,0.0,0.0,0.0,3.982,4.2108,4.3189,4.4128,4.4849,4.4768,4.6064,4.7658,4.8124,4.9002,4.9746,4.9532,4.8716,4.7166,4.4117,0.0,0.0,0.0,0.0,3.667,4.0286,0.0,0.0,0.0,0.0,0.0,0.0,0.0,0.0,0.0,0.0,0.0,0.0,0.0,0.0,0.0,0.0,0.0,5.564,5.5703,5.5703,5.5703,5.5703,5.5703,5.5703,5.5703,5.5703,5.5703,5.5703,5.5703,5.5684,5.5489,5.5306,5.5061,5.4433,0.0,5.4986,5.4999,5.5721,5.684,5.7262,5.7666,5.8143,5.9355,6.0052,6.0566,0.0,0.0,0.0,0.0,0.0,0.0,0.0,0.0,0.0,0.0,0.0,0.0,0.0,0.0,0.0,0.0,0.0,0.0,0.0,0.0,0.0,0.0,0.0,0.0,0.0,0.0,0.0,0.0,0.0,0.0,0.0,0.0,0.0,0.0,0.0,0.0,0.0,0.0,0.0,0.0,0.0,0.0,0.0,0.0,0.0,0.0,0.0,0.0,0.0,0.0,3.8126,3.964,4.1034,4.2677,4.4093,4.3937,4.5407,4.727,4.8109,4.8975,4.9552,4.9277,4.8598,4.6798,4.25,4.0792,0.0,0.0,0.0,3.4559,3.7019,0.0,0.0,0.0,0.0,0.0,0.0,0.0,0.0,0.0,0.0,0.0,0.0,0.0,0.0,0.0,0.0,0.0,5.5554,5.5662,5.5703,5.5703,5.5703,5.5703,5.5703,5.5703,5.5703,5.5703,5.5703,5.5703,5.5703,5.5703,5.5512,5.5231,5.4998,0.0,0.0,5.5854,5.6441,5.7134,5.7758,5.7997,5.8125,5.9116,5.9869,6.0548,0.0,0.0,0.0,0.0,0.0,0.0,0.0,0.0,0.0,0.0,0.0,0.0,0.0,0.0,0.0,0.0,0.0,0.0,0.0,0.0,0.0,0.0,0.0,0.0,0.0,0.0,0.0,0.0,0.0,0.0,0.0,0.0,0.0,0.0,0.0,0.0,0.0,0.0,0.0,0.0,0.0,0.0,0.0,0.0,0.0,0.0,0.0,0.0,0.0,0.0,0.0,3.752,3.7928,3.9367,4.136,4.359,0.0,0.0,4.819,4.9377,4.9759,4.8626,4.773,4.6005,4.1826,0.0,0.0,0.0,3.3961,3.4559,3.7019,3.6948,0.0,0.0,0.0,0.0,0.0,0.0,0.0,0.0,0.0,0.0,0.0,0.0,0.0,0.0,0.0,0.0,0.0,5.5512,5.5703,5.5703,5.5703,5.5703,5.5703,5.5703,5.5703,5.5703,5.5703,5.5703,5.5703,5.5703,5.5662,5.5679,0.0,0.0,0.0,5.7153,5.7542,5.7905,5.796,5.7997,5.818,5.9722,6.0346,6.0621,0.0,0.0,0.0,0.0,0.0,0.0,0.0,0.0,0.0,0.0,0.0,0.0,0.0,0.0,0.0,0.0,0.0,0.0,0.0,0.0,0.0,0.0,0.0,0.0,0.0,0.0,0.0,0.0,0.0,0.0,0.0,0.0,0.0,0.0,0.0,0.0,0.0,0.0,0.0,0.0,0.0,0.0,0.0,0.0,0.0,0.0,0.0,0.0,0.0,0.0,0.0,0.0,3.5817,3.6499,0.0,0.0,4.372,4.601,4.7874,4.9024,4.9559,4.9045,4.7933,4.5922,4.2036,0.0,0.0,3.4918,3.3986,3.41,3.5092,3.5,3.5257,0.0,0.0,0.0,0.0,0.0,0.0,0.0,0.0,0.0,0.0,0.0,0.0,0.0,0.0,0.0,0.0,5.5489,5.5703,5.5703,5.5703,5.5703,5.5703,5.5703,5.5703,5.5703,5.5703,5.5703,5.5703,5.5703,5.5846,5.6135,0.0,0.0,0.0,5.7566,5.7866,5.8375,5.8097,5.7997,5.807,5.8712,5.9575,6.0493,0.0,0.0,0.0,0.0,0.0,0.0,0.0,0.0,0.0,0.0,0.0,0.0,0.0,0.0,0.0,0.0,0.0,0.0,0.0,0.0,0.0,0.0,0.0,0.0,0.0,0.0,0.0,0.0,0.0,0.0,0.0,0.0,0.0,0.0,0.0,0.0,0.0,0.0,0.0,0.0,0.0,0.0,0.0,0.0,0.0,0.0,0.0,0.0,0.0,0.0,0.0,0.0,0.0,0.0,0.0,0.0,4.2341,4.4951,4.7144,4.8375,4.8952,4.8721,4.7394,4.5243,0.0,0.0,3.8182,3.5096,3.4171,3.3928,3.3928,3.3868,3.3807,0.0,0.0,0.0,0.0,0.0,0.0,0.0,0.0,0.0,0.0,0.0,0.0,0.0,0.0,0.0,0.0,5.5489,5.5703,5.5703,5.5703,5.5703,5.5703,5.5703,5.5703,5.5703,5.5703,5.5703,5.5703,5.5703,5.6015,5.6607,0.0,0.0,0.0,5.8307,5.8427,5.8673,5.8351,5.8142,5.8033,5.8272,5.9079,6.0126,0.0,0.0,0.0,0.0,0.0,0.0,0.0,0.0,0.0,0.0,0.0,0.0,0.0,0.0,0.0,0.0,0.0,0.0,0.0,0.0,0.0,0.0,0.0,0.0,0.0,0.0,0.0,0.0,0.0,0.0,0.0,0.0,0.0,0.0,0.0,0.0,0.0,0.0,0.0,0.0,0.0,0.0,0.0,0.0,0.0,0.0,0.0,0.0,0.0,0.0,0.0,0.0,0.0,0.0,0.0,0.0,4.0935,4.2585,4.599,4.7509,4.7932,4.7124,4.5624,4.3662,0.0,0.0,3.7144,3.5448,3.4615,3.4218,3.4218,3.3986,3.3807,3.3807,0.0,0.0,0.0,0.0,0.0,0.0,0.0,0.0,0.0,0.0,0.0,0.0,0.0,0.0,0.0,5.5489,5.5703,5.5703,5.5703,5.5703,5.5703,5.5703,5.5703,5.5703,5.5703,5.5703,5.5703,5.5703,5.6165,0.0,0.0,0.0,0.0,5.9722,5.9526,5.8694,5.8694,5.8418,5.8107,5.8896,5.9208,5.9446,0.0,0.0,0.0,0.0,0.0,0.0,0.0,0.0,0.0,0.0,0.0,0.0,0.0,0.0,0.0,0.0,0.0,0.0,0.0,0.0,0.0,0.0,0.0,0.0,0.0,0.0,0.0,0.0,0.0,0.0,0.0,0.0,0.0,0.0,0.0,0.0,0.0,0.0,0.0,0.0,0.0,0.0,0.0,0.0,0.0,0.0,0.0,0.0,0.0,0.0,0.0,0.0,0.0,0.0,0.0,0.0,0.0,0.0,4.2816,4.3605,4.3739,4.3489,4.2547,4.1181,3.9238,0.0,3.69,3.5413,3.4467,3.3986,3.4171,3.3986,3.4357,3.6046,3.7881,0.0,0.0,0.0,0.0,0.0,0.0,0.0,0.0,0.0,0.0,0.0,0.0,0.0,0.0,5.564,5.5703,5.5703,5.5703,5.5703,5.5703,5.5703,5.5703,5.5703,5.5703,5.5703,5.5722,5.6319,0.0,0.0,0.0,0.0,0.0,5.9771,5.9443,5.9121,5.8484,5.8142,5.8033,5.829,5.8731,5.9373,0.0,0.0,0.0,0.0,0.0,0.0,0.0,0.0,0.0,0.0,0.0,0.0,0.0,0.0,0.0,0.0,0.0,0.0,0.0,0.0,0.0,0.0,0.0,0.0,0.0,0.0,0.0,0.0,0.0,0.0,0.0,0.0,0.0,0.0,0.0,0.0,0.0,0.0,0.0,0.0,0.0,0.0,3.3807,0.0,0.0,0.0,0.0,0.0,0.0,0.0,0.0,0.0,0.0,0.0,0.0,0.0,0.0,0.0,0.0,4.1316,4.1316,4.1316,4.0431,0.0,0.0,0.0,3.6141,3.5153,3.4401,3.3993,3.4171,3.3986,3.4412,3.6266,3.8524,0.0,0.0,0.0,0.0,0.0,0.0,0.0,0.0,0.0,0.0,0.0,0.0,0.0,0.0,0.0,5.5703,5.5703,5.5703,5.5703,5.5703,5.5703,5.5703,5.5703,5.5703,5.5857,5.6203,5.6742,0.0,0.0,0.0,0.0,0.0,6.0161,5.9804,5.9611,5.9009,5.8591,5.8282,5.8282,5.8455,5.8914,0.0,0.0,0.0,0.0,0.0,0.0,0.0,0.0,0.0,0.0,0.0,0.0,0.0,0.0,0.0,0.0,0.0,0.0,0.0,0.0,0.0,0.0,0.0,0.0,0.0,0.0,0.0,0.0,2.8994,2.9787,3.1311,0.0,0.0,0.0,0.0,0.0,0.0,0.0,0.0,0.0,0.0,0.0,0.0,0.0,0.0,0.0,0.0,0.0,0.0,0.0,0.0,0.0,0.0,0.0,0.0,0.0,0.0,0.0,0.0,0.0,0.0,0.0,0.0,0.0,0.0,0.0,0.0,3.4754,3.4423,3.42,3.42,3.4012,3.4146,3.5128,0.0,0.0,0.0,0.0,0.0,0.0,0.0,0.0,0.0,0.0,0.0,0.0,0.0,0.0,0.0,0.0,5.5703,5.5703,5.5703,5.5703,5.5703,5.5703,5.5703,5.5703,5.5703,5.6145,5.6992,5.7049,0.0,0.0,0.0,0.0,0.0,6.0757,6.0482,6.0055,6.0055,5.9477,5.8654,5.8694,5.8418,5.8235,0.0,0.0,0.0,0.0,0.0,0.0,0.0,0.0,0.0,0.0,0.0,0.0,0.0,0.0,0.0,0.0,0.0,0.0,0.0,0.0,0.0,0.0,0.0,0.0,0.0,0.0,0.0,2.8994,2.8994,2.9512,3.0503,3.1109,0.0,0.0,0.0,0.0,0.0,0.0,0.0,0.0,0.0,0.0,0.0,0.0,0.0,0.0,3.3807,3.3807,0.0,0.0,0.0,0.0,0.0,0.0,0.0,0.0,3.5493,0.0,3.6469,0.0,3.668,3.668,0.0,0.0,0.0,0.0,0.0,0.0,0.0,3.42,3.42,3.4147,3.4907,0.0,0.0,0.0,0.0,0.0,0.0,0.0,0.0,0.0,0.0,0.0,0.0,0.0,0.0,0.0,0.0,0.0,5.5703,5.5703,5.5703,5.5703,5.5703,5.5703,5.5703,5.5703,5.5703,5.6145,5.7011,5.7684,0.0,0.0,0.0,0.0,6.0757,6.0411,5.9996,5.9559,5.9559,5.8971,5.8213,5.8549,5.8418,5.8235,0.0,0.0,0.0,0.0,0.0,0.0,0.0,0.0,0.0,0.0,0.0,0.0,0.0,0.0,0.0,0.0,0.0,0.0,0.0,0.0,0.0,0.0,0.0,0.0,0.0,0.0,0.0,0.0,0.0,3.0155,0.0,0.0,0.0,0.0,0.0,0.0,0.0,0.0,0.0,0.0,0.0,0.0,0.0,0.0,0.0,0.0,3.3935,3.3986,0.0,3.4334,3.4634,3.4908,0.0,0.0,0.0,0.0,3.5493,3.5493,3.5493,3.5493,3.5493,3.5493,3.5493,3.5432,0.0,0.0,0.0,0.0,0.0,0.0,3.42,0.0,0.0,0.0,0.0,0.0,0.0,0.0,0.0,0.0,0.0,0.0,0.0,0.0,0.0,0.0,0.0,0.0,0.0,0.0,5.5703,5.5703,5.5703,5.5703,5.5703,5.5703,5.5703,5.5703,5.6107,5.6742,5.7607,5.8473,0.0,0.0,0.0,0.0,6.0781,6.0527,6.0264,6.0025,5.9823,5.9284,5.8673,5.8694,5.8616,5.8731,0.0,0.0,0.0,0.0,0.0,0.0,0.0,0.0,0.0,0.0,0.0,0.0,0.0,0.0,0.0,0.0,0.0,0.0,0.0,0.0,0.0,0.0,0.0,0.0,0.0,0.0,0.0,0.0,0.0,0.0,0.0,0.0,0.0,0.0,0.0,0.0,0.0,0.0,0.0,0.0,0.0,0.0,0.0,0.0,0.0,0.0,0.0,0.0,0.0,3.4634,3.487,3.5034,3.5157,0.0,0.0,0.0,0.0,0.0,3.5493,3.5493,3.5493,3.5493,3.5493,3.5432,3.5155,0.0,0.0,0.0,0.0,0.0,0.0,0.0,0.0,0.0,0.0,0.0,0.0,0.0,0.0,0.0,0.0,0.0,0.0,0.0,0.0,0.0,0.0,0.0,0.0,0.0,0.0,5.5703,5.5953,5.5972,5.5703,5.5703,5.5761,5.5915,5.678,5.7646,5.8511,5.9338,6.0165,0.0,0.0,0.0,6.0993,6.0993,6.0969,6.0858,6.0455,5.9982,5.9455,5.9022,5.9005,5.9336,0.0,0.0,0.0,0.0,0.0,0.0,0.0,0.0,0.0,0.0,0.0,0.0,0.0,0.0,0.0,0.0,0.0,0.0,0.0,0.0,0.0,0.0,0.0,0.0,0.0,0.0,0.0,0.0,0.0,0.0,3.2614,3.2614,3.3036,0.0,0.0,0.0,0.0,0.0,0.0,0.0,0.0,0.0,0.0,0.0,0.0,0.0,0.0,0.0,0.0,3.4851,3.4926,3.4832,3.5289,0.0,0.0,0.0,0.0,0.0,3.5493,3.5493,3.5493,3.5493,3.5493,3.5432,3.5155,0.0,0.0,0.0,0.0,0.0,0.0,0.0,0.0,0.0,0.0,0.0,0.0,0.0,0.0,0.0,0.0,0.0,0.0,0.0,0.0,0.0,0.0,0.0,0.0,0.0,0.0,5.5722,5.7126,5.7184,5.5703,5.5703,5.6069,5.6799,5.7684,5.8531,5.9358,6.0204,6.1069,0.0,0.0,6.1223,6.1897,6.1897,6.1672,6.1277,6.1249,6.0671,5.99,5.9779,5.9504,5.9428,0.0,0.0,0.0,0.0,0.0,0.0,0.0,0.0,0.0,0.0,0.0,0.0,0.0,0.0,0.0,0.0,0.0,0.0,0.0,0.0,0.0,0.0,0.0,0.0,0.0,0.0,0.0,0.0,0.0,3.2467,3.3256,3.3256,3.3458,3.3807,0.0,0.0,0.0,0.0,0.0,0.0,0.0,0.0,0.0,0.0,0.0,0.0,0.0,0.0,0.0,0.0,3.5223,3.5174,3.5432,0.0,0.0,0.0,0.0,0.0,3.5493,3.5493,3.5718,3.6622,3.618,3.5479,3.5335,0.0,0.0,0.0,0.0,0.0,0.0,0.0,0.0,0.0,0.0,0.0,0.0,0.0,0.0,0.0,0.0,0.0,0.0,0.0,0.0,0.0,0.0,0.0,0.0,0.0,0.0,0.0,5.7646,5.7915,5.7107,5.7107,5.73,5.7723,5.9031,6.0089,6.0935,6.1762,6.2377,6.2724,0.0,6.2377,6.2743,6.2743,6.2631,6.2391,6.2137,6.1643,6.1016,6.0859,6.0674,6.0658,0.0,0.0,0.0,0.0,0.0,0.0,0.0,0.0,0.0,0.0,0.0,0.0,0.0,0.0,0.0,0.0,0.0,0.0,0.0,0.0,0.0,0.0,0.0,0.0,0.0,0.0,0.0,3.2889,3.2889,3.3201,3.3807,3.3807,3.3807,0.0,0.0,0.0,0.0,0.0,0.0,0.0,0.0,0.0,0.0,0.0,0.0,0.0,0.0,0.0,0.0,0.0,0.0,0.0,0.0,0.0,0.0,3.5493,3.5493,3.5493,3.5493,3.5493,3.5911,3.7584,0.0,3.6199,3.6584,0.0,0.0,0.0,0.0,0.0,0.0,0.0,0.0,0.0,0.0,0.0,0.0,0.0,0.0,0.0,0.0,0.0,0.0,0.0,0.0,0.0,0.0,0.0,0.0,0.0,0.0,0.0,5.8338,5.8704,5.83,5.8684,5.8896,5.8896,6.0396,6.155,6.2397,6.3224,6.3608,6.3589,6.3397,6.3435,6.3608,6.3608,6.3608,6.3565,6.3102,6.253,6.1975,6.1708,6.1722,6.1961,0.0,0.0,0.0,0.0,0.0,0.0,0.0,0.0,0.0,0.0,0.0,0.0,0.0,0.0,0.0,0.0,0.0,0.0,0.0,0.0,0.0,0.0,0.0,0.0,0.0,3.2522,3.2926,3.3715,3.3715,3.3733,3.3807,3.3807,3.3807,3.3807,0.0,0.0,0.0,0.0,0.0,0.0,0.0,0.0,0.0,0.0,0.0,0.0,0.0,0.0,0.0,0.0,0.0,0.0,0.0,0.0,0.0,0.0,3.5493,3.5493,3.5493,3.5493,3.5911,3.7584,0.0,0.0,3.9777,4.0142,0.0,0.0,0.0,0.0,0.0,0.0,0.0,0.0,0.0,0.0,0.0,0.0,0.0,0.0,0.0,0.0,0.0,0.0,0.0,0.0,0.0,0.0,0.0,0.0,0.0,0.0,0.0,5.9877,5.8319,5.9838,6.0608,6.0627,6.155,6.2435,6.3243,6.4109,6.4512,6.4455,6.3647,6.3762,6.4512,6.4512,6.4512,6.4468,6.3982,6.3211,6.2289,6.1808,6.2071,6.2732,0.0,0.0,0.0,0.0,0.0,0.0,0.0,0.0,0.0,0.0,0.0,0.0,0.0,0.0,0.0,0.0,0.0,0.0,0.0,0.0,0.0,0.0,0.0,3.366,3.3348,3.3348,3.3495,3.3807,3.3807,3.3807,3.3807,3.3807,0.0,0.0,0.0,0.0,0.0,0.0,0.0,0.0,0.0,0.0,0.0,0.0,0.0,0.0,0.0,0.0,0.0,0.0,0.0,0.0,0.0,0.0,0.0,0.0,3.5493,3.5493,3.5493,3.5493,3.6161,3.8873,0.0,0.0,0.0,0.0,0.0,0.0,0.0,0.0,0.0,0.0,0.0,0.0,0.0,0.0,0.0,0.0,0.0,0.0,0.0,0.0,0.0,0.0,0.0,0.0,0.0,0.0,0.0,0.0,0.0,0.0,0.0,6.0492,5.9858,6.1012,6.1858,6.2358,6.2685,6.357,6.4936,6.5263,6.5416,6.5397,6.5051,6.5109,6.5416,6.5416,6.521,6.4813,6.4045,6.3669,6.3528,6.2659,6.2548,6.2805,0.0,0.0,0.0,0.0,0.0,0.0,0.0,0.0,0.0,0.0,0.0,0.0,0.0,0.0,0.0,0.0,0.0,0.0,0.0,0.0,0.0,0.0,0.0,3.3807,3.3807,3.3807,3.3807,3.3807,3.3807,3.3807,3.3807,0.0,0.0,0.0,0.0,0.0,0.0,0.0,0.0,0.0,0.0,0.0,0.0,0.0,0.0,0.0,0.0,0.0,0.0,0.0,0.0,0.0,0.0,0.0,0.0,0.0,0.0,3.5493,3.5493,3.5493,3.618,0.0,0.0,0.0,0.0,0.0,0.0,0.0,0.0,0.0,0.0,0.0,0.0,0.0,0.0,0.0,0.0,0.0,0.0,0.0,0.0,0.0,0.0,0.0,0.0,0.0,0.0,0.0,0.0,0.0,0.0,0.0,0.0,6.08,6.08,6.1647,6.2493,6.3301,6.3589,6.4474,6.5897,6.5897,6.5897,6.5897,6.5897,6.5897,6.5897,6.5736,6.5417,6.5016,6.4178,6.4078,6.4274,6.3215,6.2805,6.2805,0.0,0.0,0.0,0.0,0.0,0.0,0.0,0.0,0.0,0.0,0.0,0.0,0.0,0.0,0.0,0.0,0.0,0.0,0.0,0.0,0.0,0.0,0.0,3.3807,3.3807,3.3807,3.3807,3.3807,3.3807,3.3807,3.3807,0.0,0.0,0.0,0.0,0.0,0.0,0.0,0.0,0.0,0.0,0.0,0.0,0.0,0.0,0.0,0.0,0.0,0.0,0.0,0.0,0.0,0.0,0.0,0.0,0.0,3.5289,3.5493,3.5493,3.5512,0.0,0.0,0.0,0.0,0.0,0.0,0.0,0.0,0.0,0.0,0.0,0.0,0.0,0.0,0.0,0.0,0.0,0.0,0.0,0.0,0.0,0.0,0.0,0.0,0.0,0.0,0.0,0.0,0.0,0.0,0.0,0.0,0.0,0.0,6.08,6.1666,6.2512,6.332,6.4185,6.5051,6.5897,6.5897,6.5897,6.5897,6.5897,6.5897,6.5853,6.5291,6.508,6.5067,6.4554,6.4389,6.4274,6.3215,6.2805,6.2805,0.0,0.0,0.0,0.0,0.0,0.0,0.0,0.0,0.0,0.0,0.0,0.0,0.0,0.0,0.0,0.0,0.0,0.0,0.0,0.0,0.0,0.0,0.0,0.0,0.0,0.0,3.3807,3.3807,3.3807,3.3807,0.0,0.0,0.0,3.3807,0.0,0.0,0.0,0.0,0.0,0.0,0.0,0.0,0.0,0.0,0.0,0.0,0.0,0.0,0.0,0.0,0.0,0.0,0.0,0.0,0.0,3.4832,3.4999,3.5223,3.5223,0.0,0.0,0.0,0.0,0.0,0.0,0.0,0.0,0.0,0.0,0.0,0.0,0.0,0.0,0.0,0.0,0.0,0.0,0.0,0.0,0.0,0.0,0.0,0.0,0.0,0.0,0.0,0.0,0.0,0.0,0.0,0.0,0.0,0.0,0.0,6.08,6.2224,6.307,6.332,6.4801,6.5647,6.5897,6.5897,6.5897,6.5897,6.5897,6.569,6.5261,6.4388,6.4696,6.5494,6.3896,6.3723,6.4274,6.3215,6.2805,6.2805,0.0,0.0,0.0,0.0,0.0,0.0,0.0,0.0,0.0,0.0,0.0,0.0,0.0,0.0,0.0,0.0,0.0,0.0,0.0,0.0,0.0,0.0,0.0,0.0,0.0,3.3807,3.3734,0.0,0.0,0.0,0.0,0.0,0.0,3.3807,0.0,0.0,0.0,0.0,0.0,0.0,0.0,0.0,0.0,0.0,0.0,0.0,0.0,0.0,0.0,0.0,0.0,0.0,0.0,0.0,0.0,3.4653,3.5363,3.6131,3.6233,0.0,0.0,0.0,0.0,0.0,0.0,0.0,0.0,0.0,0.0,0.0,0.0,0.0,0.0,0.0,0.0,0.0,0.0,0.0,0.0,0.0,0.0,0.0,0.0,0.0,0.0,0.0,0.0,0.0,0.0,0.0,0.0,0.0,0.0,0.0,6.08,6.2454,6.3301,6.332,6.507,6.5897,6.5897,6.5897,6.5781,6.5569,6.5569,6.5291,6.4765,6.4351,6.4518,6.4904,6.3813,6.3723,6.3997,6.3381,6.3139,6.3139,0.0,0.0,0.0,0.0,0.0,0.0,0.0,0.0,0.0,0.0,0.0,0.0,0.0,0.0,0.0,0.0,0.0,0.0,0.0,0.0,0.0,0.0,0.0,0.0,0.0,0.0,0.0,0.0,0.0,0.0,0.0,0.0,3.3408,3.3734,0.0,3.3807,0.0,0.0,0.0,0.0,0.0,0.0,0.0,0.0,0.0,0.0,0.0,0.0,0.0,0.0,0.0,0.0,0.0,0.0,3.4242,3.4551,3.6083,3.7752,0.0,0.0,0.0,0.0,0.0,0.0,0.0,0.0,0.0,0.0,0.0,0.0,0.0,0.0,0.0,0.0,0.0,0.0,0.0,0.0,0.0,0.0,0.0,0.0,0.0,0.0,0.0,0.0,0.0,0.0,0.0,0.0,0.0,0.0,0.0,0.0,6.0916,6.2512,6.3339,0.0,6.5064,6.5827,6.5827,6.5827,6.5542,6.5016,6.4984,6.4731,6.4426,6.4765,6.4426,6.3723,6.4118,6.3997,6.3612,6.3543,6.3568,6.3612,0.0,0.0,0.0,0.0,0.0,0.0,0.0,0.0,0.0,0.0,0.0,0.0,0.0,0.0,0.0,0.0,0.0,0.0,0.0,0.0,0.0,0.0,0.0,0.0,0.0,0.0,0.0,0.0,0.0,0.0,0.0,0.0,0.0,3.3332,0.0,3.3807,0.0,0.0,0.0,0.0,0.0,0.0,0.0,0.0,0.0,0.0,0.0,0.0,0.0,0.0,0.0,0.0,3.3807,3.3842,3.3935,3.4218,3.6211,0.0,0.0,0.0,0.0,0.0,0.0,0.0,0.0,0.0,0.0,0.0,0.0,0.0,0.0,0.0,0.0,0.0,0.0,0.0,0.0,0.0,0.0,0.0,0.0,0.0,0.0,0.0,0.0,0.0,0.0,0.0,0.0,0.0,0.0,0.0,0.0,6.1127,6.18,6.2801,6.3647,0.0,6.4968,6.5261,6.5261,6.5261,6.5003,6.4537,6.4099,6.4099,6.4351,6.3593,6.3662,6.4157,6.3453,6.3335,6.3524,6.3139,6.3262,6.3612,0.0,0.0,0.0,0.0,0.0,0.0,0.0,0.0,0.0,0.0,0.0,0.0,0.0,0.0,0.0,0.0,0.0,0.0,0.0,0.0,0.0,0.0,0.0,0.0,0.0,0.0,0.0,0.0,0.0,0.0,0.0,0.0,0.0,3.3494,0.0,3.3807,0.0,0.0,0.0,0.0,0.0,0.0,0.0,0.0,0.0,0.0,0.0,0.0,0.0,0.0,0.0,0.0,0.0,0.0,3.3868,3.4123,0.0,0.0,0.0,0.0,0.0,0.0,0.0,0.0,0.0,0.0,0.0,0.0,0.0,0.0,0.0,0.0,0.0,0.0,0.0,0.0,0.0,0.0,0.0,0.0,0.0,0.0,0.0,0.0,0.0,0.0,0.0,0.0,0.0,0.0,0.0,0.0,6.08,6.1223,6.2089,6.2663,6.3387,6.4211,6.4584,6.4626,6.4388,6.4388,6.4407,6.4389,6.385,6.3766,6.3956,6.3408,6.3363,6.3593,6.3289,6.3363,6.3612,6.355,6.3896,6.4313,0.0,0.0,0.0,0.0,0.0,0.0,0.0,0.0,0.0,0.0,0.0,0.0,0.0,0.0,0.0,0.0,0.0,0.0,0.0,0.0,0.0,0.0,0.0,0.0,0.0,0.0,0.0,0.0,0.0,0.0,0.0,0.0,0.0,3.3707,0.0,0.0,0.0,0.0,0.0,0.0,0.0,0.0,0.0,0.0,0.0,0.0,0.0,0.0,0.0,0.0,0.0,0.0,0.0,0.0,3.3868,0.0,0.0,0.0,0.0,0.0,0.0,0.0,0.0,0.0,0.0,0.0,0.0,0.0,0.0,0.0,0.0,0.0,0.0,0.0,0.0,0.0,0.0,0.0,0.0,0.0,0.0,0.0,0.0,0.0,0.0,0.0,0.0,0.0,0.0,0.0,6.08,6.08,6.08,6.1257,6.2189,6.2462,6.3035,6.3905,6.4141,6.3997,6.3453,6.3453,6.368,6.4118,6.3637,6.3453,6.3453,6.3453,6.3215,6.2855,6.3289,6.3453,6.3543,6.3956,6.4481,6.4984,0.0,0.0,0.0,0.0,0.0,0.0,0.0,0.0,0.0,0.0,0.0,0.0,0.0,0.0,0.0,0.0,0.0,0.0,0.0,0.0,0.0,0.0,0.0,0.0,0.0,0.0,0.0,0.0,0.0,0.0,0.0,0.0,0.0,3.3302,0.0,0.0,0.0,0.0,0.0,0.0,0.0,0.0,0.0,0.0,0.0,0.0,0.0,0.0,0.0,0.0,0.0,0.0,0.0,0.0,0.0,0.0,0.0,0.0,0.0,0.0,0.0,0.0,0.0,0.0,0.0,0.0,0.0,0.0,0.0,0.0,0.0,0.0,0.0,0.0,0.0,0.0,0.0,0.0,0.0,0.0,0.0,0.0,0.0,0.0,0.0,0.0,0.0,0.0,0.0,6.08,6.08,6.08,6.08,6.1365,6.2527,6.2582,6.3193,6.4311,6.39,6.3408,6.2886,6.2886,6.2935,6.3014,6.2935,6.2886,6.2886,6.2886,6.2836,6.2823,6.2886,6.2886,6.2935,6.2965,6.3637,6.4481,0.0,0.0,0.0,0.0,0.0,0.0,0.0,0.0,0.0,0.0,0.0,0.0,0.0,0.0,0.0,0.0,0.0,0.0,0.0,0.0,0.0,0.0,0.0,0.0,0.0,0.0,0.0,0.0,0.0,0.0,0.0,3.2809,3.2952,0.0,0.0,0.0,0.0,0.0,0.0,0.0,0.0,0.0,0.0,0.0,0.0,0.0,0.0,0.0,0.0,0.0,0.0,0.0,0.0,0.0,0.0,0.0,0.0,0.0,0.0,0.0,0.0,0.0,0.0,0.0,0.0,0.0,0.0,0.0,0.0,0.0,0.0,0.0,0.0,0.0,0.0,0.0,0.0,0.0,0.0,0.0,0.0,0.0,0.0,0.0,0.0,0.0,0.0,0.0,6.08,6.08,6.08,6.08,6.08,6.1377,6.259,6.2279,6.2598,6.3524,6.3243,6.3014,6.2805,6.2805,6.2805,6.2805,6.2805,6.2805,6.2805,6.2805,6.2805,6.2805,6.3139,6.3453,6.3723,6.4,6.459,6.5249,0.0,0.0,0.0,0.0,0.0,0.0,0.0,0.0,0.0,0.0,0.0,0.0,0.0,0.0,0.0,0.0,0.0,0.0,0.0,0.0,0.0,0.0,0.0,0.0,0.0,0.0,0.0,0.0,0.0,0.0,3.2484,3.2484,3.2616,0.0,3.2983,0.0,0.0,0.0,0.0,0.0,0.0,0.0,0.0,0.0,0.0,0.0,0.0,0.0,0.0,0.0,0.0,0.0,0.0,0.0,0.0,0.0,0.0,0.0,0.0,0.0,0.0,0.0,0.0,0.0,0.0,0.0,0.0,0.0,0.0,0.0,0.0,0.0,0.0,0.0,0.0,0.0,0.0,0.0,0.0,0.0,0.0,0.0,0.0,0.0,0.0,0.0,0.0,0.0,6.08,6.08,6.08,6.08,6.08,6.1377,6.259,6.2367,6.2449,6.2805,6.2805,6.2805,6.2805,6.2805,6.2805,6.2805,6.2805,6.2805,6.2805,6.2805,6.2805,6.2855,6.3363,6.3832,6.4274,6.4731,6.5261,6.569,0.0,0.0,0.0,0.0,0.0,0.0,0.0,0.0,0.0,0.0,0.0,0.0,0.0,0.0,0.0,0.0,0.0,0.0,0.0,0.0,0.0,0.0,0.0,0.0,0.0,0.0,0.0,0.0,0.0,0.0,3.2484,3.2484,3.2282,3.188,3.235,3.2517,3.2484,0.0,0.0,0.0,0.0,0.0,0.0,0.0,0.0,0.0,0.0,0.0,0.0,0.0,0.0,0.0,0.0,0.0,0.0,0.0,0.0,0.0,0.0,0.0,0.0,0.0,0.0,0.0,0.0,0.0,0.0,0.0,0.0,0.0,0.0,0.0,0.0,0.0,0.0,0.0,0.0,0.0,0.0,0.0,0.0,0.0,0.0,0.0,0.0,0.0,0.0,0.0,6.08,6.08,6.08,6.08,6.08,6.1377,6.259,6.3197,6.3288,6.2805,6.2805,6.2805,6.2805,6.2805,6.2805,6.2805,6.2805,6.2805,6.2805,6.2805,6.2805,6.2855,6.3363,6.3612,6.368,6.4236,6.475,6.513,0.0,0.0,0.0,0.0,0.0,0.0,0.0,0.0,0.0,0.0,0.0,0.0,0.0,0.0,0.0,3.2451,0.0,0.0,0.0,0.0,0.0,0.0,0.0,0.0,0.0,0.0,0.0,0.0,0.0,3.235,3.2074,3.1787,3.16,3.1449,3.1861,3.1914,3.1694,3.1933,0.0,0.0,0.0,0.0,0.0,0.0,0.0,0.0,0.0,0.0,0.0,0.0,0.0,0.0,0.0,0.0,0.0,0.0,0.0,0.0,0.0,0.0,0.0,0.0,0.0,0.0,0.0,0.0,0.0,0.0,0.0,0.0,0.0,0.0,0.0,0.0,0.0,0.0,0.0,0.0,0.0,0.0,0.0,0.0,0.0,0.0,0.0,0.0,0.0,0.0,6.08,6.08,6.08,6.08,6.08,6.1377,6.259,6.3632,6.3832,6.3335,6.3335,6.3121,6.2805,6.2805,6.2805,6.2805,6.2805,6.2805,6.2805,6.2805,6.2805,6.2855,6.3363,6.3808,6.4178,6.4661,6.518,6.5616,0.0,0.0,0.0,0.0,0.0,0.0,0.0,0.0,0.0,0.0,0.0,0.0,0.0,0.0,0.0,3.2056,0.0,0.0,0.0,0.0,0.0,0.0,0.0,0.0,0.0,0.0,0.0,0.0,0.0,0.0,0.0,3.1329,3.1326,3.1585,3.1846,3.1807,0.0,0.0,0.0,3.3497,0.0,0.0,3.619,0.0,0.0,0.0,0.0,0.0,0.0,0.0,0.0,0.0,0.0,0.0,0.0,0.0,0.0,0.0,0.0,0.0,0.0,0.0,0.0,0.0,0.0,0.0,0.0,0.0,0.0,0.0,0.0,0.0,0.0,0.0,0.0,0.0,0.0,0.0,0.0,0.0,0.0,0.0,0.0,0.0,0.0,0.0,0.0,0.0,6.08,6.08,6.08,6.08,6.1358,6.1953,6.259,6.3949,6.437,6.3892,6.3892,6.368,6.3317,6.3317,6.3243,6.3044,6.3044,6.2984,6.2805,6.2805,6.2805,6.2886,6.3612,6.4078,6.45,6.5118,6.5597,6.5897,0.0,0.0,0.0,0.0,0.0,0.0,0.0,0.0,0.0,0.0,0.0,0.0,0.0,0.0,0.0,3.119,3.119,3.119,3.119,0.0,0.0,0.0,0.0,0.0,0.0,0.0,0.0,0.0,0.0,0.0,0.0,0.0,3.1647,0.0,3.2307,3.2324,3.2341,0.0,3.3037,3.4181,0.0,3.5632,3.6916,0.0,0.0,0.0,4.2304,4.2029,0.0,0.0,0.0,0.0,0.0,0.0,0.0,0.0,0.0,0.0,0.0,0.0,0.0,0.0,0.0,0.0,0.0,0.0,0.0,0.0,0.0,0.0,0.0,0.0,0.0,0.0,0.0,0.0,0.0,0.0,0.0,0.0,0.0,0.0,0.0,0.0,0.0,0.0,0.0,6.0757,6.08,6.08,6.08,6.08,6.2435,6.3065,6.2639,6.4279,6.4885,6.4426,6.4426,6.4426,6.4389,6.4389,6.4118,6.3612,6.3612,6.3335,6.2855,6.2805,6.2805,6.2935,6.3956,6.4389,6.4537,6.5513,6.5897,6.5897,0.0,0.0,0.0,0.0,0.0,0.0,0.0,0.0,0.0,0.0,0.0,0.0,0.0,0.0,3.119,3.119,3.119,3.119,3.119,3.119,3.1312,3.164,3.1623,0.0,0.0,0.0,0.0,0.0,0.0,0.0,0.0,0.0,0.0,0.0,3.3102,3.3389,3.3889,3.3699,0.0,0.0,3.5847,3.7772,0.0,0.0,4.3993,0.0,0.0,4.7774,0.0,0.0,4.4782,4.0918,0.0,0.0,0.0,0.0,0.0,0.0,3.8707,0.0,0.0,0.0,0.0,0.0,0.0,0.0,0.0,0.0,0.0,0.0,0.0,0.0,0.0,0.0,0.0,0.0,0.0,0.0,0.0,0.0,0.0,0.0,0.0,0.0,0.0,0.0,5.9996,5.9916,6.0283,6.0291,6.0437,6.08,6.2435,6.3251,6.3111,6.4799,6.5417,6.4919,6.4919,6.475,6.4389,6.4389,6.4313,6.4197,6.4197,6.4118,6.3915,6.3121,6.3014,6.3408,6.368,6.4255,6.4952,6.5211,6.5569,6.5897,0.0,0.0,0.0,0.0,0.0,0.0,0.0,0.0,0.0,0.0,0.0,0.0,0.0,0.0,3.2121,3.2121,3.2121,3.2121,3.2121,3.2121,3.2207,3.2471,3.2471,3.2624,0.0,0.0,0.0,0.0,0.0,0.0,0.0,0.0,0.0,0.0,0.0,0.0,0.0,0.0,0.0,0.0,3.65,0.0,0.0,4.3597,4.5443,0.0,0.0,0.0,4.7186,4.8985,4.6342,0.0,0.0,0.0,0.0,0.0,0.0,0.0,0.0,0.0,0.0,0.0,0.0,0.0,0.0,4.4838,0.0,0.0,0.0,0.0,0.0,0.0,0.0,0.0,0.0,0.0,0.0,0.0,0.0,0.0,0.0,0.0,0.0,0.0,0.0,0.0,6.0132,6.0084,6.0384,6.0384,6.0508,6.08,6.2435,6.3301,6.3301,6.5032,6.5736,6.5446,6.5446,6.531,6.5022,6.5022,6.4904,6.4696,6.4696,6.4554,6.4351,6.3723,6.3637,6.3956,6.4138,6.4571,6.513,6.534,6.5616,6.5897,0.0,0.0,0.0,0.0,0.0,0.0,0.0,0.0,0.0,0.0,0.0,3.2662,0.0,0.0,3.3406,3.3406,3.3406,3.3406,3.3406,3.3406,3.3406,3.3406,3.3406,3.3406,3.3406,0.0,0.0,0.0,0.0,0.0,0.0,0.0,0.0,0.0,0.0,0.0,0.0,0.0,0.0,3.6185,3.7171,3.9181,0.0,0.0,4.5333,0.0,4.9554,4.9279,4.8563,4.9334,4.647,0.0,0.0,0.0,0.0,0.0,3.8267,0.0,0.0,0.0,0.0,0.0,0.0,0.0,4.1405,4.4087,4.6731,0.0,0.0,0.0,0.0,0.0,0.0,0.0,0.0,0.0,0.0,0.0,0.0,0.0,0.0,0.0,0.0,0.0,6.0208,6.069,6.0714,6.0714,6.0714,6.0714,6.0796,6.0935,6.2474,6.3358,6.3455,6.507,6.5897,6.5897,6.5897,6.5897,6.5897,6.5897,6.5644,6.518,6.518,6.4952,6.4573,6.4573,6.4537,6.4537,6.4952,6.513,6.5261,6.5736,6.5897,6.5897,0.0,0.0,0.0,0.0,0.0,0.0,0.0,0.0,0.0,0.0,0.0,0.0,0.0,0.0,0.0,3.3406,3.3406,3.3406,3.3406,3.3406,3.3406,3.3406,3.3406,3.3406,3.3406,3.3406,0.0,0.0,0.0,0.0,0.0,0.0,0.0,0.0,0.0,0.0,0.0,0.0,0.0,3.9224,3.9829,0.0,4.6496,4.7715,4.8655,4.9609,5.172,5.1132,4.9352,0.0,4.7398,4.4191,0.0,0.0,0.0,0.0,0.0,0.0,0.0,0.0,0.0,0.0,0.0,0.0,3.9294,4.1356,4.3375,0.0,0.0,0.0,0.0,0.0,0.0,0.0,0.0,0.0,0.0,0.0,0.0,0.0,0.0,0.0,0.0,0.0,5.9741,6.0189,6.0236,6.0236,6.0236,6.0236,6.0717,6.182,6.2801,6.3647,6.4339,6.5378,6.5897,6.5897,6.5897,6.5897,6.5897,6.5897,6.5853,6.5736,6.5736,6.569,6.5589,6.5589,6.534,6.4984,6.5048,6.5369,6.5762,6.5853,6.5897,6.5897,0.0,0.0,0.0,0.0,0.0,0.0,0.0,0.0,0.0,0.0,0.0,0.0,0.0,0.0,0.0,0.0,3.4506,3.4506,0.0,0.0,3.4506,3.4506,3.4506,3.4506,3.4506,3.4506,0.0,0.0,0.0,0.0,0.0,0.0,0.0,0.0,0.0,0.0,0.0,0.0,3.7121,3.9571,4.0433,0.0,4.8317,4.92,5.0306,5.1555,5.2784,5.2435,5.1206,4.9994,4.8336,0.0,0.0,4.0599,3.9304,0.0,3.8099,3.835,0.0,0.0,0.0,3.8627,0.0,0.0,0.0,4.0579,0.0,0.0,0.0,0.0,0.0,0.0,0.0,0.0,0.0,0.0,0.0,0.0,0.0,0.0,0.0,0.0,0.0,0.0,5.946,6.0372,6.0437,6.0437,6.0437,6.0437,6.0955,6.207,6.2878,6.3724,6.4589,6.5455,6.5897,6.5897,6.5897,6.5897,6.5897,6.5897,6.5897,6.5897,6.5897,6.5897,6.5897,6.5897,6.5736,6.5494,6.5494,6.5663,6.5897,6.5897,6.5897,6.5897,0.0,0.0,0.0,0.0,0.0,0.0,0.0,0.0,0.0,0.0,0.0,0.0,0.0,0.0,0.0,0.0,0.0,0.0,0.0,0.0,0.0,3.5622,3.5622,3.5622,3.5622,3.5622,3.5622,0.0,0.0,0.0,0.0,0.0,0.0,0.0,0.0,0.0,0.0,0.0,0.0,3.9483,0.0,4.3989,4.7875,4.8958,5.0607,5.2419,5.2999,5.2913,5.2215,5.0153,0.0,4.7012,4.3355,4.1723,0.0,0.0,0.0,0.0,0.0,0.0,0.0,0.0,0.0,3.8707,0.0,0.0,0.0,0.0,0.0,0.0,0.0,0.0,0.0,0.0,0.0,0.0,0.0,0.0,0.0,0.0,0.0,0.0,0.0,5.8924,5.9216,6.045,6.055,6.0608,6.0781,6.08,6.1262,6.23,6.2954,6.3801,6.4839,6.5551,6.5897,6.5897,6.5897,6.5897,6.5897,6.5897,6.5897,6.5897,6.5897,6.5897,6.5897,6.5897,6.5897,6.5897,6.5897,6.5897,6.5897,6.5897,6.5897,6.5897,2.9456,2.9535,0.0,0.0,0.0,0.0,0.0,0.0,0.0,0.0,0.0,0.0,0.0,0.0,0.0,0.0,0.0,0.0,3.574,0.0,0.0,0.0,3.5622,0.0,3.5622,3.5622,3.5622,3.5622,0.0,0.0,0.0,0.0,0.0,0.0,3.6139,0.0,0.0,0.0,3.9756,0.0,4.289,4.3832,0.0,4.7651,4.9053,4.9622,5.2273,5.183,4.99,0.0,4.7277,4.5238,0.0,4.3165,0.0,0.0,0.0,0.0,0.0,0.0,0.0,0.0,3.8707,0.0,0.0,0.0,0.0,0.0,0.0,0.0,0.0,0.0,0.0,0.0,0.0,0.0,0.0,0.0,0.0,0.0,0.0,0.0,0.0,0.0,5.8716,5.9588,5.9646,5.9973,6.0762,6.08,6.1531,6.3108,6.3262,6.4089,6.5743,6.584,6.5897,6.5897,6.5897,6.5897,6.5897,6.5897,6.5897,6.5897,6.5897,6.5897,6.5897,6.5897,6.5897,6.5897,6.5897,6.5897,6.5897,6.5897,6.5897,6.5897,3.0,3.0447,0.0,0.0,0.0,0.0,0.0,0.0,0.0,0.0,0.0,0.0,0.0,0.0,0.0,0.0,0.0,4.0054,0.0,0.0,0.0,0.0,0.0,0.0,0.0,3.5005,3.5005,3.5005,3.5407,0.0,0.0,0.0,0.0,0.0,3.6308,0.0,3.8667,0.0,0.0,0.0,0.0,0.0,0.0,4.7795,5.0154,5.1524,5.2755,5.1628,4.9756,0.0,4.9669,0.0,0.0,0.0,0.0,0.0,0.0,0.0,0.0,0.0,0.0,0.0,0.0,0.0,0.0,0.0,3.8707,0.0,0.0,0.0,0.0,0.0,0.0,0.0,0.0,0.0,0.0,0.0,0.0,0.0,0.0,0.0,0.0,0.0,0.0,0.0,0.0,5.9665,6.0031,6.0993,6.2089,6.3262,6.3801,6.4647,6.5878,6.5897,6.5897,6.5897,6.5897,6.5897,6.5897,6.5897,6.5897,6.5897,6.5897,6.5897,6.5897,6.5897,6.5897,6.5897,6.5897,6.5897,6.5897,6.5897,6.5897,6.5897,3.0264,0.0,0.0,0.0,0.0,0.0,0.0,0.0,0.0,0.0,0.0,0.0,3.5136,3.7353,0.0,0.0,0.0,4.2405,0.0,0.0,3.9614,0.0,0.0,0.0,0.0,0.0,3.4333,3.4333,0.0,0.0,0.0,0.0,0.0,0.0,0.0,3.7307,3.934,0.0,0.0,4.3248,4.3898,4.4653,4.5758,4.8635,5.1454,5.3867,5.3867,5.2289,5.0453,5.209,5.1438,0.0,5.0035,0.0,0.0,0.0,0.0,0.0,4.1181,0.0,0.0,0.0,0.0,0.0,0.0,0.0,0.0,0.0,0.0,0.0,0.0,0.0,0.0,0.0,0.0,0.0,0.0,0.0,0.0,0.0,0.0,0.0,0.0,0.0,0.0,0.0,5.6395,5.828,5.9435,6.0935,6.2224,6.3281,6.4147,6.5013,6.5878,6.5897,6.5897,6.5897,6.5897,6.5897,6.5897,6.5897,6.5897,6.5897,6.5897,6.5897,6.5897,6.5897,6.5897,6.5897,6.5897,6.5897,6.5897,6.5897,6.5917,6.5936,3.0104,3.0315,0.0,0.0,0.0,0.0,0.0,0.0,0.0,0.0,0.0,0.0,0.0,0.0,0.0,0.0,0.0,4.4637,4.2422,0.0,4.1238,0.0,0.0,3.6834,0.0,0.0,0.0,3.3633,0.0,0.0,0.0,0.0,0.0,0.0,0.0,3.5464,3.5817,3.9093,4.1327,4.291,4.5114,4.7823,5.053,0.0,5.2295,5.55,5.55,0.0,0.0,5.1399,5.1077,0.0,0.0,0.0,0.0,0.0,0.0,0.0,0.0,0.0,0.0,4.3411,0.0,0.0,0.0,0.0,3.8707,0.0,0.0,0.0,0.0,0.0,0.0,0.0,0.0,0.0,0.0,0.0,0.0,0.0,0.0,0.0,0.0,0.0,0.0,5.2991,5.3337,5.5184,5.9281,6.0339,6.1608,6.3262,6.4147,6.5013,6.5878,6.5897,6.5897,6.5897,6.5897,6.5897,6.5897,6.5897,6.5897,6.5897,6.5897,6.5897,6.5897,6.5897,6.5897,6.5897,6.5897,6.5897,6.5897,6.5897,6.5974,6.609,0.0,0.0,0.0,0.0,0.0,0.0,0.0,3.1853,0.0,0.0,0.0,0.0,0.0,0.0,4.1432,0.0,0.0,4.7056,4.6752,4.5365,0.0,0.0,0.0,3.8294,0.0,0.0,0.0,0.0,0.0,0.0,0.0,0.0,0.0,0.0,0.0,3.6559,0.0,0.0,0.0,0.0,0.0,4.9661,5.1133,0.0,0.0,5.4978,5.6045,5.4491,0.0,5.3646,5.335,5.2612,5.376,5.3314,5.2364,5.2082,5.0153,0.0,0.0,0.0,4.4437,4.4325,0.0,0.0,0.0,0.0,0.0,0.0,0.0,0.0,0.0,0.0,0.0,0.0,0.0,0.0,0.0,0.0,0.0,0.0,0.0,0.0,0.0,0.0,0.0,4.7221,4.9413,5.2299,0.0,5.8069,6.0416,6.3224,6.4705,6.559,6.5897,6.5897,6.5897,6.5897,6.5897,6.5897,6.5897,6.5897,6.5897,6.5897,6.5897,6.5897,6.5897,6.5897,6.5897,6.5897,6.5897,6.5897,6.5897,6.5897,6.5917,6.601,2.6905,0.0,0.0,0.0,0.0,0.0,0.0,0.0,0.0,0.0,3.5308,0.0,3.7277,0.0,4.3519,0.0,4.7225,4.9289,4.9763,4.846,0.0,4.6532,4.3845,0.0,0.0,0.0,0.0,0.0,3.2897,3.2971,0.0,0.0,0.0,0.0,0.0,0.0,0.0,0.0,4.3948,0.0,0.0,5.1918,0.0,0.0,5.4621,5.446,0.0,5.6124,5.4437,5.6255,5.5996,5.5097,5.6124,5.5739,5.4821,5.4289,5.3004,5.1756,5.1756,4.9994,0.0,4.781,4.6122,0.0,4.3305,0.0,0.0,0.0,0.0,0.0,0.0,0.0,0.0,0.0,0.0,0.0,0.0,0.0,0.0,0.0,0.0,0.0,0.0,0.0,4.3316,4.422,4.6336,4.9202,0.0,0.0,5.8646,6.1435,6.3782,6.4974,6.4974,6.4974,6.5128,6.5436,6.5436,6.559,6.5897,6.5897,6.5897,6.5897,6.5897,6.5897,6.5897,6.5897,6.5897,6.5897,6.5897,6.5897,6.5897,6.5897,6.5974,6.6126,2.767,2.839,0.0,0.0,3.0519,0.0,0.0,0.0,3.6138,0.0,3.9326,4.1727,4.2469,4.5191,4.722,4.7841,4.9932,0.0,5.1217,5.1217,0.0,0.0,4.7387,4.5031,4.0641,0.0,0.0,0.0,3.2455,3.2049,0.0,0.0,0.0,0.0,3.4381,0.0,3.6518,3.8013,4.2044,4.789,5.3244,5.4103,5.2612,5.6434,0.0,5.3973,5.7819,5.8664,5.8121,5.8939,5.8702,5.806,5.8125,5.8088,5.8052,5.8052,5.8033,5.7997,5.7997,5.6271,5.4289,5.3518,0.0,0.0,0.0,0.0,4.9774,0.0,0.0,0.0,0.0,0.0,0.0,0.0,0.0,0.0,0.0,0.0,0.0,0.0,0.0,0.0,0.0,4.0339,4.1508,4.3989,4.4143,4.599,0.0,0.0,5.6242,5.8242,6.1435,6.3185,6.3301,6.3301,6.3724,6.4551,6.4589,6.5032,6.584,6.5878,6.5897,6.5897,6.5897,6.5897,6.5897,6.5897,6.5897,6.5897,6.5897,6.5897,6.5897,6.5897,6.6109,6.6423,2.6782,2.8398,2.9923,0.0,3.224,3.3759,0.0,0.0,0.0,0.0,4.1898,4.3247,4.395,4.6178,4.7703,4.7858,4.9932,0.0,0.0,0.0,0.0,5.0405,4.9493,4.7852,4.5263,4.3193,0.0,3.6904,0.0,0.0,3.3261,0.0,0.0,0.0,0.0,0.0,3.6821,3.8673,4.166,4.5473,4.9201,5.0022,0.0,0.0,5.4162,5.3977,5.7846,5.8667,5.8143,5.8933,5.9087,5.8976,5.9615,5.9373,5.8896,5.8896,5.8474,5.7997,5.7997,5.6657,5.5225,5.5042,5.3775,5.237,0.0,0.0,0.0,0.0,0.0,0.0,0.0,0.0,0.0,0.0,0.0,0.0,0.0,0.0,0.0,0.0,0.0,0.0,0.0,4.0339,4.1027,4.2335,4.1835,4.3605,0.0,0.0,0.0,5.8127,5.9723,6.1377,6.3281,6.3301,6.3416,6.3647,6.4301,6.4724,6.4955,6.559,6.5897,6.5897,6.5897,6.5897,6.5897,6.5897,6.5897,6.5897,6.5897,6.5897,6.5897,6.6013,6.609,6.623,2.718,0.0,0.0,3.0797,0.0,0.0,3.6398,0.0,0.0,4.3229,4.5375,0.0,4.7271,4.9123,5.0371,5.0371,5.1505,0.0,0.0,0.0,0.0,5.2215,5.1698,5.0426,4.8349,4.658,0.0,3.893,0.0,0.0,3.3499,0.0,0.0,0.0,0.0,3.626,0.0,4.0205,4.2535,4.4727,4.8489,0.0,0.0,5.3771,5.5141,5.5704,5.7872,5.8328,5.8105,5.8926,5.922,5.9293,5.9747,5.981,5.9722,5.9722,5.941,5.9043,5.9043,5.8382,5.7703,5.7703,5.7281,5.6676,5.6025,5.6383,5.7024,0.0,0.0,0.0,0.0,0.0,0.0,0.0,0.0,0.0,0.0,0.0,0.0,0.0,0.0,0.0,4.0364,4.077,4.1104,4.1219,4.1123,4.2489,0.0,0.0,0.0,5.5934,5.8665,6.0762,6.2185,6.2204,6.2397,6.2781,6.3262,6.3685,6.407,6.4936,6.532,6.5359,6.5724,6.5897,6.5897,6.5897,6.5897,6.5897,6.5897,6.5936,6.6013,6.6167,6.6225,6.6321,0.0,0.0,0.0,0.0,0.0,0.0,0.0,4.0224,0.0,4.5378,0.0,5.0949,5.0949,5.2468,5.3501,5.3501,0.0,5.3501,5.3501,5.3501,5.3501,5.3501,5.3501,5.257,5.0574,4.9207,0.0,0.0,0.0,0.0,3.3754,0.0,0.0,0.0,0.0,0.0,0.0,4.1977,4.3961,0.0,4.9644,5.2317,5.3754,5.6055,5.734,5.7881,5.7881,5.7907,5.8025,5.8895,5.9165,5.9238,5.9421,5.9932,6.0451,6.0518,6.0493,6.0401,6.0401,6.0493,6.0566,6.0566,6.1153,6.1575,6.0878,6.1263,6.1759,6.1759,5.9208,5.7171,0.0,0.0,0.0,0.0,0.0,0.0,0.0,0.0,0.0,0.0,0.0,0.0,0.0,0.0,4.1508,4.1181,4.1873,4.2874,0.0,0.0,0.0,5.3645,5.7992,0.0,6.08,0.0,6.1166,6.1916,6.205,6.2512,6.3339,6.4089,6.4493,6.4647,6.5282,6.5609,6.5724,6.5724,6.5801,6.5917,6.5917,6.6013,6.6147,6.6365,6.6436,6.6582,0.0,0.0,0.0,0.0,0.0,3.5883,4.1225,4.3702,4.577,4.7886,5.0263,0.0,5.1723,5.2786,5.3501,5.3501,5.3501,0.0,0.0,0.0,0.0,5.3501,5.3501,5.3315,5.2909,5.1772,4.8748,0.0,4.2627,3.9677,3.516,0.0,0.0,0.0,0.0,0.0,3.898,4.2769,0.0,4.5077,5.0794,5.3264,5.3822,5.663,5.778,5.7881,5.7881,5.7925,5.8004,5.8871,5.9147,5.933,6.0741,6.0792,6.0519,6.1208,6.0915,6.0401,6.0401,6.0878,6.1392,6.1392,6.1998,6.2567,6.242,6.2493,6.2603,6.2603,6.0034,5.7831,5.796,0.0,0.0,0.0,0.0,0.0,0.0,0.0,0.0,0.0,0.0,0.0,0.0,0.0,0.0,0.0,0.0,0.0,0.0,0.0,0.0,0.0,0.0,0.0,0.0,0.0,6.0877,6.1031,6.1762,6.2512,6.332,6.3474,6.3916,6.457,6.4012,6.4166,6.4839,6.4839,6.532,6.6051,6.6051,6.6167,6.6384,6.6519,6.6574,6.6703,0.0,0.0,0.0,0.0,0.0,0.0,0.0,4.3838,0.0,4.9268,5.0458,5.132,5.1832,5.287,5.3501,5.3501,5.3501,5.3501,5.3501,5.3501,5.3264,5.2714,5.2627,0.0,5.2627,5.2153,4.9501,4.4494,4.401,4.0899,0.0,0.0,0.0,0.0,0.0,3.8471,0.0,0.0,0.0,4.9458,5.2334,5.4414,5.5936,5.734,5.7881,5.7881,5.7881,5.7881,5.7954,5.8317,5.8737,5.9227,6.0051,6.0652,6.1099,6.1495,6.1606,6.1649,6.1649,6.1942,6.2218,6.2218,6.2511,6.2805,6.2805,6.2805,6.2805,6.2805,6.1575,6.0364,5.9942,5.742,0.0,0.0,0.0,0.0,0.0,0.0,0.0,0.0,0.0,0.0,0.0,0.0,0.0,0.0,0.0,0.0,0.0,0.0,0.0,0.0,0.0,0.0,0.0,0.0,0.0,6.08,6.1223,6.1627,6.2012,6.2474,6.2916,6.332,6.3782,6.4205,6.4647,6.5166,6.5705,6.6255,6.6263,6.6374,6.6519,6.6577,6.6673,6.6962,0.0,3.1863,0.0,0.0,3.6094,0.0,0.0,4.3314,4.5627,4.9284,4.9931,5.0397,5.1139,5.217,5.2956,5.311,5.3179,5.3264,5.3501,5.3501,5.3025,5.1921,5.1921,5.1776,5.1614,5.1614,4.943,0.0,4.4436,4.1519,0.0,0.0,0.0,0.0,0.0,0.0,0.0,0.0,4.9187,5.3551,5.4177,5.5818,5.7881,5.7881,5.7881,5.7881,5.7881,5.7881,5.7881,5.7881,5.8317,5.8857,5.9061,5.9988,6.1153,6.1474,6.2023,6.2567,6.2755,6.2805,6.2805,6.2805,6.2805,6.2805,6.2805,6.2805,6.2805,6.2805,6.2805,6.2567,6.1741,5.9742,0.0,0.0,0.0,0.0,0.0,0.0,0.0,0.0,0.0,0.0,0.0,0.0,0.0,0.0,0.0,0.0,5.3414,5.5626,0.0,0.0,0.0,6.08,6.08,0.0,6.08,0.0,6.08,6.0896,6.1089,6.1589,6.1935,6.2204,6.3339,6.4051,6.4493,6.5485,6.6097,6.6453,6.6454,6.6528,6.665,6.6656,6.6881,6.7384,0.0,0.0,0.0,0.0,0.0,0.0,0.0,4.4197,4.5102,4.7267,4.8377,4.8988,4.9054,5.0087,5.1096,5.1993,5.2065,5.247,5.3433,5.3501,5.3025,5.1921,5.1921,5.1467,5.055,5.055,4.9411,0.0,0.0,4.1835,0.0,0.0,0.0,0.0,0.0,0.0,0.0,5.111,5.2993,5.3737,5.641,5.7645,5.7881,5.7881,5.7881,5.7881,5.7881,5.7881,5.7881,5.7881,5.7954,5.8137,5.8875,5.9245,5.9604,6.1153,6.1641,6.1897,6.2567,6.2805,6.2805,6.2805,6.2805,6.2805,6.2805,6.2805,6.2805,6.2805,6.2805,6.2567,6.1741,6.2346,6.2231,0.0,0.0,0.0,0.0,0.0,0.0,0.0,0.0,0.0,0.0,0.0,0.0,0.0,0.0,5.3741,5.8784,5.9858,6.0416,6.0608,0.0,6.08,6.08,6.08,0.0,6.08,6.08,6.1204,6.1935,6.1243,6.1416,6.2243,6.1608,6.23,6.3945,6.484,6.574,6.6577,6.6593,6.6703,6.6867,6.6884,6.7383,6.8215,0.0,0.0,0.0,0.0,0.0,0.0,0.0,4.5334,4.6396,4.7189,4.8141,4.9069,4.9694,5.0165,5.055,5.093,5.1005,5.1171,5.1647,5.1647,5.1171,5.0071,5.0055,4.9836,4.9456,4.9456,4.8435,0.0,0.0,4.1597,3.8994,3.7048,0.0,0.0,0.0,4.7424,5.0604,5.2674,5.4515,5.6241,5.7425,5.7881,5.7881,5.7881,5.7881,5.7881,5.7881,5.7881,5.7881,5.7881,5.7881,5.7954,5.8263,5.8686,5.9227,5.9925,6.0784,6.1659,6.2023,6.2446,6.2805,6.2805,6.2805,6.2805,6.2805,6.2805,6.2805,6.2805,6.2805,6.2713,6.2383,6.2632,6.2023,0.0,0.0,0.0,0.0,0.0,0.0,0.0,0.0,0.0,0.0,0.0,0.0,0.0,0.0,5.1991,5.5626,5.6088,5.6953,5.855,0.0,5.9242,6.0781,6.08,6.08,6.08,6.08,6.0973,6.13,6.1031,6.1462,6.2402,6.2034,6.2704,6.4051,6.4883,6.5533,6.605,6.6576,6.6837,6.6893,6.69,6.7448,6.832,4.0336,0.0,4.1729,0.0,4.382,4.52,4.52,4.6396,4.7309,4.7309,4.7919,4.8692,4.9407,4.9472,4.9631,4.9931,4.9931,5.0087,5.0413,5.0397,4.9931,4.8825,4.8825,0.0,4.8377,4.8377,4.7819,4.6765,4.4401,0.0,4.1014,0.0,0.0,0.0,4.7605,5.0705,5.3966,5.4544,5.5987,5.7881,5.7881,5.7881,5.7881,5.7881,5.7881,5.7881,5.7881,5.7881,5.7881,5.7881,5.7881,5.7881,5.7881,5.8317,5.8806,5.9061,6.0113,6.1304,6.153,6.22,6.2805,6.2805,6.2805,6.2805,6.2805,6.2805,6.2805,6.2805,6.2805,6.2805,6.2805,6.2659,6.1744,5.9448,0.0,0.0,0.0,0.0,0.0,0.0,0.0,5.4145,5.0837,0.0,0.0,0.0,0.0,4.9721,5.3069,5.3973,0.0,0.0,0.0,0.0,0.0,6.0877,6.0858,6.0858,6.0858,6.0858,6.0858,6.105,6.1523,6.2206,6.224,6.2982,6.4209,6.4771,6.5395,6.6035,6.666,6.6894,6.6894,6.6894,6.7617,6.8652,4.4861,4.5331,4.5706,4.6959,4.7249,4.7264,4.7264,4.7294,4.7309,4.7309,4.7294,4.7309,4.7309,4.7309,4.7764,4.8743,4.8825,4.9296,5.032,5.0397,4.9931,0.0,0.0,4.8361,4.7294,4.7309,4.7834,4.8794,0.0,0.0,4.7245,0.0,4.681,5.1065,5.1168,5.367,5.7831,5.7831,5.7865,5.7881,5.7881,5.7881,5.7881,5.7881,5.7881,5.7881,5.7881,5.7881,5.7881,5.7881,5.7881,5.7881,5.7881,5.7898,5.8065,5.8875,5.9704,6.0598,6.1361,6.22,6.2805,6.2805,6.2805,6.2805,6.2805,6.2805,6.2805,6.2805,6.2805,6.2805,6.2805,6.2805,6.253,6.1686,0.0,0.0,0.0,0.0,0.0,0.0,6.0185,5.8723,5.3645,0.0,0.0,0.0,0.0,0.0,0.0,0.0,0.0,5.7504,5.973,0.0,6.1304,6.1112,6.0993,6.0993,6.0993,6.0993,6.0993,6.1343,6.1497,6.1508,6.166,6.2695,6.4297,6.4316,6.5332,6.6894,6.6894,6.6894,6.6894,6.6894,6.8008,6.9462,4.3975,4.4826,4.5494,4.5973,4.6726,4.7309,4.7309,4.7309,4.7309,4.7309,4.7309,4.7474,4.7923,4.7982,4.7947,0.0,4.8173,4.8405,0.0,4.8737,4.863,4.7779,4.8203,4.8076,4.7324,4.7309,4.7452,4.7764,0.0,0.0,0.0,4.7766,5.0101,5.2858,5.4841,5.6533,5.7881,5.7881,5.7881,5.7881,5.7881,5.7881,5.7881,5.7881,5.7881,5.7881,5.7881,5.7881,5.7881,5.7881,5.7881,5.7881,5.7881,5.7881,5.7954,5.8192,5.9279,6.0476,6.07,6.1788,6.2805,6.2805,6.2805,6.2805,6.2805,6.2805,6.2805,6.2805,6.2805,6.2805,6.2805,6.3091,6.3122,6.2506,6.3051,0.0,0.0,0.0,0.0,0.0,0.0,5.6896,0.0,5.3203,0.0,0.0,0.0,0.0,0.0,0.0,0.0,0.0,5.7282,0.0,6.1285,6.1232,6.119,6.1209,6.1192,6.1247,6.1343,6.1458,6.1557,6.1634,6.1672,6.2344,6.3457,6.4043,6.498,6.6074,6.668,6.6894,6.6894,6.6894,6.7969,6.9403,4.3409,4.4549,4.5403,4.5403,4.6447,4.7309,4.7309,4.7309,4.7309,4.7309,4.7309,4.7459,4.7878,4.8356,0.0,4.8072,4.8416,4.8476,4.8072,4.8416,4.8476,4.8057,4.8431,4.8461,4.8057,0.0,0.0,4.8042,4.7166,4.6942,4.734,5.0429,5.2696,5.4176,5.6487,5.7628,5.7881,5.7881,5.7881,5.7881,5.7881,5.7881,5.7881,5.7881,5.7881,5.7881,5.7881,5.7881,5.7881,5.7881,5.7881,5.7881,5.7881,5.7881,5.7881,5.7881,5.8823,5.9896,5.9896,6.1113,6.2324,6.2324,6.2567,6.2805,6.2805,6.2805,6.2805,6.2805,6.2805,6.2805,6.2805,6.3091,6.3168,6.2855,6.3059,6.3349,0.0,0.0,0.0,0.0,0.0,0.0,0.0,5.5184,0.0,0.0,0.0,0.0,0.0,0.0,0.0,5.5054,5.7646,0.0,6.142,6.1407,6.1383,6.1385,6.1387,6.142,6.1501,6.1537,6.1616,6.1699,6.1699,6.2187,6.3047,6.3594,6.4336,6.5195,6.6074,6.6211,6.5996,6.666,6.7727,6.8861,4.3026,4.4256,0.0,0.0,4.6344,0.0,4.7309,4.7309,4.7309,4.7309,4.7339,4.7399,4.7429,4.8581,4.9359,4.9404,0.0,0.0,0.0,4.9314,4.9314,4.9269,4.9314,4.9314,4.9269,4.8671,4.8656,4.9269,5.0273,5.0762,5.0933,5.2971,5.4405,5.5216,5.6308,5.7167,5.7881,5.7881,5.7881,5.7881,5.7881,5.7881,5.7881,5.7881,5.7881,5.7881,5.7881,5.7881,5.7881,5.7881,5.7881,5.7881,5.7881,5.7881,5.7881,5.7881,5.8441,5.9111,5.9178,6.0361,6.1586,6.1659,6.2271,6.2805,6.2805,6.2805,6.2805,6.2805,6.2805,6.2805,6.2805,6.2805,6.2805,6.2805,6.3159,6.3691,6.4294,0.0,0.0,0.0,0.0,0.0,0.0,5.8646,5.7261,0.0,0.0,0.0,0.0,0.0,5.5119,5.7641,6.0196,6.1576,6.169,6.1593,6.1502,6.1504,6.1507,6.1494,6.1518,6.1641,6.1699,6.1699,6.1699,6.2187,6.3008,6.3008,6.3515,6.4375,6.5195,6.5058,6.459,6.6208,6.7295,6.8071,0.0,0.0,4.2834,4.3787,4.5024,4.6166,4.7121,4.7309,4.7309,4.7309,4.7743,4.8252,4.8745,4.9523,5.0212,5.072,5.0301,4.9793,4.9299,4.9733,4.9778,4.9284,4.9748,4.9778,4.9284,4.9119,4.9105,4.9269,5.0005,5.0829,5.1661,5.266,5.4141,5.594,5.6206,5.6888,5.7881,5.7881,5.7881,5.7881,5.7881,5.7881,5.7881,5.7881,5.7881,5.7881,5.7881,5.7881,5.7881,5.7881,5.7881,5.7881,5.7881,5.7881,5.7881,5.7881,5.8441,5.9245,5.9896,6.0802,6.177,6.2376,6.2636,6.2805,6.2805,6.2805,6.2805,6.2805,6.2805,6.2805,6.2805,6.2805,6.2805,6.2805,6.2401,6.2613,6.418,6.2461,0.0,0.0,6.182,6.08,6.08,6.0242,5.9896,0.0,0.0,0.0,0.0,5.7653,5.6991,5.784,6.0328,6.1674,6.1705,6.1666,6.1658,6.164,6.1655,6.1646,6.1652,6.1694,6.1699,6.1699,6.1699,6.2187,6.3008,6.3008,6.3515,6.4316,6.4531,6.4883,6.5328,6.5586,6.7039,6.8871,3.9697,4.0743,4.1789,4.2558,4.4163,4.5598,4.6344,4.6931,4.7414,4.7713,4.8057,4.8536,4.9194,4.9853,5.0391,5.0735,5.072,5.0541,5.0182,5.0496,5.0526,5.0167,5.0496,5.0511,5.0167,4.9868,4.9703,4.9703,5.0376,5.0923,5.1605,5.2479,5.3569,5.4707,5.5231,5.6047,5.7131,5.7131,5.7446,5.7881,5.7881,5.7881,5.7881,5.7881,5.7881,5.7881,5.7881,5.7881,5.7881,5.7881,5.7881,5.7881,5.7881,5.7881,5.7881,5.7881,5.8192,5.8616,5.9145,6.0149,6.1304,6.2515,6.2805,6.2805,6.2805,6.2805,6.2805,6.2805,6.2805,6.2805,6.2805,6.2805,6.2805,6.2805,6.2126,6.2142,6.3596,6.1956,0.0,6.2592,6.1589,6.08,6.08,6.08,6.08,6.08,0.0,0.0,6.1208,6.0052,5.943,5.9629,6.0976,6.1699,6.1699,6.1699,6.1699,6.1699,6.1699,6.1699,6.1699,6.1699,6.1699,6.1699,6.1699,6.1973,6.2402,6.2402,6.2676,6.3144,6.3555,6.3984,6.4485,6.5083,6.6641,6.846,3.9697,4.0554,4.1419,4.1604,4.3409,4.4961,4.5441,4.6491,4.7493,4.8341,4.8521,4.879,4.9359,5.0002,5.0391,5.0391,5.09,5.1214,5.1214,5.1214,5.1214,5.1214,5.1214,5.1214,5.1214,5.0676,5.0391,5.0391,5.0945,5.1214,5.1214,5.223,5.2738,5.29,5.3913,5.5052,5.6204,5.6204,5.687,5.7881,5.7881,5.7881,5.7881,5.7881,5.7881,5.7881,5.7881,5.7881,5.7881,5.7881,5.7881,5.7881,5.7881,5.7881,5.7881,5.7881,5.7881,5.7954,5.8082,5.9262,6.0956,6.2446,6.2805,6.2805,6.2805,6.2805,6.2805,6.2805,6.2805,6.2805,6.2805,6.2805,6.2768,6.2658,6.1741,6.1468,6.2749,0.0,6.0576,6.1939,6.132,6.08,6.08,6.08,6.08,6.08,6.0896,6.1031,0.0,6.1386,6.153,6.1679,6.1699,6.1699,6.1699,6.1699,6.1699,6.1699,6.1699,6.1699,6.1699,6.1699,6.1699,6.1699,6.1699,6.1699,6.1699,6.1699,6.1699,6.1797,6.2656,6.3063,6.331,6.4599,6.6222,6.7814,3.9697,3.989,4.0364,4.1406,4.1887,4.3108,4.5831,4.6394,4.7205,4.8925,4.9598,4.9972,5.0077,5.0676,5.1065,5.1065,5.1154,5.1214,5.1214,5.1214,5.1214,5.1214,5.1214,5.1214,5.1214,5.1124,5.1065,5.1065,5.1169,5.1214,5.1214,5.1386,5.1972,5.29,5.3061,5.4305,5.6204,5.6204,5.687,5.7881,5.7881,5.7881,5.7881,5.7881,5.7881,5.7881,5.7881,5.7881,5.7881,5.7881,5.7881,5.7881,5.7881,5.7881,5.7881,5.7881,5.7881,5.8082,5.8755,6.0113,6.1659,6.2567,6.2805,6.2805,6.2805,6.2805,6.2805,6.2805,6.2805,6.2805,6.2805,6.2805,6.2585,6.1906,5.996,5.9405,6.1751,0.0,5.8703,6.1728,6.132,6.08,6.08,6.08,6.08,6.08,6.0819,6.0877,6.1031,6.1233,6.1397,6.1523,6.164,6.1699,6.1699,6.1699,6.1699,6.1699,6.1699,6.1699,6.1699,6.1699,6.1699,6.1699,6.1699,6.1699,6.1699,6.1699,6.1699,6.1797,6.2656,6.3388,6.3938,6.4016,6.5896,6.8333,3.9697,3.9697,3.989,4.0453,4.138,4.2545,4.3971,4.5751,4.7261,4.8506,4.9556,5.0376,5.0735,5.1035,5.0917,5.0191,5.0807,5.0902,5.0191,5.0807,5.1214,5.1214,5.1214,5.1214,5.1214,5.1214,5.1214,5.1214,5.1214,5.1214,5.1214,5.1214,5.1464,5.1972,5.1972,5.3221,5.5312,5.5312,5.6298,5.7881,5.7881,5.7881,5.7881,5.7881,5.7881,5.7881,5.7881,5.7881,5.7881,5.7881,5.7881,5.7881,5.7881,5.7881,5.7881,5.7881,5.7881,5.8209,5.9443,6.0379,6.1247,6.2515,6.2805,6.2805,6.2805,6.2805,6.2805,6.2805,6.2805,6.2677,6.2236,6.2511,6.2401,6.1153,6.0015,0.0,0.0,5.9502,5.9071,6.1151,6.1031,6.08,6.08,6.08,6.08,6.08,6.08,6.0896,6.1151,6.1253,6.1389,6.1601,6.168,6.1699,6.1699,6.1699,6.1699,6.1699,6.1699,6.1699,6.1699,6.1699,6.1699,6.1699,6.1699,6.1699,6.1699,6.1699,6.1699,6.1737,6.2065,6.2971,6.4012,6.3283,6.5363,6.8448,3.9697,3.9697,3.9697,3.9697,4.0811,4.1964,4.2519,4.4713,4.667,4.7826,4.8841,4.9648,5.0228,5.0287,4.9873,4.8851,4.9984,5.0287,4.9259,5.0493,5.1214,5.1214,5.1214,5.1214,5.1214,5.1214,5.1214,5.1214,5.1214,5.1214,5.1214,5.1214,5.1214,5.1214,5.1214,5.232,5.4253,5.4505,5.573,5.7554,5.7792,5.7881,5.7881,5.7881,5.7881,5.7881,5.7881,5.7881,5.7881,5.7881,5.7881,5.7881,5.7881,5.7881,5.7881,5.7881,5.7881,5.8209,5.9721,6.0397,6.0956,6.22,6.2636,6.2805,6.2805,6.2805,6.2805,6.2805,6.2658,6.2346,6.1704,6.1961,6.1796,6.0364,0.0,0.0,0.0,5.9244,5.9064,6.0476,6.0734,6.08,6.08,6.08,6.08,6.08,6.08,6.0896,6.117,6.1244,6.1425,6.1699,6.1699,6.1699,6.1699,6.1699,6.1699,6.1699,6.1699,6.1699,6.1699,6.1699,6.1699,6.1699,6.1699,6.1699,6.1699,6.1674,6.1652,6.1687,6.192,6.2706,6.3603,6.2878,6.4878,6.784,3.9697,3.9697,3.9697,3.9697,3.9825,4.067,4.3006,4.3499,4.4514,4.6873,4.7244,4.736,4.7402,4.7402,4.7402,4.7299,4.8539,4.9259,4.9259,5.0493,5.1214,5.1214,5.1214,5.1214,5.1214,5.1214,5.1214,5.1214,5.1214,5.1214,5.1214,5.1214,5.1214,5.1214,5.1214,5.1896,5.3077,5.4168,5.5231,5.6454,5.7463,5.7881,5.7881,5.7881,5.7881,5.7881,5.7881,5.7881,5.7881,5.7881,5.7881,5.7881,5.7881,5.7881,5.7881,5.7881,5.7881,5.8065,5.8925,6.0361,6.153,6.1659,6.2271,6.2805,6.2805,6.2805,6.2805,6.2805,6.2218,6.1667,6.1594,6.1043,6.0291,5.9446,0.0,0.0,5.8583,5.7223,5.7068,5.9817,6.0553,6.08,6.08,6.08,6.08,6.08,6.08,6.08,6.0839,6.1126,6.1411,6.1699,6.1699,6.1699,6.1699,6.1699,6.1699,6.1699,6.1699,6.1699,6.1699,6.1699,6.1699,6.1699,6.1699,6.1699,6.1697,6.1578,6.1516,6.1674,6.3068,6.3145,6.2531,6.3248,6.4614,6.5974,3.9823,3.9973,4.0099,3.9747,4.0262,4.1051,4.1974,4.3427,4.4745,4.5713,4.6591,4.7094,4.7094,4.7094,4.6785,4.5872,4.7923,4.8851,4.7923,4.9984,5.1214,5.1214,5.1214,5.1214,5.1214,5.1214,5.1214,5.1214,5.1214,5.1214,5.1214,5.1214,5.1214,5.1214,5.1214,5.1804,5.2989,5.4084,5.5231,5.6282,5.7463,5.7881,5.7881,5.7881,5.7881,5.7881,5.7881,5.7881,5.7881,5.7881,5.7881,5.7881,5.7881,5.7881,5.7881,5.7881,5.8246,5.8633,5.837,5.9178,6.0176,6.07,6.1474,6.2076,6.2076,6.2446,6.2677,6.2163,6.1814,6.13,6.0309,6.0272,5.9979,5.8676,0.0,5.8153,5.899,5.8493,5.8647,6.0322,6.069,6.08,6.08,6.08,6.08,6.08,6.08,6.0877,6.1112,6.1407,6.1584,6.1699,6.1699,6.1699,6.1699,6.1699,6.1699,6.1699,6.1699,6.1699,6.1699,6.1699,6.1699,6.1699,6.1699,6.1699,6.1697,6.1571,6.1497,6.1539,6.1909,6.2157,6.2262,6.1954,6.357,6.5782,4.0325,4.0513,4.0664,4.0275,4.084,4.1392,4.1568,4.3054,4.4219,4.4292,4.5249,4.5767,4.5767,4.5767,4.5462,4.4427,4.6487,4.7619,4.7094,4.9664,5.1214,5.1214,5.1214,5.1214,5.1214,5.1214,5.1214,5.1214,5.1214,5.1214,5.1214,5.1214,5.1214,5.1214,5.1214,5.1635,5.2485,5.3999,5.4986,5.581,5.7297,5.7881,5.7881,5.7881,5.7881,5.7881,5.7881,5.7881,5.7881,5.7881,5.7881,5.7881,5.7881,5.7881,5.7881,5.7881,5.8317,5.8582,5.7793,5.8146,5.8891,5.947,6.0267,6.0864,6.0864,6.1454,6.1906,6.1337,6.1025,6.0511,5.941,5.9446,5.9281,5.818,5.8455,5.8929,5.9159,5.9303,5.9709,6.0482,6.0714,6.08,6.08,6.08,6.08,6.08,6.08,6.0949,6.1272,6.1496,6.1665,6.1699,6.1699,6.1699,6.1699,6.1699,6.1699,6.1699,6.1699,6.1699,6.1699,6.1699,6.1699,6.1699,6.1699,6.1687,6.1631,6.1488,6.1402,6.1343,6.132,6.1531,6.1781,6.1358,6.2839,6.4993,4.1229,4.1342,4.1354,4.1342,4.1342,4.153,4.207,4.2158,4.2359,4.2898,4.2974,4.2974,4.2974,4.2974,4.2974,4.2974,4.4222,4.5555,4.6991,4.9679,5.1214,5.1214,5.1214,5.1214,5.1214,5.1214,5.1214,5.1214,5.1214,5.1214,5.1214,5.1214,5.1214,5.1214,5.1214,5.1214,5.1386,5.3656,5.4589,5.4838,5.698,5.7881,5.7881,5.7881,5.7881,5.7881,5.7881,5.7881,5.7881,5.7881,5.7881,5.7881,5.7881,5.7881,5.7881,5.7865,5.7865,5.7712,5.6985,5.7306,5.7861,5.7926,5.8627,5.9311,5.9293,5.9885,6.0401,6.0401,5.9777,5.9208,5.9208,5.8547,5.7997,5.7997,5.7997,5.8186,5.8632,5.9121,5.9578,6.0055,6.0508,6.08,6.08,6.08,6.08,6.08,6.08,6.0963,6.1285,6.1428,6.1562,6.1698,6.1699,6.1699,6.1699,6.1699,6.1699,6.1699,6.1699,6.1699,6.1699,6.1699,6.1699,6.1699,6.1699,6.1625,6.1485,6.1356,6.1181,6.1069,6.18,6.155,6.0896,6.1762,6.2589,6.3301,4.1467,4.1643,4.1794,4.1404,4.1656,4.1969,4.2133,4.2484,4.2785,4.2949,4.2974,4.2974,4.2974,4.2974,4.2974,4.2974,4.4222,4.5964,4.8439,5.0191,5.1214,5.1214,5.1214,5.1214,5.1214,5.1214,5.1214,5.1214,5.1214,5.1214,5.1214,5.1214,5.1214,5.1214,5.1214,5.1214,5.1386,5.3656,5.4589,5.4838,5.698,5.7881,5.7881,5.7881,5.7881,5.7881,5.7881,5.7881,5.7881,5.7881,5.7881,5.7797,5.7289,5.712,5.7019,5.6511,5.6376,5.6325,5.6105,5.5818,5.5702,5.6251,5.7817,5.9104,5.857,5.9488,6.0254,5.9685,5.9391,5.9043,5.8455,5.8162,5.7997,5.7997,5.7997,5.8282,5.9084,5.9319,5.9709,6.0482,6.0714,6.08,6.08,6.08,6.08,6.08,6.1012,6.1195,6.1285,6.1509,6.1661,6.1699,6.1699,6.1699,6.1699,6.1699,6.1699,6.1699,6.1699,6.1699,6.1699,6.1699,6.1699,6.1699,6.1699,6.1625,6.1501,6.1366,6.119,6.0993,6.1127,6.1031,6.0819,6.1089,6.2089,6.3301,4.2082,4.2258,4.2371,4.2045,4.2258,4.2484,4.2484,4.276,4.2974,4.2974,4.2974,4.2974,4.2974,4.2974,4.2974,4.2974,4.4222,4.5767,4.7402,4.8851,4.9567,4.9567,5.008,5.0698,5.1214,5.1214,5.1214,5.1214,5.1214,5.1214,5.1214,5.1214,5.1214,5.1214,5.1214,5.1214,5.1386,5.3656,5.4337,5.4168,5.6298,5.6963,5.6641,5.7055,5.7206,5.7297,5.7718,5.7881,5.7848,5.756,5.7273,5.7002,5.685,5.6613,5.6292,5.5852,5.5716,5.5649,5.5344,5.5158,5.5058,5.5213,5.6558,5.7724,5.7264,5.8354,5.9318,5.8841,5.8731,5.8584,5.8088,5.7997,5.7997,5.7997,5.8186,5.8568,5.9284,5.9578,5.9965,6.0714,6.08,6.08,6.08,6.08,6.0819,6.0877,6.1151,6.1325,6.1378,6.1582,6.1699,6.1699,6.1699,6.1699,6.1699,6.1699,6.1699,6.1699,6.1699,6.1699,6.1699,6.1699,6.1658,6.1616,6.1616,6.1488,6.1304,6.1208,6.1093,6.0896,6.0819,6.08,6.08,6.08,6.1858,6.3301,4.2873,4.2974,4.2974,4.2974,4.2974,4.2974,4.2974,4.2974,4.2974,4.2974,4.2974,4.2974,4.2974,4.2974,4.2974,4.2974,4.4222,4.5048,4.5048,4.6279,4.7094,4.7094,4.8439,4.9776,5.1011,5.112,5.1214,5.1214,5.1214,5.1214,5.1214,5.1214,5.1214,5.1214,5.1214,5.1214,5.1293,5.3483,5.3828,5.3061,5.5215,5.5554,5.4822,5.5794,5.6282,5.6454,5.7554,5.7881,5.778,5.7053,5.6359,5.5902,5.6427,5.6139,5.5598,5.553,5.5513,5.5378,5.4668,5.4989,5.5365,5.4655,5.5042,5.5649,5.578,5.696,5.7997,5.7997,5.7997,5.7997,5.7997,5.7997,5.7997,5.7997,5.8375,5.8874,5.9319,5.9804,6.0264,6.0757,6.08,6.08,6.08,6.08,6.0858,6.0973,6.1196,6.135,6.1478,6.1634,6.1699,6.1699,6.1699,6.1699,6.1699,6.1699,6.1699,6.1699,6.1699,6.1699,6.1699,6.1695,6.1607,6.1497,6.1497,6.1304,6.0993,6.0993,6.0916,6.08,6.08,6.08,6.08,6.08,6.182,6.3224,4.2873,4.2974,4.2974,4.2974,4.2974,4.2974,4.2974,4.2974,4.2974,4.2974,4.2974,4.2974,4.2974,4.2974,4.2974,4.2974,4.4222,4.5048,4.5048,4.6279,4.7094,4.7094,4.8439,4.9357,4.9664,5.0698,5.1214,5.1214,5.1214,5.1214,5.1214,5.1214,5.1214,5.1214,5.1214,5.1214,5.1308,5.2649,5.3165,5.2989,5.4405,5.5312,5.5873,5.6109,5.6778,5.7537,5.7808,5.7881,5.778,5.7053,5.6697,5.6393,5.5378,5.4955,5.4718,5.416,5.3991,5.394,5.3788,5.3856,5.3974,5.3819,5.4264,5.5161,5.6367,5.7333,5.7997,5.7997,5.7997,5.7997,5.7997,5.7997,5.7997,5.7997,5.8375,5.8874,5.9319,5.9804,6.0264,6.0757,6.08,6.08,6.08,6.08,6.0858,6.0973,6.1191,6.1361,6.1482,6.1634,6.1699,6.1699,6.1699,6.1699,6.1699,6.1699,6.1699,6.1699,6.1699,6.1699,6.1699,6.1583,6.1543,6.1497,6.1401,6.1208,6.0993,6.0993,6.0916,6.08,6.08,6.08,6.08,6.08,6.1454,6.2507,4.2924,4.2974,4.2974,4.2974,4.2974,4.2974,4.2974,4.2974,4.2974,4.2974,4.2974,4.2974,4.2974,4.2974,4.2974,4.2974,4.3602,4.4016,4.4016,4.4738,4.5142,4.5142,4.7094,4.8225,4.8225,5.0191,5.1214,5.1214,5.1214,5.1214,5.1214,5.1214,5.1214,5.1214,5.1214,5.1214,5.1293,5.2395,5.256,5.223,5.3324,5.4153,5.4723,5.5231,5.6126,5.7131,5.7718,5.7442,5.6761,5.6151,5.561,5.5158,5.4718,5.4346,5.3991,5.3619,5.3501,5.3501,5.3501,5.3501,5.3551,5.3946,5.431,5.4818,5.5627,5.665,5.7468,5.7468,5.7774,5.7997,5.7997,5.7997,5.7997,5.7997,5.8591,5.9121,5.9373,5.9996,6.0527,6.0757,6.08,6.08,6.08,6.0858,6.0954,6.1131,6.1292,6.1446,6.1596,6.1666,6.1699,6.1699,6.1699,6.1699,6.1699,6.1699,6.1699,6.1699,6.1699,6.1674,6.1593,6.1544,6.142,6.1266,6.1189,6.105,6.0896,6.0896,6.0858,6.08,6.08,6.08,6.08,6.08,6.1589,6.2771,4.2961,4.2974,4.2974,4.2974,4.2974,4.2974,4.2974,4.2974,4.2974,4.2974,4.2974,4.2974,4.2974,4.2974,4.2974,4.2974,4.2974,4.2974,4.2974,4.2974,4.2974,4.2974,4.5661,4.7094,4.7094,4.9776,5.1214,5.1214,5.1214,5.1214,5.1214,5.1214,5.1214,5.1214,5.1214,5.1214,5.1308,5.223,5.2063,5.1293,5.223,5.2738,5.2973,5.3787,5.4873,5.6031,5.6829,5.6505,5.5492,5.5064,5.4339,5.3771,5.4245,5.3991,5.3501,5.3501,5.3501,5.3501,5.3501,5.3501,5.3685,5.4264,5.4437,5.4437,5.4589,5.5798,5.6912,5.6912,5.7516,5.7997,5.7997,5.7997,5.8042,5.8097,5.8835,5.9443,5.9511,6.0264,6.08,6.08,6.08,6.08,6.0819,6.0916,6.1093,6.1324,6.1439,6.1569,6.1698,6.1699,6.1699,6.1699,6.1699,6.1699,6.1699,6.1699,6.1699,6.1699,6.1699,6.1623,6.1497,6.1478,6.1304,6.0993,6.0973,6.0896,6.08,6.08,6.08,6.08,6.08,6.08,6.08,6.08,6.1858,6.3303,4.2886,4.2974,4.2974,4.2974,4.2974,4.2974,4.2974,4.2974,4.2974,4.2974,4.2974,4.2974,4.2974,4.2974,4.2974,4.2974,4.2974,4.2974,4.2974,4.2974,4.2974,4.2974,4.5661,4.7094,4.7094,4.9776,5.1214,5.1214,5.1214,5.1214,5.1214,5.1214,5.1214,5.1214,5.1214,5.1214,5.1214,5.1386,5.1293,5.1214,5.1386,5.2063,5.2838,5.2409,5.3307,5.4757,5.4293,5.4607,5.5088,5.4376,5.4311,5.4346,5.3822,5.3585,5.3501,5.3501,5.3501,5.3501,5.3501,5.3501,5.3501,5.3601,5.3668,5.3832,5.4419,5.5798,5.6912,5.6912,5.7516,5.7997,5.7997,5.7997,5.8142,5.8526,5.9047,5.9526,5.9946,6.0463,6.08,6.08,6.08,6.0839,6.0954,6.0973,6.1131,6.1458,6.1497,6.1569,6.1698,6.1699,6.1699,6.1699,6.1699,6.1699,6.1699,6.1699,6.1699,6.1699,6.1699,6.1623,6.1497,6.1381,6.1208,6.0973,6.0877,6.0819,6.08,6.08,6.08,6.08,6.08,6.08,6.08,6.08,6.1858,6.3182,4.2924,4.2974,4.2974,4.2974,4.2974,4.2974,4.2974,4.2974,4.2974,4.2974,4.2974,4.2974,4.2974,4.2974,4.2974,4.2974,4.2974,4.2974,4.2974,4.2974,4.2974,4.2974,4.4833,4.5964,4.5964,4.7923,4.9259,5.008,5.0807,5.1214,5.1214,5.1214,5.1214,5.1214,5.1214,5.1214,5.1214,5.1214,5.1214,5.1214,5.1214,5.1896,5.2838,5.2141,5.2822,5.3917,5.3278,5.3819,5.4701,5.3733,5.3623,5.3923,5.3602,5.3501,5.3501,5.3501,5.3501,5.3501,5.3501,5.3501,5.3501,5.3501,5.3501,5.3668,5.4419,5.5454,5.6367,5.6791,5.7516,5.7997,5.7997,5.7997,5.8123,5.8632,5.9084,5.9559,6.0025,6.0508,6.08,6.08,6.08,6.0839,6.0973,6.1099,6.1253,6.1482,6.1574,6.1646,6.1699,6.1699,6.1699,6.1699,6.1699,6.1699,6.1699,6.1699,6.1666,6.159,6.159,6.1522,6.138,6.1323,6.1151,6.0877,6.0819,6.08,6.08,6.08,6.08,6.08,6.08,6.08,6.08,6.08,6.139,6.2185]},{"header":{"parameterUnit":"m.s-1","parameterCategory":1,"la1":30.6,"la2":28.766,"lo1":-90.7593,"lo2":-88.6598,"dx":0.0162,"dy":0.0183,"nx":116,"ny":114,"refTime":"2023-01-24T18:00:00:Z","depth":0,"parameterNumber":3,"parameterNumberName":"V-component_of_WINDS"},"data":[0.0,0.0,0.0,0.0,0.0,0.0,0.0,0.0,0.0,0.0,0.0,0.0,0.0,0.0,0.0,0.0,0.0,0.0,0.0,0.0,0.0,0.0,0.0,0.0,0.0,0.0,0.0,0.0,0.0,0.0,0.0,0.0,0.0,0.0,0.0,0.0,0.0,0.0,0.0,0.0,0.0,0.0,0.0,0.0,0.0,0.0,0.0,0.0,0.0,0.0,0.0,0.0,0.0,0.0,0.0,0.0,0.0,0.0,0.0,0.0,0.0,0.0,0.0,0.0,0.0,0.0,0.0,0.0,0.0,0.0,0.0,0.0,0.0,0.0,0.0,0.0,0.0,0.0,0.0,0.0,0.0,0.0,0.0,0.0,0.0,0.0,0.0,0.0,0.0,0.0,0.0,0.0,0.0,0.0,0.0,0.0,0.0,0.0,0.0,0.0,0.0,0.0,0.0,0.0,0.0,0.0,0.0,0.0,0.0,0.0,0.0,0.0,0.0,0.0,0.0,0.0,0.0,0.0,0.0,0.0,0.0,0.0,0.0,0.0,0.0,0.0,0.0,0.0,0.0,0.0,0.0,0.0,0.0,0.0,0.0,0.0,0.0,0.0,0.0,0.0,0.0,0.0,0.0,0.0,0.0,0.0,0.0,0.0,0.0,0.0,0.0,0.0,0.0,0.0,0.0,0.0,0.0,0.0,0.0,0.0,0.0,0.0,0.0,0.0,0.0,0.0,0.0,0.0,0.0,0.0,0.0,0.0,0.0,0.0,0.0,0.0,0.0,0.0,0.0,0.0,0.0,0.0,0.0,0.0,0.0,0.0,0.0,0.0,0.0,0.0,0.0,0.0,0.0,0.0,0.0,0.0,0.0,0.0,0.0,0.0,0.0,0.0,0.0,0.0,0.0,0.0,0.0,0.0,0.0,0.0,0.0,0.0,0.0,0.0,0.0,0.0,0.0,0.0,0.0,0.0,0.0,0.0,0.0,0.0,0.0,0.0,0.0,0.0,0.0,0.0,0.0,0.0,0.0,0.0,0.0,0.0,0.0,0.0,0.0,0.0,0.0,0.0,0.0,0.0,0.0,0.0,0.0,0.0,0.0,0.0,0.0,0.0,0.0,0.0,0.0,0.0,0.0,0.0,0.0,0.0,0.0,0.0,0.0,0.0,0.0,0.0,0.0,0.0,0.0,0.0,0.0,0.0,0.0,0.0,0.0,0.0,0.0,0.0,0.0,0.0,0.0,0.0,0.0,0.0,0.0,0.0,0.0,0.0,0.0,0.0,0.0,0.0,0.0,0.0,0.0,0.0,0.0,0.0,0.0,0.0,0.0,0.0,0.0,0.0,0.0,0.0,0.0,0.0,0.0,0.0,0.0,0.0,0.0,0.0,0.0,0.0,0.0,0.0,0.0,0.0,0.0,0.0,0.0,0.0,0.0,0.0,0.0,0.0,0.0,0.0,0.0,0.0,0.0,0.0,0.0,0.0,0.0,0.0,0.0,0.0,0.0,0.0,0.0,0.0,0.0,0.0,0.0,0.0,0.0,0.0,0.0,0.0,0.0,0.0,0.0,0.0,0.0,0.0,0.0,0.0,0.0,0.0,0.0,0.0,0.0,0.0,0.0,0.0,0.0,0.0,0.0,0.0,0.0,0.0,0.0,0.0,0.0,0.0,0.0,0.0,0.0,0.0,0.0,0.0,0.0,0.0,0.0,0.0,0.0,0.0,0.0,0.0,0.0,0.0,0.0,0.0,0.0,0.0,0.0,0.0,0.0,0.0,0.0,0.0,0.0,0.0,0.0,0.0,0.0,0.0,0.0,0.0,0.0,0.0,0.0,0.0,0.0,0.0,0.0,0.0,0.0,0.0,0.0,0.0,0.0,0.0,0.0,0.0,0.0,0.0,0.0,0.0,0.0,0.0,0.0,0.0,0.0,0.0,0.0,0.0,0.0,0.0,0.0,0.0,0.0,0.0,0.0,0.0,0.0,0.0,0.0,0.0,0.0,0.0,0.0,0.0,0.0,0.0,0.0,0.0,0.0,0.0,0.0,0.0,0.0,0.0,0.0,0.0,0.0,0.0,0.0,0.0,0.0,0.0,0.0,0.0,0.0,0.0,0.0,0.0,0.0,0.0,0.0,0.0,0.0,0.0,0.0,0.0,0.0,0.0,0.0,0.0,0.0,0.0,0.0,0.0,0.0,0.0,0.0,0.0,0.0,0.0,0.0,0.0,0.0,0.0,0.0,0.0,0.0,0.0,0.0,0.0,0.0,0.0,0.0,0.0,0.0,0.0,0.0,0.0,0.0,0.0,0.0,0.0,0.0,0.0,0.0,0.0,0.0,0.0,0.0,0.0,0.0,0.0,0.0,0.0,0.0,0.0,0.0,0.0,0.0,0.0,0.0,0.0,0.0,0.0,0.0,0.0,0.0,0.0,0.0,0.0,0.0,0.0,0.0,0.0,0.0,0.0,0.0,0.0,0.0,0.0,0.0,0.0,0.0,0.0,0.0,0.0,0.0,0.0,0.0,0.0,0.0,0.0,0.0,0.0,0.0,0.0,0.0,0.0,0.0,0.0,0.0,0.0,0.0,0.0,0.0,0.0,0.0,0.0,0.0,0.0,0.0,0.0,0.0,0.0,0.0,0.0,0.0,0.0,0.0,0.0,0.0,0.0,0.0,0.0,0.0,0.0,0.0,0.0,0.0,0.0,0.0,0.0,0.0,0.0,0.0,0.0,0.0,0.0,0.0,0.0,0.0,0.0,0.0,0.0,0.0,0.0,0.0,0.0,0.0,0.0,0.0,0.0,0.0,0.0,0.0,0.0,0.0,0.0,0.0,0.0,0.0,0.0,0.0,0.0,0.0,0.0,0.0,0.0,0.0,0.0,0.0,0.0,0.0,0.0,0.0,0.0,0.0,0.0,0.0,0.0,0.0,0.0,0.0,0.0,0.0,0.0,0.0,0.0,0.0,0.0,0.0,0.0,0.0,0.0,0.0,0.0,0.0,0.0,0.0,0.0,0.0,0.0,0.0,0.0,0.0,0.0,0.0,0.0,0.0,0.0,0.0,0.0,0.0,0.0,0.0,0.0,0.0,0.0,0.0,0.0,0.0,0.0,0.0,0.0,0.0,0.0,0.0,0.0,0.0,0.0,0.0,0.0,0.0,0.0,0.0,0.0,0.0,0.0,0.0,0.0,0.0,0.0,0.0,0.0,0.0,0.0,0.0,0.0,0.0,0.0,0.0,0.0,0.0,0.0,0.0,0.0,0.0,0.0,0.0,0.0,0.0,0.0,0.0,0.0,0.0,0.0,0.0,0.0,0.0,0.0,0.0,0.0,0.0,0.0,0.0,0.0,0.0,0.0,0.0,0.0,0.0,0.0,0.0,0.0,0.0,0.0,0.0,0.0,0.0,0.0,0.0,0.0,0.0,0.0,0.0,0.0,0.0,0.0,0.0,0.0,0.0,0.0,0.0,0.0,0.0,0.0,0.0,0.0,0.0,0.0,0.0,0.0,0.0,0.0,0.0,0.0,0.0,0.0,0.0,0.0,0.0,0.0,0.0,0.0,0.0,0.0,0.0,0.0,0.0,0.0,0.0,0.0,0.0,0.0,0.0,0.0,0.0,0.0,0.0,0.0,0.0,0.0,0.0,0.0,0.0,0.0,0.0,0.0,0.0,0.0,0.0,0.0,0.0,0.0,0.0,0.0,0.0,0.0,0.0,0.0,0.0,0.0,0.0,0.0,0.0,0.0,0.0,0.0,0.0,0.0,0.0,0.0,0.0,0.0,0.0,0.0,0.0,0.0,0.0,0.0,0.0,0.0,0.0,0.0,0.0,0.0,0.0,0.0,0.0,0.0,0.0,0.0,0.0,0.0,0.0,0.0,0.0,0.0,0.0,0.0,0.0,0.0,0.0,0.0,0.0,0.0,0.0,0.0,0.0,0.0,0.0,0.0,0.0,0.0,0.0,0.0,0.0,0.0,0.0,0.0,0.0,0.0,0.0,0.0,0.0,0.0,0.0,0.0,0.0,0.0,0.0,0.0,0.0,0.0,0.0,0.0,0.0,0.0,0.0,0.0,0.0,0.0,0.0,0.0,0.0,0.0,0.0,0.0,0.0,0.0,0.0,0.0,0.0,0.0,0.0,0.0,0.0,0.0,0.0,0.0,0.0,0.0,0.0,0.0,0.0,0.0,0.0,0.0,0.0,0.0,0.0,0.0,0.0,0.0,0.0,0.0,0.0,0.0,0.0,0.0,0.0,0.0,0.0,0.0,0.0,0.0,0.0,0.0,0.0,0.0,0.0,0.0,0.0,0.0,0.0,0.0,0.0,0.0,0.0,0.0,0.0,0.0,0.0,0.0,0.0,0.0,0.0,0.0,0.0,0.0,0.0,0.0,0.0,0.0,0.0,0.0,0.0,0.0,0.0,0.0,0.0,0.0,0.0,0.0,0.0,0.0,0.0,0.0,0.0,0.0,0.0,0.0,0.0,0.0,0.0,0.0,0.0,0.0,0.0,0.0,0.0,0.0,0.0,0.0,0.0,0.0,0.0,0.0,0.0,0.0,0.0,0.0,0.0,0.0,0.0,0.0,0.0,0.0,0.0,0.0,0.0,0.0,0.0,0.0,0.0,0.0,0.0,0.0,0.0,0.0,0.0,0.0,0.0,0.0,0.0,0.0,0.0,0.0,0.0,0.0,0.0,0.0,0.0,0.0,0.0,0.0,0.0,0.0,0.0,0.0,0.0,0.0,0.0,0.0,0.0,0.0,0.0,0.0,0.0,0.0,0.0,0.0,0.0,0.0,0.0,0.0,0.0,0.0,0.0,0.0,0.0,0.0,0.0,0.0,0.0,0.0,0.0,0.0,0.0,0.0,0.0,0.0,0.0,0.0,0.0,0.0,0.0,0.0,0.0,0.0,0.0,0.0,0.0,0.0,0.0,0.0,0.0,0.0,0.0,0.0,0.0,0.0,0.0,0.0,0.0,0.0,0.0,0.0,0.0,0.0,0.0,0.0,0.0,0.0,0.0,0.0,0.0,0.0,0.0,0.0,0.0,0.0,0.0,0.0,0.0,0.0,0.0,0.0,0.0,0.0,0.0,0.0,0.0,0.0,0.0,0.0,0.0,0.0,0.0,0.0,0.0,0.0,0.0,0.0,0.0,0.0,0.0,0.0,0.0,0.0,0.0,0.0,0.0,0.0,0.0,0.0,0.0,0.0,0.0,0.0,0.0,0.0,0.0,0.0,0.0,0.0,0.0,0.0,0.0,0.0,0.0,0.0,0.0,0.0,0.0,0.0,0.0,0.0,0.0,0.0,0.0,0.0,0.0,0.0,0.0,0.0,0.0,0.0,0.0,0.0,0.0,0.0,0.0,0.0,0.0,0.0,0.0,0.0,0.0,0.0,0.0,0.0,0.0,0.0,0.0,0.0,0.0,0.0,0.0,0.0,0.0,0.0,0.0,0.0,0.0,0.0,0.0,0.0,0.0,0.0,0.0,0.0,0.0,0.0,0.0,0.0,0.0,0.0,0.0,0.0,0.0,0.0,0.0,0.0,0.0,0.0,0.0,0.0,0.0,0.0,0.0,0.0,0.0,0.0,0.0,0.0,0.0,0.0,0.0,0.0,0.0,0.0,0.0,0.0,0.0,0.0,0.0,0.0,0.0,0.0,0.0,0.0,0.0,0.0,0.0,0.0,0.0,0.0,0.0,0.0,0.0,0.0,0.0,0.0,0.0,0.0,0.0,0.0,0.0,0.0,0.0,0.0,0.0,0.0,0.0,0.0,0.0,0.0,0.0,0.0,0.0,0.0,0.0,0.0,0.0,0.0,0.0,0.0,0.0,0.0,0.0,0.0,0.0,0.0,0.0,0.0,0.0,0.0,0.0,0.0,0.0,0.0,0.0,0.0,0.0,0.0,0.0,0.0,0.0,0.0,0.0,0.0,0.0,0.0,0.0,0.0,0.0,0.0,0.0,0.0,0.0,0.0,0.0,0.0,0.0,0.0,0.0,0.0,0.0,0.0,0.0,0.0,0.0,0.0,0.0,0.0,0.0,0.0,0.0,0.0,0.0,0.0,0.0,0.0,0.0,0.0,0.0,0.0,1.3283,0.0,0.0,0.0,0.0,0.0,0.0,0.0,0.0,0.0,0.0,0.0,0.0,0.0,0.0,0.0,0.0,0.0,0.0,0.0,0.0,0.0,0.0,0.0,0.0,0.0,0.0,0.0,0.0,0.0,0.0,0.0,0.0,0.0,0.0,0.0,0.0,0.0,0.0,0.0,0.0,0.0,0.0,0.0,0.0,0.0,0.0,0.0,0.0,0.0,0.0,0.0,0.0,0.0,0.0,0.0,0.0,0.0,0.0,0.0,0.0,0.0,0.0,0.0,0.0,0.0,0.0,0.0,0.0,0.0,0.0,0.0,0.0,0.0,0.0,0.0,0.0,0.0,0.0,0.0,0.0,0.0,0.0,0.0,0.0,0.0,0.0,0.0,0.0,0.0,0.0,0.0,0.0,0.0,0.0,0.0,0.0,0.0,0.0,0.0,0.0,0.0,0.0,0.0,0.0,0.0,0.0,0.0,0.0,0.0,0.0,0.0,0.0,0.0,0.0,0.0,0.0,1.3804,0.0,0.0,0.0,0.0,0.0,0.0,0.0,0.0,0.0,0.0,0.0,0.0,0.0,0.0,0.0,0.0,0.0,0.0,0.0,0.0,0.0,0.0,0.0,0.0,0.0,0.0,0.0,0.0,0.0,0.0,0.0,0.0,0.0,0.0,0.0,0.0,0.0,0.0,0.0,0.0,0.0,0.0,0.0,0.0,0.0,0.0,0.0,0.0,0.0,0.0,0.0,0.0,0.0,0.0,0.0,0.0,0.0,0.0,0.0,0.0,0.0,0.0,0.0,0.0,0.0,0.0,0.0,0.0,0.0,0.0,0.0,0.0,0.0,0.0,0.0,0.0,0.0,0.0,0.0,0.0,0.0,0.0,0.0,0.0,0.0,0.0,0.0,0.0,0.0,0.0,0.0,0.0,0.0,0.0,0.0,0.0,0.0,0.0,0.0,0.0,0.0,0.0,0.0,0.0,0.0,0.0,0.0,0.0,0.0,1.2348,1.3343,1.3231,1.347,1.4123,1.4303,1.44,1.4525,0.0,0.0,0.0,0.0,0.0,0.0,0.0,0.0,0.0,0.0,0.0,0.0,0.0,0.0,0.0,0.0,0.0,0.0,0.0,0.0,0.0,0.0,0.0,0.0,0.0,0.0,0.0,0.0,0.0,0.0,0.0,0.0,0.0,0.0,0.0,0.0,0.0,0.0,0.0,1.6419,1.6419,1.6243,1.5978,0.0,0.0,0.0,0.0,0.0,0.0,0.0,0.0,0.0,0.0,0.0,0.0,0.0,0.0,0.0,0.0,0.0,0.0,0.0,0.0,0.0,0.0,0.0,0.0,0.0,0.0,0.0,0.0,0.0,0.0,0.0,0.0,0.0,0.0,0.0,0.0,0.0,0.0,0.0,0.0,0.0,0.0,0.0,0.0,0.8113,0.7021,0.0,0.0,0.0,0.0,0.0,0.0,0.0,0.0,0.0,0.0,0.0,0.0,0.0,0.0,0.969,0.9353,0.9255,0.9468,1.0074,1.0329,1.0619,1.2784,1.3832,1.3962,1.5117,0.0,1.4273,1.5893,0.0,0.0,0.0,0.0,0.0,0.0,0.0,0.0,0.0,0.0,0.0,0.0,0.0,0.0,0.0,0.0,0.0,0.0,0.0,0.0,0.0,0.0,0.0,0.0,0.0,0.0,0.0,0.0,0.0,0.0,0.0,0.0,0.0,0.0,0.0,0.0,1.6145,1.6889,1.7836,1.7836,1.7526,1.6919,1.6919,1.6782,1.6541,1.6187,0.0,0.0,0.0,0.0,0.0,0.0,0.0,0.0,0.0,0.0,0.0,0.0,0.0,0.0,0.0,0.0,0.0,0.0,0.0,0.0,0.0,0.0,0.0,0.0,0.0,0.0,0.0,0.0,0.0,0.0,0.0,0.0,0.0,0.0,0.0,0.0,0.0,0.0,0.0,0.8753,0.8172,0.7484,0.7263,0.735,0.0,0.0,0.0,0.0,0.0,0.0,0.0,0.0,0.0,0.8949,0.9043,0.8974,0.8737,0.8596,0.8898,0.9569,0.9922,1.0386,1.1072,1.2231,1.3199,1.3974,1.4459,1.4865,1.507,1.5562,1.576,1.5804,0.0,0.0,0.0,0.0,0.0,1.5637,0.0,0.0,0.0,0.0,0.0,0.0,0.0,0.0,0.0,0.0,0.0,0.0,0.0,0.0,0.0,0.0,0.0,0.0,0.0,0.0,0.0,0.0,0.0,0.0,0.0,0.0,0.0,0.0,1.7164,1.7674,1.8559,1.831,1.7819,1.7342,1.7342,1.6935,1.6288,1.6288,1.606,0.0,0.0,0.0,0.0,0.0,0.0,0.0,0.0,0.0,0.0,0.0,0.0,0.0,0.0,0.0,0.0,0.0,0.0,0.0,0.0,0.0,0.0,0.0,0.0,0.0,0.0,0.0,0.0,0.0,0.0,0.0,0.0,0.0,0.0,0.0,0.0,0.0,0.0,0.8648,0.8061,0.7784,0.7315,0.7466,0.0,0.0,0.0,0.0,0.0,0.0,0.9201,0.9306,0.9065,0.8529,0.8544,0.8354,0.8035,0.8038,0.8528,0.9509,0.9509,1.019,1.1463,1.175,1.2619,1.3878,1.4262,1.4987,1.5912,1.5558,1.5672,1.5999,1.5582,1.621,1.7189,1.5729,1.5434,1.5753,0.0,0.0,0.0,0.0,0.0,0.0,0.0,0.0,0.0,0.0,0.0,0.0,0.0,0.0,0.0,0.0,0.0,0.0,0.0,0.0,0.0,0.0,0.0,0.0,0.0,0.0,0.0,1.7647,1.6445,1.6316,1.7334,1.6355,1.6355,1.7342,1.7342,1.6826,1.6019,1.6019,1.6125,1.6303,0.0,0.0,0.0,0.0,0.0,0.0,0.0,0.0,0.0,0.0,0.0,0.0,0.0,0.0,0.0,0.0,0.0,0.0,0.0,0.0,0.0,0.0,0.0,0.0,0.0,0.0,0.0,0.0,0.0,0.0,0.0,0.0,0.0,0.0,0.0,0.0,0.0,0.0,0.0,0.7166,0.6771,0.0,0.0,0.0,0.0,0.9223,0.9817,0.9708,0.8747,0.9177,0.9076,0.8096,0.8004,0.8018,0.8038,0.8038,0.8038,0.8137,0.8137,0.8825,1.0096,1.1365,1.2619,1.3974,1.5146,1.589,1.6266,1.652,1.6446,1.6454,1.8383,1.8359,1.7279,1.805,1.7541,1.6673,0.0,0.0,0.0,0.0,0.0,0.0,0.0,0.0,0.0,0.0,0.0,0.0,0.0,0.0,0.0,0.0,0.0,0.0,0.0,0.0,0.0,0.0,0.0,0.0,0.0,0.0,1.5388,1.6841,1.6732,1.7334,1.8399,1.8967,1.8545,1.735,1.759,1.668,1.488,1.6229,1.6987,1.7179,1.6076,1.5523,0.0,0.0,0.0,0.0,0.0,0.0,0.0,0.0,0.0,0.0,0.0,0.0,0.0,0.0,0.0,0.0,0.0,0.0,0.0,0.0,0.0,0.0,0.0,0.0,0.0,0.0,0.0,0.0,0.0,0.0,0.0,0.0,0.0,0.0,0.0,0.0,0.0,0.8216,0.7938,0.0,0.0,0.8493,0.8459,0.8848,0.8862,0.8589,0.8268,0.8477,0.8375,0.8038,0.8038,0.8038,0.8038,0.8038,0.8038,0.8038,0.892,0.9509,1.01,1.2382,1.3728,1.4234,1.5998,1.674,1.6874,1.7368,1.7388,1.7244,1.797,1.8058,1.7689,1.7888,1.7674,1.7268,0.0,0.0,0.0,0.0,0.0,0.0,0.0,0.0,0.0,0.0,0.0,0.0,0.0,0.0,0.0,0.0,0.0,0.0,0.0,0.0,0.0,0.0,0.0,0.0,0.0,1.5831,1.6207,1.7295,1.7652,1.8299,1.9245,1.985,1.948,1.8275,1.8079,1.7247,1.5951,1.6492,1.7062,1.7457,1.6403,1.5872,1.5566,0.0,0.0,0.0,0.0,0.0,0.0,0.0,0.0,0.0,0.0,0.0,0.0,0.0,0.0,0.0,0.0,0.0,0.0,0.0,0.0,0.0,0.0,0.0,0.0,0.0,0.0,0.0,0.0,0.0,0.0,0.0,0.0,0.0,0.0,0.0,0.8255,0.8658,0.8304,0.8232,0.8719,0.8539,0.8394,0.8411,0.8157,0.8038,0.8038,0.8038,0.8038,0.8038,0.8038,0.8038,0.8038,0.8038,0.8038,0.8041,0.947,1.0388,1.0888,1.3463,1.4825,1.5357,1.676,1.7355,1.7488,1.7989,1.813,1.8036,1.8036,1.8163,1.833,1.8223,1.8183,1.817,0.0,0.0,0.0,0.0,0.0,0.0,0.0,0.0,0.0,0.0,0.0,0.0,0.0,0.0,0.0,0.0,0.0,0.0,0.0,0.0,0.0,0.0,0.0,0.0,1.7674,1.7952,1.8343,1.9036,1.8966,1.9173,1.9534,1.8488,1.8768,2.0102,1.865,1.8562,1.9343,1.6833,1.6363,1.7195,1.6317,1.6283,1.6627,0.0,0.0,0.0,0.0,0.0,0.0,0.0,0.0,0.0,0.0,0.0,0.0,0.0,0.0,0.0,0.0,0.0,0.0,0.0,0.0,0.0,0.0,0.0,0.0,0.0,0.0,0.0,0.0,0.0,0.0,0.0,0.0,0.0,1.1295,0.9592,0.838,0.838,0.7833,0.7506,0.779,0.7695,0.7733,0.8018,0.8038,0.8038,0.8038,0.8038,0.8038,0.8038,0.8038,0.8041,0.8045,0.8045,0.8048,0.8151,0.9698,1.1189,1.2515,1.4413,1.6012,1.7194,1.7495,1.7796,1.8096,1.8397,1.8684,1.8938,1.8938,1.8938,1.8971,1.9259,1.9366,1.9325,0.0,0.0,0.0,0.0,0.0,0.0,0.0,0.0,0.0,0.0,0.0,0.0,0.0,0.0,0.0,0.0,0.0,0.0,0.0,0.0,0.0,0.0,0.0,0.0,1.881,1.7234,1.7208,1.9036,1.8426,1.8203,1.8313,1.8501,1.8651,1.8931,1.8849,1.8194,1.7175,1.7347,1.7334,1.7155,1.5353,1.5276,1.6063,0.0,0.0,0.0,0.0,0.0,0.0,0.0,0.0,0.0,0.0,0.0,0.0,0.0,0.0,0.0,0.0,0.0,0.0,0.0,0.0,0.0,0.0,0.0,0.0,0.0,0.0,0.0,0.0,0.0,0.0,0.0,0.0,1.222,1.0684,0.9749,0.883,0.793,0.7794,0.7889,0.797,0.794,0.795,0.8035,0.8038,0.8038,0.8038,0.8038,0.8038,0.8038,0.8038,0.8092,0.8208,0.8208,0.8762,0.9985,1.1355,1.2802,1.4539,1.6131,1.7265,1.7829,1.8337,1.8604,1.8704,1.9005,1.9172,1.9245,1.9245,1.9245,1.9259,1.9339,1.9366,1.9359,0.0,0.0,0.0,0.0,0.0,0.0,0.0,0.0,0.0,0.0,0.0,0.0,0.0,0.0,0.0,0.0,0.0,0.0,0.0,0.0,0.0,0.0,0.0,1.641,1.8406,1.759,1.7738,1.9036,1.8693,1.8967,1.9805,2.0323,2.0394,2.0052,2.03,1.936,1.7667,1.7707,1.7786,1.7538,1.5376,1.5151,1.6076,1.5319,1.5122,1.5084,1.4314,1.4336,1.447,1.3014,0.0,0.0,0.0,0.0,0.0,0.0,0.0,0.0,0.0,0.0,0.0,0.0,0.0,0.0,0.0,0.0,0.0,0.0,0.0,0.0,0.0,0.0,0.0,0.0,1.4187,1.3371,1.1215,1.0204,0.9196,0.7876,0.7936,0.8065,0.813,0.8136,0.8136,0.8136,0.8191,0.817,0.8045,0.8102,0.8136,0.8136,0.8136,0.8208,0.8357,0.836,0.9116,1.0746,1.2258,1.3787,1.544,1.7346,1.8243,0.0,1.8905,1.9112,1.9125,1.9299,1.9366,0.0,0.0,0.0,0.0,0.0,1.9366,1.9366,0.0,0.0,0.0,0.0,0.0,0.0,0.0,0.0,0.0,0.0,0.0,0.0,0.0,0.0,0.0,0.0,0.0,0.0,0.0,0.0,0.0,1.5935,1.7076,1.7602,1.7326,1.839,1.9002,1.9172,1.9562,2.068,2.2485,2.2726,2.2572,2.2209,2.2057,2.1112,1.953,1.8229,1.7966,1.8308,1.6315,1.5933,1.6544,1.6089,1.5103,1.4156,1.4665,1.4561,1.4285,1.4059,0.0,0.0,0.0,0.0,0.0,0.0,0.0,0.0,0.0,0.0,0.0,0.0,0.0,0.0,0.0,0.0,0.0,0.0,0.0,0.0,0.0,0.0,0.0,0.0,1.5352,1.4758,1.2237,1.0797,0.9537,0.8165,0.8079,0.8143,0.8282,0.8296,0.8296,0.8296,0.8411,0.8367,0.8102,0.0,0.0,0.0,0.0,0.8364,0.8506,0.8523,0.9373,1.1054,1.2705,1.4434,1.6024,1.7993,1.8945,1.8991,1.9252,1.9366,1.9366,1.9366,1.9366,1.9366,1.9366,1.9366,1.9366,1.9366,1.9366,1.9366,0.0,0.0,0.0,0.0,0.0,0.0,0.0,0.0,0.0,0.0,0.0,0.0,0.0,0.0,0.0,0.0,0.0,0.0,0.0,0.0,1.3909,1.5935,1.5626,1.6046,1.7236,1.839,1.9344,1.9978,2.0292,2.108,2.208,2.152,2.1104,2.0954,2.0886,2.0548,2.0011,1.9657,1.9356,1.8949,1.8499,1.8159,1.7826,1.5886,1.6149,1.7203,1.554,1.5405,1.5882,1.4559,1.4034,1.3834,1.336,0.0,0.0,0.0,0.0,0.0,0.0,0.0,0.0,0.0,0.0,0.0,0.0,0.0,0.0,0.0,0.0,0.0,0.0,0.0,0.0,1.4943,1.4589,1.3686,1.2139,1.0911,0.9714,0.8424,0.8326,0.8408,0.8438,0.8442,0.8442,0.8442,0.8465,0.8459,0.8397,0.8425,0.0,0.8442,0.8442,0.8513,0.8665,0.8791,1.0315,1.3183,0.0,0.0,1.8328,1.8731,1.9052,1.9285,1.9339,1.9366,1.9366,1.9366,1.9366,1.9366,1.9366,1.9366,1.9366,1.9366,1.9366,1.9366,0.0,0.0,0.0,0.0,0.0,0.0,0.0,0.0,0.0,0.0,0.0,0.0,0.0,0.0,0.0,0.0,0.0,0.0,0.0,1.3932,1.4119,1.5013,1.5689,1.6244,1.668,1.7438,1.8642,2.0418,2.0385,2.1336,2.3176,2.2997,2.2697,2.2106,2.2106,2.1599,2.0561,2.0657,2.0243,1.9488,1.8956,1.883,1.883,1.7251,1.6698,1.661,1.6087,1.592,1.5826,1.5007,1.4836,1.491,1.4616,1.4422,1.4188,0.0,0.0,0.0,0.0,0.0,0.0,0.0,0.0,0.0,0.0,0.0,0.0,0.0,0.0,1.4747,0.0,0.0,1.511,1.5551,1.4688,1.3624,1.2453,1.1244,0.9868,0.8491,0.8394,0.8513,0.8587,0.8598,0.8598,0.8598,0.8665,0.8645,0.8489,0.8554,0.8598,0.8598,0.8598,0.8703,0.893,0.9008,1.0675,1.3765,1.3992,1.5772,1.8925,1.9078,1.9225,1.9366,1.9366,1.9366,1.9366,1.9366,1.9366,1.9366,1.9366,1.9366,1.9366,1.9366,1.9366,1.9366,0.0,0.0,0.0,0.0,0.0,0.0,0.0,0.0,0.0,0.0,0.0,0.0,0.0,0.0,0.0,0.0,0.0,0.0,0.0,1.4477,1.446,1.4146,1.602,1.6664,1.5848,1.6511,1.8129,2.058,2.0549,2.1977,2.4678,2.5039,2.4678,2.3692,2.3384,2.2494,2.1106,2.1205,2.0784,1.9944,1.9106,1.8957,1.9074,1.8499,1.7151,1.5666,1.6349,1.6161,1.5478,1.5478,1.5631,1.5832,1.5832,1.5504,1.4997,1.4289,1.3754,0.0,0.0,0.0,0.0,0.0,0.0,0.0,0.0,0.0,1.6542,1.5562,1.5495,1.549,1.5217,1.5177,1.5352,1.5855,1.4708,1.3407,1.2367,1.1125,0.9781,0.8484,0.8482,0.8618,0.8743,0.8754,0.8754,0.8754,0.8869,0.8832,0.8584,0.8686,0.8767,0.8794,0.8798,0.8927,0.9195,0.9564,1.1224,1.3997,1.4567,1.6316,1.9018,1.9259,1.9366,1.9366,1.9366,1.9366,1.9366,1.9366,1.9366,1.9366,1.9366,1.9366,1.9366,1.9366,1.9366,1.9366,0.0,0.0,0.0,0.0,0.0,0.0,0.0,0.0,0.0,0.0,0.0,0.0,0.0,0.0,0.0,0.0,0.0,0.0,0.0,1.3297,1.3817,1.4075,1.5488,1.5733,1.4683,1.6858,1.8814,2.0365,2.1558,2.3321,2.5586,2.5644,2.4973,2.3683,2.2466,2.1828,2.1585,2.1686,2.1172,2.0512,2.0512,1.9447,1.7863,1.7787,1.7579,1.7301,1.6282,1.5839,1.5785,1.5785,1.5805,1.5832,1.5832,1.5785,1.5511,1.4409,0.0,1.3741,0.0,0.0,0.0,1.3495,1.4538,1.5374,0.0,0.0,1.6228,1.5205,1.5454,1.5745,1.5718,1.5952,1.5758,1.4556,1.3445,1.226,1.085,0.9663,0.8804,0.8665,0.8794,0.8896,0.8913,0.8913,0.8913,0.8913,0.8927,0.8923,0.8889,0.8903,0.8971,0.91,0.9103,0.9184,0.9354,1.0868,1.2575,1.4346,1.5976,1.764,1.9319,1.9352,1.9366,1.9366,1.9366,1.9366,1.9366,1.9366,1.9366,1.9366,1.9366,1.9366,1.9366,1.9366,1.9366,1.9366,0.0,0.0,0.0,0.0,0.0,0.0,0.0,0.0,0.0,0.0,0.0,0.0,0.0,0.0,0.0,0.0,0.0,0.0,1.3004,1.3219,1.3674,1.4309,1.4867,1.5184,1.5271,1.6472,1.7931,1.9697,2.044,2.1661,2.3384,2.3384,2.3076,2.2466,2.1049,2.0939,2.1651,2.0845,2.066,2.0769,1.9884,1.8943,1.7851,1.6921,1.6574,1.6619,1.7061,1.6392,0.0,0.0,1.5769,1.5384,1.5718,1.5598,1.5164,1.4329,1.3848,0.0,1.2966,0.0,0.0,0.0,1.4747,1.5189,1.5113,1.5552,1.5913,1.5557,1.5798,1.6086,1.6086,1.6326,1.6374,0.0,1.4076,1.2521,1.2124,1.0193,0.8845,0.8845,0.8899,0.894,0.894,0.894,0.894,0.894,0.894,0.894,0.894,0.9018,0.9089,0.915,0.9239,0.9361,0.9513,1.0273,1.1875,1.4462,1.4311,1.5542,1.7929,1.6979,1.7097,1.8046,1.9004,1.9366,1.9366,1.9366,1.9366,1.9366,1.9366,1.9366,1.9366,1.9366,1.9366,1.9392,0.0,0.0,0.0,0.0,0.0,0.0,0.0,0.0,0.0,0.0,0.0,0.0,0.0,0.0,0.0,0.0,0.0,0.0,0.0,1.3249,1.3687,1.4482,1.4596,0.0,1.5812,1.6119,1.7239,1.925,1.947,2.0333,2.1752,2.1752,2.1752,2.1651,2.0238,2.0135,2.1041,2.0033,1.9882,2.0253,1.9132,1.8402,1.7823,1.6374,1.5732,1.5717,1.6862,1.6352,0.0,0.0,1.5318,1.4796,1.5217,1.5064,1.4603,1.4015,1.354,1.3213,1.3213,0.0,0.0,1.485,1.5144,1.5357,1.5939,1.5945,1.5879,1.6039,1.6112,1.6199,1.6359,1.6567,0.0,1.6047,1.4251,1.2763,1.2167,1.0241,0.894,0.894,0.894,0.894,0.894,0.894,0.894,0.894,0.8977,0.8998,0.8998,0.9137,0.9235,0.9276,0.9388,0.9517,0.9666,1.014,1.1499,1.3889,1.3172,1.4118,1.6256,1.5548,1.5902,1.7085,1.8642,1.9366,1.9366,1.9366,1.9366,1.9366,1.9366,1.9366,1.9379,1.9459,1.9432,1.9419,0.0,0.0,0.0,0.0,0.0,0.0,0.0,0.0,0.0,0.0,0.0,0.0,0.0,0.0,0.0,0.0,0.0,0.0,0.0,1.3133,1.3895,1.4496,1.4796,1.5224,1.5812,1.6119,1.7239,1.925,1.947,2.0333,2.1752,2.1752,2.1752,2.1651,2.0238,1.9627,1.9627,1.9627,1.9152,1.8565,1.8656,1.8267,1.7606,1.6298,1.5478,1.4983,1.506,0.0,0.0,0.0,1.4115,1.4115,1.4135,1.4128,0.0,1.3414,1.3227,0.0,0.0,0.0,1.499,1.5304,1.5591,1.5959,1.6547,1.6239,1.5992,1.656,1.6233,1.6012,1.6587,1.67,1.5872,1.3315,1.3113,1.2285,0.9482,0.8937,0.894,0.894,0.894,0.894,0.0,0.894,0.894,0.894,0.9066,0.9147,0.9147,0.9293,0.9442,0.9591,0.9602,0.9673,0.9815,1.137,1.2209,1.2333,1.3765,1.4604,1.4718,1.6256,1.6968,1.7085,1.8642,1.9366,1.9366,1.9366,1.9366,1.9366,1.9366,1.9366,1.9399,1.9686,1.9606,1.9452,0.0,0.0,0.0,0.0,0.0,0.0,0.0,0.0,0.0,0.0,0.0,0.0,0.0,0.0,0.0,0.0,0.0,0.0,0.0,1.2668,1.3106,1.3901,1.4596,1.5331,1.6106,1.6406,1.7042,1.8151,1.8248,1.8499,1.9013,1.9013,1.9013,1.9013,1.8506,1.8812,1.9509,1.8494,1.8626,1.9457,1.7803,1.7211,1.7182,1.5812,1.5137,1.4863,0.0,0.0,0.0,0.0,0.0,0.0,1.3961,0.0,0.0,1.3267,0.0,0.0,0.0,0.0,1.5371,1.5858,1.6199,1.6413,1.642,1.6413,1.6413,1.642,1.6106,1.5892,1.6086,1.6286,1.5841,1.4004,1.3451,1.262,1.0676,0.9482,0.894,0.894,0.9022,0.0,0.0,0.0,0.0,0.9083,0.9218,0.9303,0.9303,0.9449,0.9557,0.9608,0.97,0.9774,0.9822,1.0301,1.1137,1.2217,1.2693,1.2453,1.1499,1.4237,1.5429,1.5548,1.8292,1.9366,1.9366,1.9366,1.9366,1.9366,1.9366,1.9486,1.9666,1.9766,1.9987,2.0287,0.0,0.0,0.0,0.0,0.0,0.0,0.0,0.0,0.0,0.0,0.0,0.0,0.0,0.0,0.0,0.0,0.0,0.0,0.0,0.0,1.2392,1.3287,1.3975,1.4703,1.5478,1.6086,1.6627,1.7114,1.7428,1.7582,1.7582,1.7582,1.7582,1.7582,1.7582,1.8094,1.879,1.7674,1.8114,1.9287,1.6967,1.6402,1.6898,1.5264,1.4522,0.0,0.0,0.0,0.0,0.0,0.0,0.0,0.0,0.0,0.0,0.0,0.0,0.0,0.0,1.5484,1.5979,1.6466,1.6647,1.6714,1.6734,1.664,1.656,1.658,1.6019,1.5585,1.5792,1.5442,1.4905,1.4207,1.3556,1.2568,1.1293,1.0241,0.9503,0.9008,0.9096,0.0,0.0,0.0,0.0,0.9239,0.9374,0.9462,0.9462,0.9605,0.9686,0.9686,0.9774,0.9822,0.9822,0.9822,1.0301,1.1378,1.1378,1.0778,0.994,1.3172,1.4604,1.4723,1.8052,1.9366,1.9366,1.9366,1.9366,1.9379,1.9486,1.9633,1.984,2.0154,2.0575,2.1015,0.0,0.0,0.0,0.0,0.0,0.0,0.0,0.0,0.0,0.0,0.0,0.0,0.0,0.0,0.0,0.0,0.0,0.0,0.0,0.0,0.0,1.2721,1.3019,1.3474,1.4048,1.5177,1.5905,1.6206,1.7041,1.7448,1.7448,1.7448,1.7448,1.7448,1.7448,1.7448,1.7526,1.7237,1.7559,1.8199,1.614,1.5882,1.6513,1.4767,0.0,0.0,0.0,0.0,0.0,0.0,0.0,0.0,0.0,0.0,0.0,0.0,0.0,1.5305,1.5338,1.5873,1.6592,1.6869,1.6839,1.6786,1.733,1.6927,1.6493,1.7034,1.5985,1.5144,0.0,0.0,1.3176,1.3906,1.3198,1.2133,1.1138,1.1008,1.0528,0.0,0.0,0.0,0.0,0.0,0.0,0.9415,0.0,0.9618,0.9618,0.9747,0.9822,0.9822,0.9822,0.9822,0.9822,0.9822,0.9822,0.9822,0.9822,0.9822,0.994,1.3172,1.4604,1.4723,1.8052,1.9366,1.9366,1.9366,1.9372,1.9419,1.9693,1.982,1.9947,2.0795,2.1309,2.1577,0.0,0.0,0.0,0.0,0.0,0.0,0.0,0.0,0.0,0.0,0.0,0.0,0.0,0.0,0.0,0.0,0.0,0.0,0.0,0.0,0.0,0.0,0.0,0.0,0.0,0.0,0.0,0.0,0.0,1.5631,1.5631,1.5631,1.5631,0.0,1.5631,1.6078,1.6593,1.5579,1.6021,1.7091,0.0,1.4805,1.528,0.0,0.0,0.0,0.0,0.0,0.0,0.0,0.0,0.0,0.0,0.0,1.4142,0.0,0.0,1.3872,1.4262,1.4093,1.3805,1.3865,1.4815,1.5737,1.5676,1.6509,1.7228,1.7161,1.5985,1.5211,0.0,0.0,0.0,1.2454,1.186,0.0,0.968,0.9579,0.0,0.0,0.0,0.9507,0.9547,0.9683,0.0,0.0,0.9744,0.9768,0.9768,0.9802,0.9822,0.9822,0.9822,0.9822,0.9822,0.9822,0.9822,0.9822,0.9822,0.9822,0.994,1.3172,1.4604,1.4723,1.8052,1.9366,1.9366,1.9366,1.9492,1.9693,1.9773,2.0067,2.0508,2.0949,2.1436,2.1904,0.0,0.0,0.0,0.0,0.0,0.0,0.0,0.0,0.0,0.0,0.0,0.0,0.0,0.0,0.0,0.0,0.0,0.0,0.0,0.0,0.0,0.0,0.0,0.0,0.0,0.0,0.0,0.0,0.0,0.0,0.0,1.4963,1.4963,1.4963,1.4963,1.5308,1.5718,0.0,0.0,0.0,0.0,0.0,0.0,0.0,0.0,0.0,0.0,0.0,0.0,0.0,0.0,1.4382,1.3841,1.3831,1.4059,1.4248,0.0,1.409,1.5208,1.5209,1.4884,1.4884,1.5635,1.6256,1.5642,1.6169,1.6653,1.6106,1.5037,0.0,0.0,0.0,0.0,0.0,0.0,0.0,0.9975,1.0096,0.9986,0.0,0.9503,0.0,0.9696,0.9774,0.9822,0.0,1.0422,1.0539,0.9819,1.0418,1.0539,0.9819,0.9822,0.9822,0.9822,0.9822,0.9822,0.9822,0.9822,0.9822,0.994,1.2453,1.3526,1.3765,0.0,1.8402,1.8415,1.9259,1.9653,1.9826,2.0087,2.0388,2.0742,2.1296,2.1704,2.2044,0.0,0.0,0.0,0.0,0.0,0.0,0.0,0.0,0.0,0.0,0.0,0.0,0.0,0.0,0.0,0.0,0.0,0.0,0.0,0.0,0.0,0.0,0.0,0.0,0.0,0.0,0.0,0.0,0.0,0.0,0.0,0.0,0.0,0.0,0.0,0.0,0.0,0.0,0.0,0.0,0.0,0.0,0.0,0.0,0.0,0.0,0.0,0.0,0.0,0.0,1.3354,1.4611,1.3306,1.3233,1.355,1.336,1.3693,1.4599,1.6221,1.6716,1.6823,1.6935,1.7121,1.7094,1.6163,1.5943,1.5591,1.475,0.0,0.0,1.4569,0.0,1.1092,1.3571,0.0,1.0585,1.0941,1.106,1.0642,0.9693,0.9625,0.9686,0.9808,0.994,1.0061,0.9822,1.1736,1.1972,0.994,1.114,1.1257,0.9822,0.9822,0.9822,0.9822,0.9822,0.9822,0.9822,0.9822,0.9822,0.9822,1.1499,1.2213,1.2333,0.0,0.0,1.7156,1.9082,1.9846,1.9967,2.0474,2.0702,2.0835,2.1677,2.1984,2.2071,0.0,0.0,0.0,0.0,0.0,0.0,0.0,0.0,0.0,0.0,0.0,0.0,0.0,0.0,0.0,0.0,0.0,0.0,0.0,0.0,0.0,0.0,0.0,0.0,0.0,0.0,0.0,0.0,0.0,0.0,0.0,0.0,0.0,0.0,0.0,0.0,0.0,0.0,0.0,0.0,0.0,0.0,0.0,0.0,0.0,0.0,0.0,0.0,0.0,0.0,1.2962,1.3844,1.2502,1.2174,1.2262,1.2407,1.1861,1.1511,1.308,1.2879,1.2512,1.3696,1.4724,1.5269,1.4594,1.5152,0.0,0.0,0.0,1.4062,1.5671,1.3793,0.0,1.3268,0.0,0.0,0.0,0.0,0.9754,0.0,0.0,0.0,0.0,0.0,0.0,0.0,0.0,0.0,1.0061,1.0058,1.0061,0.9822,0.9822,0.9822,0.9822,0.9822,0.9822,0.9822,0.9822,0.9822,0.9822,1.1499,1.2213,1.2333,0.0,0.0,1.7404,1.9166,2.0087,2.0535,2.0635,2.0822,2.1109,2.175,2.1984,2.2071,0.0,0.0,0.0,0.0,0.0,0.0,0.0,0.0,0.0,0.0,0.0,0.0,0.0,0.0,0.0,0.0,0.0,0.0,0.0,0.0,0.0,0.0,0.0,0.0,0.0,0.0,0.0,0.0,0.0,0.0,0.0,0.0,0.0,0.0,0.0,0.0,0.0,0.0,0.0,0.0,0.0,0.0,0.0,0.0,0.0,0.0,0.0,0.0,0.0,0.0,1.1137,1.1283,1.0768,1.0798,1.0974,1.1058,1.0847,1.0893,1.2446,1.2559,1.2403,1.3156,1.3625,1.3859,1.3488,0.0,0.0,0.0,0.0,1.3347,1.4663,0.0,0.0,0.0,0.0,0.0,0.0,0.0,0.0,0.0,0.0,0.0,0.0,0.0,0.0,0.0,0.0,0.0,1.0061,0.9822,0.9822,0.9822,0.9822,0.9822,0.9822,0.9822,0.9822,0.9822,0.9822,0.9822,0.9819,1.066,1.1378,1.2333,1.4713,0.0,1.7601,1.9341,2.0281,2.0688,2.0842,2.0989,2.1162,2.1603,2.1857,2.2044,0.0,0.0,0.0,0.0,0.0,0.0,0.0,0.0,0.0,0.0,0.0,0.0,0.0,0.0,0.0,0.0,0.0,0.0,0.0,0.0,0.0,0.0,0.0,0.0,0.0,0.0,0.0,0.0,0.0,0.0,0.0,0.0,0.0,0.0,0.0,0.0,0.0,0.0,0.0,0.0,0.0,0.0,0.0,0.0,0.0,0.0,0.0,0.0,0.0,0.0,0.9683,0.9243,0.9191,0.9266,0.9372,0.954,0.9859,1.048,1.2107,1.2666,1.293,1.3204,1.3022,1.2868,1.2488,1.2471,0.0,0.0,0.0,1.2579,1.3474,0.0,0.0,0.0,0.0,0.0,0.0,0.0,0.0,0.0,0.0,0.0,0.0,0.0,0.0,0.0,0.0,0.0,1.0422,0.994,0.9822,0.9822,0.9822,0.9822,0.9822,0.9822,0.9822,0.9822,0.9822,0.9822,0.9822,0.9822,1.0539,1.174,1.3458,0.0,0.0,1.896,2.0125,2.0795,2.1022,2.1109,2.1156,2.1516,2.179,2.2038,0.0,0.0,0.0,0.0,0.0,0.0,0.0,0.0,0.0,0.0,0.0,0.0,0.0,0.0,0.0,0.0,0.0,0.0,0.0,0.0,0.0,0.0,0.0,0.0,0.0,0.0,0.0,0.0,0.0,0.0,0.0,0.0,0.0,0.0,0.0,0.0,0.0,0.0,0.0,0.0,0.0,0.0,0.0,0.0,0.0,0.0,0.0,0.0,0.0,0.0,0.0,0.9529,0.8582,0.792,0.7479,0.7882,0.0,0.0,1.0573,1.1173,1.1602,1.2689,1.2789,1.2435,1.1501,0.0,0.0,0.0,1.1694,1.2579,1.3474,1.3266,0.0,0.0,0.0,0.0,0.0,0.0,0.0,0.0,0.0,0.0,0.0,0.0,0.0,0.0,0.0,0.0,0.0,1.0539,0.9822,0.9822,0.9822,0.9822,0.9822,0.9822,0.9822,0.9822,0.9822,0.9822,0.9822,0.9822,0.994,1.0068,0.0,0.0,0.0,1.761,1.9393,2.1076,2.1096,2.1109,2.1176,2.1737,2.1964,2.2064,0.0,0.0,0.0,0.0,0.0,0.0,0.0,0.0,0.0,0.0,0.0,0.0,0.0,0.0,0.0,0.0,0.0,0.0,0.0,0.0,0.0,0.0,0.0,0.0,0.0,0.0,0.0,0.0,0.0,0.0,0.0,0.0,0.0,0.0,0.0,0.0,0.0,0.0,0.0,0.0,0.0,0.0,0.0,0.0,0.0,0.0,0.0,0.0,0.0,0.0,0.0,0.0,0.9013,0.8259,0.0,0.0,0.7709,0.8216,0.9197,0.9529,0.9745,1.0313,1.0188,0.9971,0.9802,0.0,0.0,1.0842,1.162,1.2412,1.2772,1.2739,1.2659,0.0,0.0,0.0,0.0,0.0,0.0,0.0,0.0,0.0,0.0,0.0,0.0,0.0,0.0,0.0,0.0,1.066,0.9822,0.9822,0.9822,0.9822,0.9822,0.9822,0.9822,0.9822,0.9822,0.9822,0.9822,0.9822,1.035,1.1421,0.0,0.0,0.0,1.7326,1.8662,1.9674,2.0716,2.1109,2.1136,2.137,2.1683,2.2017,0.0,0.0,0.0,0.0,0.0,0.0,0.0,0.0,0.0,0.0,0.0,0.0,0.0,0.0,0.0,0.0,0.0,0.0,0.0,0.0,0.0,0.0,0.0,0.0,0.0,0.0,0.0,0.0,0.0,0.0,0.0,0.0,0.0,0.0,0.0,0.0,0.0,0.0,0.0,0.0,0.0,0.0,0.0,0.0,0.0,0.0,0.0,0.0,0.0,0.0,0.0,0.0,0.0,0.0,0.0,0.0,0.7656,0.7926,0.8313,0.853,0.8632,0.8591,0.8357,0.8181,0.0,0.0,0.9697,0.9898,1.0938,1.1848,1.1848,1.2077,1.2305,0.0,0.0,0.0,0.0,0.0,0.0,0.0,0.0,0.0,0.0,0.0,0.0,0.0,0.0,0.0,0.0,1.066,0.9822,0.9822,0.9822,0.9822,0.9822,0.9822,0.9822,0.9822,0.9822,0.9822,0.9822,0.9822,1.0508,1.1646,0.0,0.0,0.0,1.617,1.7446,1.864,1.9807,2.0589,2.1122,2.1209,2.1503,2.1884,0.0,0.0,0.0,0.0,0.0,0.0,0.0,0.0,0.0,0.0,0.0,0.0,0.0,0.0,0.0,0.0,0.0,0.0,0.0,0.0,0.0,0.0,0.0,0.0,0.0,0.0,0.0,0.0,0.0,0.0,0.0,0.0,0.0,0.0,0.0,0.0,0.0,0.0,0.0,0.0,0.0,0.0,0.0,0.0,0.0,0.0,0.0,0.0,0.0,0.0,0.0,0.0,0.0,0.0,0.0,0.0,0.805,0.7509,0.8109,0.8377,0.8452,0.8309,0.8045,0.7699,0.0,0.0,0.815,0.7859,0.9437,1.0789,1.0789,1.162,1.2305,1.2305,0.0,0.0,0.0,0.0,0.0,0.0,0.0,0.0,0.0,0.0,0.0,0.0,0.0,0.0,0.0,1.066,0.9822,0.9822,0.9822,0.9822,0.9822,0.9822,0.9822,0.9822,0.9822,0.9822,0.9822,0.9822,0.9903,0.0,0.0,0.0,0.0,1.324,1.5394,1.8506,1.8506,1.9546,2.1149,2.1436,2.155,2.1637,0.0,0.0,0.0,0.0,0.0,0.0,0.0,0.0,0.0,0.0,0.0,0.0,0.0,0.0,0.0,0.0,0.0,0.0,0.0,0.0,0.0,0.0,0.0,0.0,0.0,0.0,0.0,0.0,0.0,0.0,0.0,0.0,0.0,0.0,0.0,0.0,0.0,0.0,0.0,0.0,0.0,0.0,0.0,0.0,0.0,0.0,0.0,0.0,0.0,0.0,0.0,0.0,0.0,0.0,0.0,0.0,0.0,0.0,0.755,0.7689,0.7712,0.7668,0.7502,0.7261,0.6919,0.0,0.8944,0.8013,0.9965,1.162,1.0938,1.162,1.2505,1.312,1.3788,0.0,0.0,0.0,0.0,0.0,0.0,0.0,0.0,0.0,0.0,0.0,0.0,0.0,0.0,1.0061,0.9822,0.9822,0.9822,0.9822,0.9822,0.9822,0.9822,0.9822,0.9822,0.9822,0.9825,0.993,0.0,0.0,0.0,0.0,0.0,1.4074,1.5789,1.6953,1.9285,2.0589,2.1122,2.1216,2.1376,2.161,0.0,0.0,0.0,0.0,0.0,0.0,0.0,0.0,0.0,0.0,0.0,0.0,0.0,0.0,0.0,0.0,0.0,0.0,0.0,0.0,0.0,0.0,0.0,0.0,0.0,0.0,0.0,0.0,0.0,0.0,0.0,0.0,0.0,0.0,0.0,0.0,0.0,0.0,0.0,0.0,0.0,0.0,1.2305,0.0,0.0,0.0,0.0,0.0,0.0,0.0,0.0,0.0,0.0,0.0,0.0,0.0,0.0,0.0,0.0,0.7285,0.7285,0.7285,0.7129,0.0,0.0,0.0,0.8844,0.844,1.019,1.1539,1.0938,1.162,1.2525,1.32,1.4021,0.0,0.0,0.0,0.0,0.0,0.0,0.0,0.0,0.0,0.0,0.0,0.0,0.0,0.0,0.0,0.9822,0.9822,0.9822,0.9822,0.9822,0.9822,0.9822,0.9822,0.9822,0.9849,0.991,1.0005,0.0,0.0,0.0,0.0,0.0,1.3062,1.4358,1.5139,1.7339,1.8896,2.0068,2.0068,2.07,2.1443,0.0,0.0,0.0,0.0,0.0,0.0,0.0,0.0,0.0,0.0,0.0,0.0,0.0,0.0,0.0,0.0,0.0,0.0,0.0,0.0,0.0,0.0,0.0,0.0,0.0,0.0,0.0,0.0,1.0624,1.0842,1.1396,0.0,0.0,0.0,0.0,0.0,0.0,0.0,0.0,0.0,0.0,0.0,0.0,0.0,0.0,0.0,0.0,0.0,0.0,0.0,0.0,0.0,0.0,0.0,0.0,0.0,0.0,0.0,0.0,0.0,0.0,0.0,0.0,0.0,0.0,0.0,0.0,0.9069,1.0115,1.0783,1.0783,1.1545,1.2344,1.2786,0.0,0.0,0.0,0.0,0.0,0.0,0.0,0.0,0.0,0.0,0.0,0.0,0.0,0.0,0.0,0.0,0.9822,0.9822,0.9822,0.9822,0.9822,0.9822,0.9822,0.9822,0.9822,0.99,1.0049,1.0059,0.0,0.0,0.0,0.0,0.0,1.085,1.1894,1.3451,1.3451,1.5659,1.8634,1.8506,1.9546,2.1196,0.0,0.0,0.0,0.0,0.0,0.0,0.0,0.0,0.0,0.0,0.0,0.0,0.0,0.0,0.0,0.0,0.0,0.0,0.0,0.0,0.0,0.0,0.0,0.0,0.0,0.0,0.0,1.0624,1.0624,1.0742,1.1102,1.1323,0.0,0.0,0.0,0.0,0.0,0.0,0.0,0.0,0.0,0.0,0.0,0.0,0.0,0.0,1.2305,1.2305,0.0,0.0,0.0,0.0,0.0,0.0,0.0,0.0,0.6338,0.0,0.643,0.0,0.6468,0.6468,0.0,0.0,0.0,0.0,0.0,0.0,0.0,1.0783,1.0783,1.1013,1.1764,0.0,0.0,0.0,0.0,0.0,0.0,0.0,0.0,0.0,0.0,0.0,0.0,0.0,0.0,0.0,0.0,0.0,0.9822,0.9822,0.9822,0.9822,0.9822,0.9822,0.9822,0.9822,0.9822,0.99,1.0053,1.0171,0.0,0.0,0.0,0.0,1.085,1.2153,1.3713,1.5265,1.5265,1.7468,2.0329,1.9024,1.9546,2.1196,0.0,0.0,0.0,0.0,0.0,0.0,0.0,0.0,0.0,0.0,0.0,0.0,0.0,0.0,0.0,0.0,0.0,0.0,0.0,0.0,0.0,0.0,0.0,0.0,0.0,0.0,0.0,0.0,0.0,1.0975,0.0,0.0,0.0,0.0,0.0,0.0,0.0,0.0,0.0,0.0,0.0,0.0,0.0,0.0,0.0,0.0,1.1768,1.162,0.0,1.0415,0.9442,0.8542,0.0,0.0,0.0,0.0,0.6338,0.6338,0.6338,0.6338,0.6338,0.6338,0.6338,0.6567,0.0,0.0,0.0,0.0,0.0,0.0,1.0783,0.0,0.0,0.0,0.0,0.0,0.0,0.0,0.0,0.0,0.0,0.0,0.0,0.0,0.0,0.0,0.0,0.0,0.0,0.0,0.9822,0.9822,0.9822,0.9822,0.9822,0.9822,0.9822,0.9822,0.9893,1.0005,1.0158,1.031,0.0,0.0,0.0,0.0,1.0717,1.1765,1.2672,1.3582,1.4362,1.6302,1.864,1.8506,1.9755,2.1376,0.0,0.0,0.0,0.0,0.0,0.0,0.0,0.0,0.0,0.0,0.0,0.0,0.0,0.0,0.0,0.0,0.0,0.0,0.0,0.0,0.0,0.0,0.0,0.0,0.0,0.0,0.0,0.0,0.0,0.0,0.0,0.0,0.0,0.0,0.0,0.0,0.0,0.0,0.0,0.0,0.0,0.0,0.0,0.0,0.0,0.0,0.0,0.0,0.0,0.9442,0.8613,0.8008,0.7633,0.0,0.0,0.0,0.0,0.0,0.6338,0.6338,0.6338,0.6338,0.6338,0.6567,0.7553,0.0,0.0,0.0,0.0,0.0,0.0,0.0,0.0,0.0,0.0,0.0,0.0,0.0,0.0,0.0,0.0,0.0,0.0,0.0,0.0,0.0,0.0,0.0,0.0,0.0,0.0,0.9822,0.9866,0.9869,0.9822,0.9822,0.9832,0.9859,1.0012,1.0164,1.0317,1.0463,1.0609,0.0,0.0,0.0,1.0755,1.0755,1.0888,1.1279,1.2712,1.4539,1.6488,1.8045,1.9886,2.1597,0.0,0.0,0.0,0.0,0.0,0.0,0.0,0.0,0.0,0.0,0.0,0.0,0.0,0.0,0.0,0.0,0.0,0.0,0.0,0.0,0.0,0.0,0.0,0.0,0.0,0.0,0.0,0.0,0.0,0.0,1.187,1.187,1.2024,0.0,0.0,0.0,0.0,0.0,0.0,0.0,0.0,0.0,0.0,0.0,0.0,0.0,0.0,0.0,0.0,0.8689,0.8466,0.8765,0.7099,0.0,0.0,0.0,0.0,0.0,0.6338,0.6338,0.6338,0.6338,0.6338,0.6567,0.7553,0.0,0.0,0.0,0.0,0.0,0.0,0.0,0.0,0.0,0.0,0.0,0.0,0.0,0.0,0.0,0.0,0.0,0.0,0.0,0.0,0.0,0.0,0.0,0.0,0.0,0.0,0.9825,1.0073,1.0083,0.9822,0.9822,0.9886,1.0015,1.0171,1.0321,1.0466,1.0616,1.0768,0.0,0.0,1.0795,1.0914,1.0914,1.1709,1.3165,1.3298,1.5409,1.8313,1.8705,2.0054,2.163,0.0,0.0,0.0,0.0,0.0,0.0,0.0,0.0,0.0,0.0,0.0,0.0,0.0,0.0,0.0,0.0,0.0,0.0,0.0,0.0,0.0,0.0,0.0,0.0,0.0,0.0,0.0,0.0,0.0,1.1817,1.2104,1.2104,1.2178,1.2305,0.0,0.0,0.0,0.0,0.0,0.0,0.0,0.0,0.0,0.0,0.0,0.0,0.0,0.0,0.0,0.0,0.7326,0.7557,0.6567,0.0,0.0,0.0,0.0,0.0,0.6338,0.6338,0.6298,0.6458,0.638,0.6416,0.6868,0.0,0.0,0.0,0.0,0.0,0.0,0.0,0.0,0.0,0.0,0.0,0.0,0.0,0.0,0.0,0.0,0.0,0.0,0.0,0.0,0.0,0.0,0.0,0.0,0.0,0.0,0.0,1.0164,1.0212,1.007,1.007,1.0103,1.0178,1.0409,1.0595,1.0744,1.089,1.0999,1.106,0.0,1.0999,1.1063,1.1063,1.1467,1.241,1.3349,1.5227,1.7784,2.0068,2.1337,2.2078,0.0,0.0,0.0,0.0,0.0,0.0,0.0,0.0,0.0,0.0,0.0,0.0,0.0,0.0,0.0,0.0,0.0,0.0,0.0,0.0,0.0,0.0,0.0,0.0,0.0,0.0,0.0,1.1971,1.1971,1.2084,1.2305,1.2305,1.2305,0.0,0.0,0.0,0.0,0.0,0.0,0.0,0.0,0.0,0.0,0.0,0.0,0.0,0.0,0.0,0.0,0.0,0.0,0.0,0.0,0.0,0.0,0.6338,0.6338,0.6338,0.6338,0.6338,0.6332,0.6627,0.0,0.6383,0.6451,0.0,0.0,0.0,0.0,0.0,0.0,0.0,0.0,0.0,0.0,0.0,0.0,0.0,0.0,0.0,0.0,0.0,0.0,0.0,0.0,0.0,0.0,0.0,0.0,0.0,0.0,0.0,1.0287,1.0351,1.028,1.0348,1.0385,1.0385,1.0649,1.0853,1.1002,1.1148,1.1216,1.1212,1.1179,1.1185,1.1216,1.1216,1.1216,1.1351,1.3125,1.5301,1.7771,2.1097,2.2465,2.2552,0.0,0.0,0.0,0.0,0.0,0.0,0.0,0.0,0.0,0.0,0.0,0.0,0.0,0.0,0.0,0.0,0.0,0.0,0.0,0.0,0.0,0.0,0.0,0.0,0.0,1.1837,1.1984,1.2271,1.2271,1.2278,1.2305,1.2305,1.2305,1.2305,0.0,0.0,0.0,0.0,0.0,0.0,0.0,0.0,0.0,0.0,0.0,0.0,0.0,0.0,0.0,0.0,0.0,0.0,0.0,0.0,0.0,0.0,0.6338,0.6338,0.6338,0.6338,0.6332,0.6627,0.0,0.0,0.7014,0.7078,0.0,0.0,0.0,0.0,0.0,0.0,0.0,0.0,0.0,0.0,0.0,0.0,0.0,0.0,0.0,0.0,0.0,0.0,0.0,0.0,0.0,0.0,0.0,0.0,0.0,0.0,0.0,1.0558,1.0283,1.0551,1.0687,1.069,1.0853,1.1009,1.1151,1.1304,1.1375,1.1365,1.1223,1.1243,1.1375,1.1375,1.1375,1.1513,1.3308,1.62,1.964,2.1584,2.2592,2.2832,0.0,0.0,0.0,0.0,0.0,0.0,0.0,0.0,0.0,0.0,0.0,0.0,0.0,0.0,0.0,0.0,0.0,0.0,0.0,0.0,0.0,0.0,0.0,1.2251,1.2138,1.2138,1.2191,1.2305,1.2305,1.2305,1.2305,1.2305,0.0,0.0,0.0,0.0,0.0,0.0,0.0,0.0,0.0,0.0,0.0,0.0,0.0,0.0,0.0,0.0,0.0,0.0,0.0,0.0,0.0,0.0,0.0,0.0,0.6338,0.6338,0.6338,0.6338,0.6376,0.6854,0.0,0.0,0.0,0.0,0.0,0.0,0.0,0.0,0.0,0.0,0.0,0.0,0.0,0.0,0.0,0.0,0.0,0.0,0.0,0.0,0.0,0.0,0.0,0.0,0.0,0.0,0.0,0.0,0.0,0.0,0.0,1.0666,1.0555,1.0758,1.0907,1.0995,1.1053,1.1209,1.145,1.1508,1.1535,1.1531,1.147,1.148,1.1535,1.1535,1.2233,1.3629,1.6563,1.7956,1.8517,2.1575,2.2766,2.2859,0.0,0.0,0.0,0.0,0.0,0.0,0.0,0.0,0.0,0.0,0.0,0.0,0.0,0.0,0.0,0.0,0.0,0.0,0.0,0.0,0.0,0.0,0.0,1.2305,1.2305,1.2305,1.2305,1.2305,1.2305,1.2305,1.2305,0.0,0.0,0.0,0.0,0.0,0.0,0.0,0.0,0.0,0.0,0.0,0.0,0.0,0.0,0.0,0.0,0.0,0.0,0.0,0.0,0.0,0.0,0.0,0.0,0.0,0.0,0.6338,0.6338,0.6338,0.638,0.0,0.0,0.0,0.0,0.0,0.0,0.0,0.0,0.0,0.0,0.0,0.0,0.0,0.0,0.0,0.0,0.0,0.0,0.0,0.0,0.0,0.0,0.0,0.0,0.0,0.0,0.0,0.0,0.0,0.0,0.0,0.0,1.0721,1.0721,1.087,1.1019,1.1162,1.1212,1.1369,1.1619,1.1619,1.1619,1.1619,1.1619,1.1619,1.1619,1.2183,1.3309,1.4712,1.7949,1.8374,1.7674,2.1459,2.2859,2.2859,0.0,0.0,0.0,0.0,0.0,0.0,0.0,0.0,0.0,0.0,0.0,0.0,0.0,0.0,0.0,0.0,0.0,0.0,0.0,0.0,0.0,0.0,0.0,1.2305,1.2305,1.2305,1.2305,1.2305,1.2305,1.2305,1.2305,0.0,0.0,0.0,0.0,0.0,0.0,0.0,0.0,0.0,0.0,0.0,0.0,0.0,0.0,0.0,0.0,0.0,0.0,0.0,0.0,0.0,0.0,0.0,0.0,0.0,0.7099,0.6338,0.6338,0.6342,0.0,0.0,0.0,0.0,0.0,0.0,0.0,0.0,0.0,0.0,0.0,0.0,0.0,0.0,0.0,0.0,0.0,0.0,0.0,0.0,0.0,0.0,0.0,0.0,0.0,0.0,0.0,0.0,0.0,0.0,0.0,0.0,0.0,0.0,1.0721,1.0873,1.1023,1.1165,1.1318,1.147,1.1619,1.1619,1.1619,1.1619,1.1619,1.1619,1.176,1.3729,1.4428,1.4574,1.6545,1.7253,1.7674,2.1459,2.2859,2.2859,0.0,0.0,0.0,0.0,0.0,0.0,0.0,0.0,0.0,0.0,0.0,0.0,0.0,0.0,0.0,0.0,0.0,0.0,0.0,0.0,0.0,0.0,0.0,0.0,0.0,0.0,1.2305,1.2305,1.2305,1.2305,0.0,0.0,0.0,1.2305,0.0,0.0,0.0,0.0,0.0,0.0,0.0,0.0,0.0,0.0,0.0,0.0,0.0,0.0,0.0,0.0,0.0,0.0,0.0,0.0,0.0,0.8846,0.8161,0.7326,0.7326,0.0,0.0,0.0,0.0,0.0,0.0,0.0,0.0,0.0,0.0,0.0,0.0,0.0,0.0,0.0,0.0,0.0,0.0,0.0,0.0,0.0,0.0,0.0,0.0,0.0,0.0,0.0,0.0,0.0,0.0,0.0,0.0,0.0,0.0,0.0,1.0721,1.0972,1.1121,1.1165,1.1426,1.1575,1.1619,1.1619,1.1619,1.1619,1.1619,1.2323,1.3872,1.7102,1.5981,1.3028,1.8927,1.9634,1.7674,2.1459,2.2859,2.2859,0.0,0.0,0.0,0.0,0.0,0.0,0.0,0.0,0.0,0.0,0.0,0.0,0.0,0.0,0.0,0.0,0.0,0.0,0.0,0.0,0.0,0.0,0.0,0.0,0.0,1.2305,1.2445,0.0,0.0,0.0,0.0,0.0,0.0,1.2305,0.0,0.0,0.0,0.0,0.0,0.0,0.0,0.0,0.0,0.0,0.0,0.0,0.0,0.0,0.0,0.0,0.0,0.0,0.0,0.0,0.0,0.9448,0.8653,0.7845,0.7454,0.0,0.0,0.0,0.0,0.0,0.0,0.0,0.0,0.0,0.0,0.0,0.0,0.0,0.0,0.0,0.0,0.0,0.0,0.0,0.0,0.0,0.0,0.0,0.0,0.0,0.0,0.0,0.0,0.0,0.0,0.0,0.0,0.0,0.0,0.0,1.0721,1.1012,1.1162,1.1165,1.1474,1.1619,1.1619,1.1619,1.2043,1.2745,1.2745,1.3729,1.5698,1.7243,1.6685,1.5283,1.9206,1.9634,1.8653,2.09,2.1741,2.1741,0.0,0.0,0.0,0.0,0.0,0.0,0.0,0.0,0.0,0.0,0.0,0.0,0.0,0.0,0.0,0.0,0.0,0.0,0.0,0.0,0.0,0.0,0.0,0.0,0.0,0.0,0.0,0.0,0.0,0.0,0.0,0.0,1.3244,1.2445,0.0,1.2305,0.0,0.0,0.0,0.0,0.0,0.0,0.0,0.0,0.0,0.0,0.0,0.0,0.0,0.0,0.0,0.0,0.0,0.0,1.0714,0.9744,0.8913,0.8111,0.0,0.0,0.0,0.0,0.0,0.0,0.0,0.0,0.0,0.0,0.0,0.0,0.0,0.0,0.0,0.0,0.0,0.0,0.0,0.0,0.0,0.0,0.0,0.0,0.0,0.0,0.0,0.0,0.0,0.0,0.0,0.0,0.0,0.0,0.0,0.0,1.0741,1.1023,1.1168,0.0,1.1619,1.1903,1.1903,1.1903,1.2888,1.4712,1.4853,1.5839,1.7112,1.5698,1.6962,1.9634,1.8234,1.8653,2.0057,2.034,2.0196,2.0057,0.0,0.0,0.0,0.0,0.0,0.0,0.0,0.0,0.0,0.0,0.0,0.0,0.0,0.0,0.0,0.0,0.0,0.0,0.0,0.0,0.0,0.0,0.0,0.0,0.0,0.0,0.0,0.0,0.0,0.0,0.0,0.0,0.0,1.3382,0.0,1.2305,0.0,0.0,0.0,0.0,0.0,0.0,0.0,0.0,0.0,0.0,0.0,0.0,0.0,0.0,0.0,0.0,1.2305,1.215,1.1768,1.0789,1.0042,0.0,0.0,0.0,0.0,0.0,0.0,0.0,0.0,0.0,0.0,0.0,0.0,0.0,0.0,0.0,0.0,0.0,0.0,0.0,0.0,0.0,0.0,0.0,0.0,0.0,0.0,0.0,0.0,0.0,0.0,0.0,0.0,0.0,0.0,0.0,0.0,1.0778,1.0897,1.1073,1.1223,0.0,1.307,1.3872,1.3872,1.3872,1.4858,1.669,1.8229,1.8229,1.7393,2.0051,1.9767,1.8094,2.0617,2.1038,2.0334,2.1741,2.1321,2.0057,0.0,0.0,0.0,0.0,0.0,0.0,0.0,0.0,0.0,0.0,0.0,0.0,0.0,0.0,0.0,0.0,0.0,0.0,0.0,0.0,0.0,0.0,0.0,0.0,0.0,0.0,0.0,0.0,0.0,0.0,0.0,0.0,0.0,1.3025,0.0,1.2305,0.0,0.0,0.0,0.0,0.0,0.0,0.0,0.0,0.0,0.0,0.0,0.0,0.0,0.0,0.0,0.0,0.0,0.0,1.2077,1.1087,0.0,0.0,0.0,0.0,0.0,0.0,0.0,0.0,0.0,0.0,0.0,0.0,0.0,0.0,0.0,0.0,0.0,0.0,0.0,0.0,0.0,0.0,0.0,0.0,0.0,0.0,0.0,0.0,0.0,0.0,0.0,0.0,0.0,0.0,0.0,0.0,1.0721,1.0795,1.0948,1.2039,1.2608,1.2772,1.4762,1.6263,1.7102,1.7102,1.7107,1.7253,1.9217,1.9495,1.8793,2.0756,2.0894,2.0051,2.1176,2.0894,2.0057,2.019,1.8927,1.7383,0.0,0.0,0.0,0.0,0.0,0.0,0.0,0.0,0.0,0.0,0.0,0.0,0.0,0.0,0.0,0.0,0.0,0.0,0.0,0.0,0.0,0.0,0.0,0.0,0.0,0.0,0.0,0.0,0.0,0.0,0.0,0.0,0.0,1.2519,0.0,0.0,0.0,0.0,0.0,0.0,0.0,0.0,0.0,0.0,0.0,0.0,0.0,0.0,0.0,0.0,0.0,0.0,0.0,0.0,1.2077,0.0,0.0,0.0,0.0,0.0,0.0,0.0,0.0,0.0,0.0,0.0,0.0,0.0,0.0,0.0,0.0,0.0,0.0,0.0,0.0,0.0,0.0,0.0,0.0,0.0,0.0,0.0,0.0,0.0,0.0,0.0,0.0,0.0,0.0,0.0,1.0721,1.0721,1.0721,1.0939,1.1386,1.3134,1.4263,1.4754,1.6737,1.8653,2.0617,2.0617,1.9773,1.8234,1.9912,2.0617,2.0617,2.0617,2.1459,2.2722,2.1176,2.0617,2.034,1.8793,1.6826,1.4853,0.0,0.0,0.0,0.0,0.0,0.0,0.0,0.0,0.0,0.0,0.0,0.0,0.0,0.0,0.0,0.0,0.0,0.0,0.0,0.0,0.0,0.0,0.0,0.0,0.0,0.0,0.0,0.0,0.0,0.0,0.0,0.0,0.0,1.3455,0.0,0.0,0.0,0.0,0.0,0.0,0.0,0.0,0.0,0.0,0.0,0.0,0.0,0.0,0.0,0.0,0.0,0.0,0.0,0.0,0.0,0.0,0.0,0.0,0.0,0.0,0.0,0.0,0.0,0.0,0.0,0.0,0.0,0.0,0.0,0.0,0.0,0.0,0.0,0.0,0.0,0.0,0.0,0.0,0.0,0.0,0.0,0.0,0.0,0.0,0.0,0.0,0.0,0.0,0.0,1.0721,1.0721,1.0721,1.0721,1.165,1.3576,1.3874,1.488,1.6782,1.8776,2.0756,2.2578,2.2578,2.2441,2.216,2.2441,2.2578,2.2578,2.2578,2.2715,2.2866,2.2578,2.2578,2.2441,2.2297,1.9912,1.6826,0.0,0.0,0.0,0.0,0.0,0.0,0.0,0.0,0.0,0.0,0.0,0.0,0.0,0.0,0.0,0.0,0.0,0.0,0.0,0.0,0.0,0.0,0.0,0.0,0.0,0.0,0.0,0.0,0.0,0.0,0.0,1.4522,1.4243,0.0,0.0,0.0,0.0,0.0,0.0,0.0,0.0,0.0,0.0,0.0,0.0,0.0,0.0,0.0,0.0,0.0,0.0,0.0,0.0,0.0,0.0,0.0,0.0,0.0,0.0,0.0,0.0,0.0,0.0,0.0,0.0,0.0,0.0,0.0,0.0,0.0,0.0,0.0,0.0,0.0,0.0,0.0,0.0,0.0,0.0,0.0,0.0,0.0,0.0,0.0,0.0,0.0,0.0,0.0,1.0721,1.0721,1.0721,1.0721,1.0721,1.1792,1.4019,1.5096,1.7213,2.0334,2.1314,2.216,2.2859,2.2859,2.2859,2.2859,2.2859,2.2859,2.2859,2.2859,2.2859,2.2859,2.1741,2.0617,1.9634,1.8503,1.6404,1.4018,0.0,0.0,0.0,0.0,0.0,0.0,0.0,0.0,0.0,0.0,0.0,0.0,0.0,0.0,0.0,0.0,0.0,0.0,0.0,0.0,0.0,0.0,0.0,0.0,0.0,0.0,0.0,0.0,0.0,0.0,1.5234,1.5234,1.495,0.0,1.4171,0.0,0.0,0.0,0.0,0.0,0.0,0.0,0.0,0.0,0.0,0.0,0.0,0.0,0.0,0.0,0.0,0.0,0.0,0.0,0.0,0.0,0.0,0.0,0.0,0.0,0.0,0.0,0.0,0.0,0.0,0.0,0.0,0.0,0.0,0.0,0.0,0.0,0.0,0.0,0.0,0.0,0.0,0.0,0.0,0.0,0.0,0.0,0.0,0.0,0.0,0.0,0.0,0.0,1.0721,1.0721,1.0721,1.0721,1.0721,1.1792,1.4019,1.642,1.9391,2.2859,2.2859,2.2859,2.2859,2.2859,2.2859,2.2859,2.2859,2.2859,2.2859,2.2859,2.2859,2.2722,2.0894,1.9211,1.7674,1.5839,1.3872,1.2323,0.0,0.0,0.0,0.0,0.0,0.0,0.0,0.0,0.0,0.0,0.0,0.0,0.0,0.0,0.0,0.0,0.0,0.0,0.0,0.0,0.0,0.0,0.0,0.0,0.0,0.0,0.0,0.0,0.0,0.0,1.5234,1.5234,1.5658,1.6419,1.5517,1.5163,1.5234,0.0,0.0,0.0,0.0,0.0,0.0,0.0,0.0,0.0,0.0,0.0,0.0,0.0,0.0,0.0,0.0,0.0,0.0,0.0,0.0,0.0,0.0,0.0,0.0,0.0,0.0,0.0,0.0,0.0,0.0,0.0,0.0,0.0,0.0,0.0,0.0,0.0,0.0,0.0,0.0,0.0,0.0,0.0,0.0,0.0,0.0,0.0,0.0,0.0,0.0,0.0,1.0721,1.0721,1.0721,1.0721,1.0721,1.1792,1.4019,1.7972,2.0869,2.2859,2.2859,2.2859,2.2859,2.2859,2.2859,2.2859,2.2859,2.2859,2.2859,2.2859,2.2859,2.2722,2.0894,2.0057,1.9773,1.7814,1.5844,1.429,0.0,0.0,0.0,0.0,0.0,0.0,0.0,0.0,0.0,0.0,0.0,0.0,0.0,0.0,0.0,1.5305,0.0,0.0,0.0,0.0,0.0,0.0,0.0,0.0,0.0,0.0,0.0,0.0,0.0,1.5517,1.6079,1.6724,1.7157,1.7432,1.6498,1.6437,1.6941,1.6358,0.0,0.0,0.0,0.0,0.0,0.0,0.0,0.0,0.0,0.0,0.0,0.0,0.0,0.0,0.0,0.0,0.0,0.0,0.0,0.0,0.0,0.0,0.0,0.0,0.0,0.0,0.0,0.0,0.0,0.0,0.0,0.0,0.0,0.0,0.0,0.0,0.0,0.0,0.0,0.0,0.0,0.0,0.0,0.0,0.0,0.0,0.0,0.0,0.0,0.0,1.0721,1.0721,1.0721,1.0721,1.0721,1.1792,1.4019,1.6753,1.9211,2.1038,2.1038,2.1734,2.2859,2.2859,2.2859,2.2859,2.2859,2.2859,2.2859,2.2859,2.2859,2.2722,2.0894,1.9356,1.7949,1.6122,1.4152,1.2606,0.0,0.0,0.0,0.0,0.0,0.0,0.0,0.0,0.0,0.0,0.0,0.0,0.0,0.0,0.0,1.6158,0.0,0.0,0.0,0.0,0.0,0.0,0.0,0.0,0.0,0.0,0.0,0.0,0.0,0.0,0.0,1.7725,1.8086,1.8144,1.7562,1.7631,0.0,0.0,0.0,1.716,0.0,0.0,1.4806,0.0,0.0,0.0,0.0,0.0,0.0,0.0,0.0,0.0,0.0,0.0,0.0,0.0,0.0,0.0,0.0,0.0,0.0,0.0,0.0,0.0,0.0,0.0,0.0,0.0,0.0,0.0,0.0,0.0,0.0,0.0,0.0,0.0,0.0,0.0,0.0,0.0,0.0,0.0,0.0,0.0,0.0,0.0,0.0,0.0,1.0721,1.0721,1.0721,1.0721,1.0819,1.1902,1.4019,1.55,1.7248,1.9077,1.9077,1.9773,2.1032,2.1032,2.1314,2.2016,2.2016,2.2304,2.2859,2.2859,2.2859,2.2578,2.0057,1.8374,1.6831,1.4436,1.2602,1.1619,0.0,0.0,0.0,0.0,0.0,0.0,0.0,0.0,0.0,0.0,0.0,0.0,0.0,0.0,0.0,1.8008,1.8008,1.8008,1.8008,0.0,0.0,0.0,0.0,0.0,0.0,0.0,0.0,0.0,0.0,0.0,0.0,0.0,1.8271,0.0,1.8652,1.8662,1.8672,0.0,1.8313,1.7794,0.0,1.5864,1.5197,0.0,0.0,0.0,1.5398,1.5297,0.0,0.0,0.0,0.0,0.0,0.0,0.0,0.0,0.0,0.0,0.0,0.0,0.0,0.0,0.0,0.0,0.0,0.0,0.0,0.0,0.0,0.0,0.0,0.0,0.0,0.0,0.0,0.0,0.0,0.0,0.0,0.0,0.0,0.0,0.0,0.0,0.0,0.0,0.0,1.085,1.0721,1.0721,1.0721,1.0721,1.1009,1.2116,1.3887,1.425,1.5278,1.7112,1.7112,1.7112,1.7253,1.7253,1.8234,2.0057,2.0057,2.1038,2.2722,2.2859,2.2859,2.2441,1.8793,1.7253,1.669,1.3031,1.1619,1.1619,0.0,0.0,0.0,0.0,0.0,0.0,0.0,0.0,0.0,0.0,0.0,0.0,0.0,0.0,1.8008,1.8008,1.8008,1.8008,1.8008,1.8008,1.7716,1.7001,1.6991,0.0,0.0,0.0,0.0,0.0,0.0,0.0,0.0,0.0,0.0,0.0,1.9111,1.9277,1.9467,1.8488,0.0,0.0,1.6242,1.5936,0.0,0.0,1.6012,0.0,0.0,1.7388,0.0,0.0,1.6299,1.5095,0.0,0.0,0.0,0.0,0.0,0.0,1.4088,0.0,0.0,0.0,0.0,0.0,0.0,0.0,0.0,0.0,0.0,0.0,0.0,0.0,0.0,0.0,0.0,0.0,0.0,0.0,0.0,0.0,0.0,0.0,0.0,0.0,0.0,0.0,1.3713,1.397,1.2676,1.2541,1.2022,1.0721,1.1009,1.1438,1.1982,1.2303,1.3309,1.5137,1.5137,1.5844,1.7253,1.7253,1.7534,1.7954,1.7954,1.8234,1.8932,2.1734,2.216,2.0756,1.9773,1.7669,1.4995,1.401,1.2745,1.1619,0.0,0.0,0.0,0.0,0.0,0.0,0.0,0.0,0.0,0.0,0.0,0.0,0.0,0.0,1.8545,1.8545,1.8545,1.8545,1.8545,1.8545,1.8315,1.7722,1.7722,1.7438,0.0,0.0,0.0,0.0,0.0,0.0,0.0,0.0,0.0,0.0,0.0,0.0,0.0,0.0,0.0,0.0,1.702,0.0,0.0,1.6517,1.654,0.0,0.0,0.0,1.7174,1.7829,1.6867,0.0,0.0,0.0,0.0,0.0,0.0,0.0,0.0,0.0,0.0,0.0,0.0,0.0,0.0,1.3601,0.0,0.0,0.0,0.0,0.0,0.0,0.0,0.0,0.0,0.0,0.0,0.0,0.0,0.0,0.0,0.0,0.0,0.0,0.0,0.0,1.3193,1.332,1.2285,1.2285,1.1762,1.0721,1.1009,1.1162,1.1162,1.1467,1.2183,1.3167,1.3167,1.3733,1.4862,1.4862,1.5283,1.5981,1.5981,1.6545,1.7393,1.9634,1.9912,1.8793,1.8089,1.6399,1.429,1.3591,1.2606,1.1619,0.0,0.0,0.0,0.0,0.0,0.0,0.0,0.0,0.0,0.0,0.0,1.8857,0.0,0.0,1.9287,1.9287,1.9287,1.9287,1.9287,1.9287,1.9287,1.9287,1.9287,1.9287,1.9287,0.0,0.0,0.0,0.0,0.0,0.0,0.0,0.0,0.0,0.0,0.0,0.0,0.0,0.0,2.0368,1.8331,1.8063,0.0,0.0,1.65,0.0,1.8036,1.7936,1.7675,1.7956,1.7029,0.0,0.0,0.0,0.0,0.0,1.4977,0.0,0.0,0.0,0.0,0.0,0.0,0.0,1.507,1.4858,1.4622,0.0,0.0,0.0,0.0,0.0,0.0,0.0,0.0,0.0,0.0,0.0,0.0,0.0,0.0,0.0,0.0,0.0,1.2935,1.1111,1.0979,1.0979,1.0979,1.0979,1.0857,1.0744,1.1016,1.1172,1.1189,1.1474,1.1619,1.1619,1.1619,1.1619,1.1619,1.1619,1.2463,1.4152,1.4152,1.4995,1.6549,1.6549,1.669,1.669,1.4995,1.429,1.3872,1.2183,1.1619,1.1619,0.0,0.0,0.0,0.0,0.0,0.0,0.0,0.0,0.0,0.0,0.0,0.0,0.0,0.0,0.0,1.9287,1.9287,1.9287,1.9287,1.9287,1.9287,1.9287,1.9287,1.9287,1.9287,1.9287,0.0,0.0,0.0,0.0,0.0,0.0,0.0,0.0,0.0,0.0,0.0,0.0,0.0,2.0202,1.8891,0.0,2.0945,1.8435,1.7709,1.8056,1.8824,1.8611,1.7963,0.0,1.7839,1.763,0.0,0.0,0.0,0.0,0.0,0.0,0.0,0.0,0.0,0.0,0.0,0.0,1.4302,1.4746,1.4829,0.0,0.0,0.0,0.0,0.0,0.0,0.0,0.0,0.0,0.0,0.0,0.0,0.0,0.0,0.0,0.0,0.0,1.4619,1.2931,1.2804,1.2804,1.2804,1.2804,1.2215,1.09,1.1073,1.1223,1.1345,1.1528,1.1619,1.1619,1.1619,1.1619,1.1619,1.1619,1.176,1.2183,1.2183,1.2323,1.2749,1.2749,1.3591,1.4853,1.457,1.3448,1.204,1.176,1.1619,1.1619,0.0,0.0,0.0,0.0,0.0,0.0,0.0,0.0,0.0,0.0,0.0,0.0,0.0,0.0,0.0,0.0,1.9922,1.9922,0.0,0.0,1.9922,1.9922,1.9922,1.9922,1.9922,1.9922,0.0,0.0,0.0,0.0,0.0,0.0,0.0,0.0,0.0,0.0,0.0,0.0,2.0895,2.1262,1.9394,0.0,2.0634,1.8763,1.831,1.8764,1.9212,1.9085,1.8637,1.8196,1.7952,0.0,0.0,1.6197,1.5383,0.0,1.5296,1.4817,0.0,0.0,0.0,1.425,0.0,0.0,0.0,1.477,0.0,0.0,0.0,0.0,0.0,0.0,0.0,0.0,0.0,0.0,0.0,0.0,0.0,0.0,0.0,0.0,0.0,0.0,1.3864,1.2146,1.2022,1.2022,1.2022,1.2022,1.1711,1.0945,1.1087,1.1236,1.1389,1.1541,1.1619,1.1619,1.1619,1.1619,1.1619,1.1619,1.1619,1.1619,1.1619,1.1619,1.1619,1.1619,1.2183,1.3028,1.3028,1.2466,1.1619,1.1619,1.1619,1.1619,0.0,0.0,0.0,0.0,0.0,0.0,0.0,0.0,0.0,0.0,0.0,0.0,0.0,0.0,0.0,0.0,0.0,0.0,0.0,0.0,0.0,2.0566,2.0566,2.0566,2.0566,2.0566,2.0566,0.0,0.0,0.0,0.0,0.0,0.0,0.0,0.0,0.0,0.0,0.0,0.0,2.1549,0.0,1.947,2.0076,1.8793,1.8795,1.9469,1.9421,1.9259,1.9005,1.8502,0.0,1.7811,1.7407,1.6435,0.0,0.0,0.0,0.0,0.0,0.0,0.0,0.0,0.0,1.4088,0.0,0.0,0.0,0.0,0.0,0.0,0.0,0.0,0.0,0.0,0.0,0.0,0.0,0.0,0.0,0.0,0.0,0.0,0.0,1.1721,1.2048,1.0795,1.0677,1.0687,1.0717,1.0721,1.0802,1.0985,1.1101,1.125,1.1433,1.1558,1.1619,1.1619,1.1619,1.1619,1.1619,1.1619,1.1619,1.1619,1.1619,1.1619,1.1619,1.1619,1.1619,1.1619,1.1619,1.1619,1.1619,1.1619,1.1619,1.1619,2.4936,2.4782,0.0,0.0,0.0,0.0,0.0,0.0,0.0,0.0,0.0,0.0,0.0,0.0,0.0,0.0,0.0,0.0,2.0635,0.0,0.0,0.0,2.0566,0.0,2.0566,2.0566,2.0566,2.0566,0.0,0.0,0.0,0.0,0.0,0.0,1.952,0.0,0.0,0.0,2.0148,0.0,2.0,2.1024,0.0,2.0104,1.957,1.9672,1.9414,1.8865,1.8285,0.0,1.9221,1.8738,0.0,1.7769,0.0,0.0,0.0,0.0,0.0,0.0,0.0,0.0,1.4088,0.0,0.0,0.0,0.0,0.0,0.0,0.0,0.0,0.0,0.0,0.0,0.0,0.0,0.0,0.0,0.0,0.0,0.0,0.0,0.0,0.0,1.0618,1.0507,1.0517,1.0575,1.0714,1.0721,1.085,1.1128,1.1155,1.1301,1.1592,1.1609,1.1619,1.1619,1.1619,1.1619,1.1619,1.1619,1.1619,1.1619,1.1619,1.1619,1.1619,1.1619,1.1619,1.1619,1.1619,1.1619,1.1619,1.1619,1.1619,1.1619,2.5623,2.5548,0.0,0.0,0.0,0.0,0.0,0.0,0.0,0.0,0.0,0.0,0.0,0.0,0.0,0.0,0.0,2.3125,0.0,0.0,0.0,0.0,0.0,0.0,0.0,2.1451,2.1451,2.1451,2.0857,0.0,0.0,0.0,0.0,0.0,1.9204,0.0,1.949,0.0,0.0,0.0,0.0,0.0,0.0,1.9554,1.9002,1.9521,1.9462,1.8791,1.811,0.0,1.9066,0.0,0.0,0.0,0.0,0.0,0.0,0.0,0.0,0.0,0.0,0.0,0.0,0.0,0.0,0.0,1.4088,0.0,0.0,0.0,0.0,0.0,0.0,0.0,0.0,0.0,0.0,0.0,0.0,0.0,0.0,0.0,0.0,0.0,0.0,0.0,0.0,1.0521,1.0585,1.0755,1.0948,1.1155,1.125,1.1399,1.1616,1.1619,1.1619,1.1619,1.1619,1.1619,1.1619,1.1619,1.1619,1.1619,1.1619,1.1619,1.1619,1.1619,1.1619,1.1619,1.1619,1.1619,1.1619,1.1619,1.1619,1.1619,2.6541,0.0,0.0,0.0,0.0,0.0,0.0,0.0,0.0,0.0,0.0,0.0,2.2384,2.2778,0.0,0.0,0.0,2.4482,0.0,0.0,2.2871,0.0,0.0,0.0,0.0,0.0,2.2403,2.2403,0.0,0.0,0.0,0.0,0.0,0.0,0.0,1.9317,1.9187,0.0,0.0,2.0977,2.1292,2.1658,2.1703,1.9404,1.8982,1.9606,1.9606,1.9032,1.8364,1.9346,1.936,0.0,1.8707,0.0,0.0,0.0,0.0,0.0,1.5397,0.0,0.0,0.0,0.0,0.0,0.0,0.0,0.0,0.0,0.0,0.0,0.0,0.0,0.0,0.0,0.0,0.0,0.0,0.0,0.0,0.0,0.0,0.0,0.0,0.0,0.0,0.0,0.9944,1.0276,1.048,1.0744,1.0972,1.1158,1.1311,1.1463,1.1616,1.1619,1.1619,1.1619,1.1619,1.1619,1.1619,1.1619,1.1619,1.1619,1.1619,1.1619,1.1619,1.1619,1.1619,1.1619,1.1619,1.1619,1.1619,1.1619,1.1623,1.1626,2.7828,2.7657,0.0,0.0,0.0,0.0,0.0,0.0,0.0,0.0,0.0,0.0,0.0,0.0,0.0,0.0,0.0,2.5771,2.4492,0.0,2.3809,0.0,0.0,2.3353,0.0,0.0,0.0,2.3441,0.0,0.0,0.0,0.0,0.0,0.0,0.0,2.0372,2.0264,1.9598,1.8725,1.7774,1.9034,2.03,2.1319,0.0,2.0074,2.0201,2.0201,0.0,0.0,2.0117,2.0766,0.0,0.0,0.0,0.0,0.0,0.0,0.0,0.0,0.0,0.0,1.6123,0.0,0.0,0.0,0.0,1.4088,0.0,0.0,0.0,0.0,0.0,0.0,0.0,0.0,0.0,0.0,0.0,0.0,0.0,0.0,0.0,0.0,0.0,0.0,0.9344,0.9405,0.973,1.0453,1.0639,1.0863,1.1155,1.1311,1.1463,1.1616,1.1619,1.1619,1.1619,1.1619,1.1619,1.1619,1.1619,1.1619,1.1619,1.1619,1.1619,1.1619,1.1619,1.1619,1.1619,1.1619,1.1619,1.1619,1.1619,1.1633,1.1653,0.0,0.0,0.0,0.0,0.0,0.0,0.0,2.6025,0.0,0.0,0.0,0.0,0.0,0.0,2.4405,0.0,0.0,2.7168,2.6992,2.6191,0.0,0.0,0.0,2.583,0.0,0.0,0.0,0.0,0.0,0.0,0.0,0.0,0.0,0.0,0.0,2.0895,0.0,0.0,0.0,0.0,0.0,2.2241,2.2632,0.0,0.0,2.1795,2.0815,1.9833,0.0,1.9924,2.0213,2.0064,2.0234,2.0199,1.9839,1.9085,1.8502,0.0,0.0,0.0,1.6725,1.6242,0.0,0.0,0.0,0.0,0.0,0.0,0.0,0.0,0.0,0.0,0.0,0.0,0.0,0.0,0.0,0.0,0.0,0.0,0.0,0.0,0.0,0.0,0.0,0.8326,0.8713,0.9222,0.0,1.0239,1.0653,1.1148,1.1409,1.1565,1.1619,1.1619,1.1619,1.1619,1.1619,1.1619,1.1619,1.1619,1.1619,1.1619,1.1619,1.1619,1.1619,1.1619,1.1619,1.1619,1.1619,1.1619,1.1619,1.1619,1.1623,1.1194,3.1087,0.0,0.0,0.0,0.0,0.0,0.0,0.0,0.0,0.0,2.5301,0.0,2.3748,0.0,2.5635,0.0,2.7266,2.8457,2.873,2.7978,0.0,2.6865,2.7798,0.0,0.0,0.0,0.0,0.0,2.479,2.4397,0.0,0.0,0.0,0.0,0.0,0.0,0.0,0.0,2.0962,0.0,0.0,2.4348,0.0,0.0,2.2625,2.3257,0.0,2.1544,2.076,2.0753,2.0381,2.0054,2.0428,2.0287,1.9953,1.976,1.9292,1.8838,1.8838,1.8196,0.0,1.7402,1.6787,0.0,1.6949,0.0,0.0,0.0,0.0,0.0,0.0,0.0,0.0,0.0,0.0,0.0,0.0,0.0,0.0,0.0,0.0,0.0,0.0,0.0,0.7638,0.7797,0.817,0.8676,0.0,0.0,1.0341,1.0833,1.1246,1.1457,1.1457,1.1457,1.1484,1.1538,1.1538,1.1565,1.1619,1.1619,1.1619,1.1619,1.1619,1.1619,1.1619,1.1619,1.1619,1.1619,1.1619,1.1619,1.1619,1.1619,1.1633,1.1214,3.0329,2.9656,0.0,0.0,2.7722,0.0,0.0,0.0,2.7109,0.0,2.7536,2.7618,2.6537,2.7965,2.8654,2.7761,2.8828,0.0,2.957,2.957,0.0,0.0,2.8755,2.8002,2.5519,0.0,0.0,0.0,2.6399,2.6186,0.0,0.0,0.0,0.0,2.4751,0.0,2.3377,2.118,2.1077,2.2586,2.497,2.6388,2.7097,2.7221,0.0,2.5025,2.4841,2.46,2.4075,2.233,2.1511,2.1276,2.1156,2.1142,2.1129,2.1129,2.1122,2.1109,2.1109,2.0481,1.976,1.9479,0.0,0.0,0.0,0.0,1.8116,0.0,0.0,0.0,0.0,0.0,0.0,0.0,0.0,0.0,0.0,0.0,0.0,0.0,0.0,0.0,0.0,0.7841,0.7319,0.7756,0.7784,0.8109,0.0,0.0,0.9917,1.027,1.0833,1.1141,1.1162,1.1162,1.1236,1.1382,1.1389,1.1467,1.1609,1.1616,1.1619,1.1619,1.1619,1.1619,1.1619,1.1619,1.1619,1.1619,1.1619,1.1619,1.1619,1.1619,1.1657,1.1563,3.1219,3.0321,2.9405,0.0,2.9285,2.9606,0.0,0.0,0.0,0.0,2.7995,2.7024,2.6018,2.7201,2.7959,2.777,2.8828,0.0,0.0,0.0,0.0,2.9101,3.0329,3.0047,2.8146,3.0526,0.0,2.7683,0.0,0.0,2.7296,0.0,0.0,0.0,0.0,0.0,2.4836,2.188,2.1572,2.3169,2.4799,2.6318,0.0,0.0,2.9714,2.9155,2.7437,2.6736,2.6191,2.4411,2.3723,2.3529,2.2141,2.161,2.1436,2.1436,2.1283,2.1109,2.1109,2.0621,2.01,2.0034,1.9573,1.932,0.0,0.0,0.0,0.0,0.0,0.0,0.0,0.0,0.0,0.0,0.0,0.0,0.0,0.0,0.0,0.0,0.0,0.0,0.0,0.7841,0.7234,0.7465,0.7377,0.7689,0.0,0.0,0.0,1.0249,1.0531,1.0822,1.1158,1.1162,1.1182,1.1223,1.1338,1.1413,1.1453,1.1565,1.1619,1.1619,1.1619,1.1619,1.1619,1.1619,1.1619,1.1619,1.1619,1.1619,1.1619,1.164,1.1653,1.1529,3.2392,0.0,0.0,2.974,0.0,0.0,2.9475,0.0,0.0,3.027,2.9749,0.0,2.8684,2.8936,2.9082,2.9082,2.9736,0.0,0.0,0.0,0.0,3.0146,3.091,3.0599,2.9051,3.0831,0.0,2.8026,0.0,0.0,2.8109,0.0,0.0,0.0,0.0,2.5984,0.0,2.3564,2.3335,2.4538,2.6328,0.0,0.0,3.1045,3.1836,3.1837,3.0609,2.9559,2.834,2.6544,2.529,2.4409,2.3384,2.2511,2.1737,2.1737,2.1623,2.149,2.149,2.1249,2.1002,2.1002,2.0848,2.0909,2.1366,2.1081,2.1037,0.0,0.0,0.0,0.0,0.0,0.0,0.0,0.0,0.0,0.0,0.0,0.0,0.0,0.0,0.0,0.8212,0.7556,0.7248,0.7268,0.7251,0.7492,0.0,0.0,0.0,0.9863,1.0344,1.0714,1.0965,1.0968,1.1002,1.107,1.1155,1.1229,1.1297,1.145,1.1518,1.1525,1.1589,1.1619,1.1619,1.1619,1.1619,1.1619,1.1619,1.1626,1.164,1.1667,1.0489,0.9321,0.0,0.0,0.0,0.0,0.0,0.0,0.0,3.0449,0.0,3.207,0.0,3.2458,3.2458,3.1526,3.0889,3.0889,0.0,3.0889,3.0889,3.0889,3.0889,3.0889,3.0889,3.0351,2.9199,2.986,0.0,0.0,0.0,0.0,2.8323,0.0,0.0,0.0,0.0,0.0,0.0,2.5473,2.5381,0.0,2.8662,3.0205,3.1035,3.2363,3.3105,3.3418,3.3418,3.2264,3.0529,2.8725,2.6963,2.5298,2.4917,2.3608,2.2302,2.2176,2.2017,2.1984,2.1984,2.2017,2.2044,2.2044,2.2258,2.2412,2.2158,2.2298,2.2478,2.2478,2.155,2.0808,0.0,0.0,0.0,0.0,0.0,0.0,0.0,0.0,0.0,0.0,0.0,0.0,0.0,0.0,0.7319,0.7261,0.7383,0.756,0.0,0.0,0.0,0.9459,1.0226,0.0,1.0721,0.0,1.0785,1.0917,1.0941,1.1023,1.1168,1.1301,1.1372,1.1399,1.1511,1.1569,1.1589,1.1589,1.1603,1.1623,1.1623,1.164,1.1664,1.1553,0.9485,0.6851,0.0,0.0,0.0,0.0,0.0,3.1746,3.1776,3.3232,3.4804,3.6249,3.4384,0.0,3.2952,3.1717,3.0889,3.0889,3.0889,0.0,0.0,0.0,0.0,3.0889,3.0889,3.0781,3.0547,3.1881,3.1657,0.0,3.1112,3.0999,2.9503,0.0,0.0,0.0,0.0,0.0,2.5073,2.5445,0.0,2.6025,2.9326,3.0752,3.1074,3.2695,3.3359,3.3418,3.3418,3.3107,3.265,3.0809,2.9974,2.9258,2.6253,2.5026,2.4298,2.2733,2.2171,2.1984,2.1984,2.2158,2.2345,2.2345,2.2565,2.2772,2.2719,2.2746,2.2786,2.2786,2.185,2.1049,2.1096,0.0,0.0,0.0,0.0,0.0,0.0,0.0,0.0,0.0,0.0,0.0,0.0,0.0,0.0,0.0,0.0,0.0,0.0,0.0,0.0,0.0,0.0,0.0,0.0,0.0,1.0734,1.0761,1.089,1.1023,1.1165,1.1192,1.127,1.1385,1.1287,1.1314,1.1433,1.1433,1.1518,1.1647,1.1647,1.1667,1.1556,1.158,1.1141,0.982,0.0,0.0,0.0,0.0,0.0,0.0,0.0,3.5027,0.0,3.6291,3.5167,3.3968,3.318,3.1767,3.0889,3.0889,3.0889,3.0889,3.0889,3.0889,3.1218,3.1988,3.2092,0.0,3.2092,3.2747,3.2146,3.0295,3.0959,3.0819,0.0,0.0,0.0,0.0,0.0,2.7189,0.0,0.0,0.0,2.8555,3.0215,3.1416,3.2295,3.3105,3.3418,3.3418,3.3418,3.3418,3.3292,3.2492,3.1561,3.0504,2.8804,2.6846,2.5152,2.4223,2.334,2.2438,2.2438,2.2545,2.2645,2.2645,2.2752,2.2859,2.2859,2.2859,2.2859,2.2859,2.2412,2.1971,2.1817,2.0052,0.0,0.0,0.0,0.0,0.0,0.0,0.0,0.0,0.0,0.0,0.0,0.0,0.0,0.0,0.0,0.0,0.0,0.0,0.0,0.0,0.0,0.0,0.0,0.0,0.0,1.0721,1.0795,1.0867,1.0934,1.1016,1.1094,1.1165,1.1246,1.1321,1.1399,1.1491,1.1586,1.1385,0.9313,0.9772,1.158,1.159,1.1606,1.0456,0.0,3.57,0.0,0.0,3.3806,0.0,0.0,3.6345,3.6948,3.6302,3.5945,3.5288,3.417,3.2758,3.1662,3.1441,3.1325,3.1218,3.0889,3.0889,3.1546,3.3077,3.3077,3.3304,3.3519,3.3519,3.2717,0.0,3.0827,3.0443,0.0,0.0,0.0,0.0,0.0,0.0,0.0,0.0,2.8398,3.0918,3.1279,3.2226,3.3418,3.3418,3.3418,3.3418,3.3418,3.3418,3.3418,3.3418,3.2492,3.1295,3.0909,2.8935,2.6432,2.5778,2.4588,2.3393,2.2996,2.2859,2.2859,2.2859,2.2859,2.2859,2.2859,2.2859,2.2859,2.2859,2.2859,2.2772,2.2472,2.145,0.0,0.0,0.0,0.0,0.0,0.0,0.0,0.0,0.0,0.0,0.0,0.0,0.0,0.0,0.0,0.0,0.9418,0.9808,0.0,0.0,0.0,1.0721,1.0721,0.0,1.0721,0.0,1.0721,1.0738,1.0772,1.086,1.0921,1.0968,1.1168,1.1294,1.1372,1.0665,1.0913,1.127,0.816,0.7874,0.9367,1.1005,1.0593,0.8274,0.0,0.0,0.0,0.0,0.0,0.0,0.0,3.7086,3.7678,3.9137,3.8137,3.7252,3.7133,3.5727,3.4303,3.2964,3.2851,3.2311,3.1005,3.0889,3.1546,3.3077,3.3077,3.3744,3.5068,3.5068,3.4278,0.0,0.0,3.1525,0.0,0.0,0.0,0.0,0.0,0.0,0.0,3.0257,3.0596,3.1025,3.2568,3.3281,3.3418,3.3418,3.3418,3.3418,3.3418,3.3418,3.3418,3.3418,3.3292,3.2892,3.1304,3.0513,2.9717,2.6432,2.5375,2.4851,2.3393,2.2859,2.2859,2.2859,2.2859,2.2859,2.2859,2.2859,2.2859,2.2859,2.2859,2.2772,2.2472,2.1163,2.0521,0.0,0.0,0.0,0.0,0.0,0.0,0.0,0.0,0.0,0.0,0.0,0.0,0.0,0.0,0.9476,1.0233,1.0555,1.0653,1.0687,0.0,1.0721,1.0721,1.0721,0.0,1.0721,1.0721,1.0792,1.0921,1.0799,1.0829,1.0975,1.0863,1.0985,1.0988,0.7674,0.8363,1.159,1.1144,0.7011,0.1897,0.8954,0.7082,0.1042,0.0,0.0,0.0,0.0,0.0,0.0,0.0,3.804,3.8931,3.9597,3.8465,3.7145,3.6271,3.5617,3.5068,3.4515,3.4403,3.4191,3.354,3.354,3.4191,3.5715,3.5704,3.6042,3.6595,3.6595,3.584,0.0,0.0,3.2063,3.1296,2.9602,0.0,0.0,0.0,3.0213,3.1467,3.1027,3.1475,3.2471,3.3154,3.3418,3.3418,3.3418,3.3418,3.3418,3.3418,3.3418,3.3418,3.3418,3.3418,3.3292,3.2629,3.1698,3.0504,2.9065,2.7222,2.5383,2.4588,2.3659,2.2859,2.2859,2.2859,2.2859,2.2859,2.2859,2.2859,2.2859,2.2859,2.2826,2.2706,2.1109,2.0152,0.0,0.0,0.0,0.0,0.0,0.0,0.0,0.0,0.0,0.0,0.0,0.0,0.0,0.0,0.9167,0.9808,0.989,1.0042,1.0324,0.0,1.0446,1.0717,1.0721,1.0721,1.0721,1.0721,1.0751,1.0809,1.0761,0.9597,0.7662,0.7617,0.8952,1.1294,0.9842,0.7467,0.4619,0.4655,0.2772,0.0438,0.3506,0.265,0.0,3.8952,0.0,3.7573,0.0,3.7591,3.7927,3.7927,3.8931,3.9697,3.9697,3.8804,3.7701,3.6727,3.6607,3.6391,3.5945,3.5945,3.5727,3.53,3.5288,3.5945,3.7465,3.7465,0.0,3.8137,3.8137,3.736,3.5722,3.4534,0.0,3.2333,0.0,0.0,0.0,3.0328,3.1377,3.2747,3.1969,3.2324,3.3418,3.3418,3.3418,3.3418,3.3418,3.3418,3.3418,3.3418,3.3418,3.3418,3.3418,3.3418,3.3418,3.3418,3.2492,3.1433,3.0909,2.8673,2.618,2.5644,2.4188,2.2859,2.2859,2.2859,2.2859,2.2859,2.2859,2.2859,2.2859,2.2859,2.2859,2.2859,2.1575,2.0809,2.1344,0.0,0.0,0.0,0.0,0.0,0.0,0.0,0.9547,0.8964,0.0,0.0,0.0,0.0,0.8767,0.9238,0.9396,0.0,0.0,0.0,0.0,0.0,1.0734,1.0731,1.0731,1.0731,1.0731,1.0731,1.0765,0.9332,0.6813,0.4762,0.551,0.8168,0.824,0.5003,0.0,0.0,0.0,0.0,0.0,0.0,-0.03,4.2017,4.1538,4.1154,3.993,3.9647,3.9659,3.9659,3.9685,3.9697,3.9697,3.9685,3.9697,3.9697,3.9697,3.9025,3.7571,3.7465,3.6811,3.5398,3.5288,3.5945,0.0,0.0,3.8125,3.9685,3.9697,3.8908,3.7441,0.0,0.0,3.2775,0.0,3.0837,3.1909,3.1818,3.2408,3.3389,3.3389,3.3408,3.3418,3.3418,3.3418,3.3418,3.3418,3.3418,3.3418,3.3418,3.3418,3.3418,3.3418,3.3418,3.3418,3.3418,3.3428,3.3019,3.1304,2.9605,2.7776,2.6046,2.4188,2.2859,2.2859,2.2859,2.2859,2.2859,2.2859,2.2859,2.2859,2.2859,2.2859,2.2859,2.2859,2.2759,2.2452,0.0,0.0,0.0,0.0,0.0,0.0,1.0612,1.0354,0.9459,0.0,0.0,0.0,0.0,0.0,0.0,0.0,0.0,0.9365,1.0263,0.0,1.0672,1.0638,1.0755,1.0755,1.0755,1.0755,1.0755,1.0678,1.0705,1.0293,0.3097,0.0137,0.014,0.014,0.0143,0.0,0.0,0.0,0.0,0.0,0.0,-0.1212,4.3026,4.2168,4.1505,4.1032,4.0262,3.9697,3.9697,3.9697,3.9697,3.9697,3.9697,3.9835,4.0212,4.0262,3.9877,0.0,3.9359,3.9197,0.0,3.8594,3.8855,3.9037,3.9383,3.9631,3.971,3.9697,3.9465,3.9025,0.0,0.0,0.0,3.2982,3.2692,3.1291,3.2465,3.3134,3.3418,3.3418,3.3418,3.3418,3.3418,3.3418,3.3418,3.3418,3.3418,3.3418,3.3418,3.3418,3.3418,3.3418,3.3418,3.3418,3.3418,3.3418,3.3292,3.2756,3.0531,2.804,2.7503,2.5121,2.2859,2.2859,2.2859,2.2859,2.2859,2.2859,2.2859,2.2859,2.2859,2.2859,2.2859,2.1878,2.1427,2.2596,1.9427,0.0,0.0,0.0,0.0,0.0,0.0,1.0032,0.0,0.9381,0.0,0.0,0.0,0.0,0.0,0.0,0.0,0.0,0.6021,0.0,1.0668,0.8333,0.7107,0.7109,0.9555,1.0662,1.0678,1.0699,0.7968,0.323,0.0942,0.0,0.0,0.0,0.0,0.0,0.0,0.0,0.0,0.0,0.0,-0.1211,4.3598,4.2461,4.1604,4.1604,4.0554,3.9697,3.9697,3.9697,3.9697,3.9697,3.9697,3.9823,4.0174,4.0576,0.0,4.0337,4.0626,4.0676,4.0337,4.0626,4.0676,4.0325,4.0639,4.0664,4.0325,0.0,0.0,4.0312,3.8708,3.6675,3.4395,3.4659,3.3895,3.2552,3.2942,3.3271,3.3418,3.3418,3.3418,3.3418,3.3418,3.3418,3.3418,3.3418,3.3418,3.3418,3.3418,3.3418,3.3418,3.3418,3.3418,3.3418,3.3418,3.3418,3.3418,3.3418,3.1442,2.9213,2.9213,2.6573,2.3924,2.3924,2.3393,2.2859,2.2859,2.2859,2.2859,2.2859,2.2859,2.2859,2.2859,2.1878,2.1596,2.2722,2.0185,1.7866,0.0,0.0,0.0,0.0,0.0,0.0,0.0,0.973,0.0,0.0,0.0,0.0,0.0,0.0,0.0,0.5544,0.3526,0.0,1.0692,0.8494,0.6046,0.3486,0.8354,1.0692,1.0568,0.7965,0.4174,0.0,0.0,0.0,0.0,0.0,0.0,0.0,0.0,0.0,0.0,0.0,-0.1921,-0.5268,4.3975,4.2738,0.0,0.0,4.0642,0.0,3.9697,3.9697,3.9697,3.9697,3.9722,3.9772,3.9798,4.0764,4.1417,4.1455,0.0,0.0,0.0,4.1379,4.1379,4.1342,4.1379,4.1379,4.1342,4.084,4.0827,4.1342,3.9989,3.9304,3.9082,3.6236,3.4994,3.5176,3.3666,3.3172,3.3418,3.3418,3.3418,3.3418,3.3418,3.3418,3.3418,3.3418,3.3418,3.3418,3.3418,3.3418,3.3418,3.3418,3.3418,3.3418,3.3418,3.3418,3.3418,3.3418,3.2228,3.0771,3.0642,2.8147,2.551,2.5383,2.406,2.2859,2.2859,2.2859,2.2859,2.2859,2.2859,2.2859,2.2859,2.2859,2.2859,2.2859,2.144,1.9472,1.7529,0.0,0.0,0.0,0.0,0.0,0.0,1.0341,1.0097,0.0,0.0,0.0,0.0,0.0,0.5065,0.7333,0.2628,0.3227,0.9909,0.9893,0.66,0.0134,0.6736,1.0015,0.9744,0.3096,0.0,0.0,0.0,0.0,0.0,0.0,0.0,0.0,0.0,0.0,-0.0,-0.0578,-0.574,-1.2003,0.0,0.0,4.4163,4.3218,4.1985,4.0844,3.989,3.9697,3.9697,3.9697,4.0061,4.0488,4.0902,4.1555,4.2133,4.2559,4.2208,4.1781,4.1367,4.1731,4.1769,4.1354,4.1743,4.1769,4.1354,4.1216,4.1204,4.1342,4.1404,4.0795,3.9641,3.9323,3.791,3.5638,3.5292,3.4521,3.3418,3.3418,3.3418,3.3418,3.3418,3.3418,3.3418,3.3418,3.3418,3.3418,3.3418,3.3418,3.3418,3.3418,3.3418,3.3418,3.3418,3.3418,3.3418,3.3418,3.2228,3.0513,2.9213,2.723,2.5113,2.3788,2.3263,2.2859,2.2859,2.2859,2.2859,2.2859,2.2859,2.2859,2.2859,2.2859,2.2859,2.2859,2.2251,2.0798,1.7648,1.6445,0.0,0.0,1.09,1.0721,1.0721,1.0622,1.0561,0.0,0.0,0.0,0.0,0.4791,0.3361,0.1893,0.0658,0.0807,0.2559,0.2558,0.1615,0.0,0.1749,0.2557,0.2422,0.0808,0.0,0.0,0.0,0.0,0.0,0.0,0.0,0.0,0.0,0.0,-0.0713,-0.6604,-1.0468,-1.2299,4.7309,4.6255,4.5207,4.4456,4.2834,4.1419,4.0642,4.0083,3.9785,4.0036,4.0325,4.0727,4.1279,4.1831,4.2283,4.2572,4.2559,4.2409,4.2108,4.2371,4.2396,4.2095,4.2371,4.2384,4.2095,4.1844,4.1706,4.1706,4.2271,4.2164,4.1233,4.0817,3.9639,3.7951,3.7254,3.6051,3.4497,3.4497,3.4007,3.3418,3.3418,3.3418,3.3418,3.3418,3.3418,3.3418,3.3418,3.3418,3.3418,3.3418,3.3418,3.3418,3.3418,3.3418,3.3418,3.3418,3.2756,3.1826,3.0789,2.8689,2.618,2.3529,2.2859,2.2859,2.2859,2.2859,2.2859,2.2859,2.2859,2.2859,2.2859,2.2859,2.2859,2.2859,2.2612,2.1094,1.7637,1.6746,0.0,1.146,1.086,1.0721,1.0721,1.0721,1.0721,1.0721,0.0,0.0,0.7922,0.5386,0.2725,0.013,0.0,0.0,0.0,0.0,0.0,0.0,0.0,0.0,0.0,0.0,0.0,0.0,0.0,0.0,0.0,0.0,0.0,0.0,0.0,0.0,-0.0985,-0.8713,-1.1901,-1.238,4.7309,4.6447,4.5598,4.5403,4.3598,4.211,4.1822,4.0771,4.0206,4.0563,4.0714,4.094,4.1417,4.1957,4.2283,4.2283,4.271,4.2974,4.2974,4.2974,4.2974,4.2974,4.2974,4.2974,4.2974,4.2522,4.2283,4.2283,4.2748,4.2974,4.2974,4.1545,4.0834,4.0592,3.917,3.7484,3.5806,3.5806,3.485,3.3418,3.3418,3.3418,3.3418,3.3418,3.3418,3.3418,3.3418,3.3418,3.3418,3.3418,3.3418,3.3418,3.3418,3.3418,3.3418,3.3418,3.3418,3.3292,3.3029,3.0522,2.698,2.3659,2.2859,2.2859,2.2859,2.2859,2.2859,2.2859,2.2859,2.2859,2.2859,2.2859,2.2846,2.2806,2.2472,2.1015,1.7402,0.0,1.4823,1.134,1.0812,1.0721,1.0721,1.0721,1.0721,1.0721,1.0738,1.0761,0.0,0.6587,0.2956,0.0135,0.0,0.0,0.0,0.0,0.0,0.0,0.0,0.0,0.0,0.0,0.0,0.0,0.0,0.0,0.0,0.0,0.0,0.0,0.0,-0.0688,-0.2487,-0.8505,-1.123,-1.211,4.7309,4.7121,4.6638,4.5584,4.5115,4.4251,4.2552,4.2141,4.1763,4.1235,4.1618,4.1932,4.202,4.2522,4.2848,4.2848,4.2924,4.2974,4.2974,4.2974,4.2974,4.2974,4.2974,4.2974,4.2974,4.2898,4.2848,4.2848,4.2936,4.2974,4.2974,4.2737,4.1899,4.0592,4.0349,3.8557,3.5806,3.5806,3.485,3.3418,3.3418,3.3418,3.3418,3.3418,3.3418,3.3418,3.3418,3.3418,3.3418,3.3418,3.3418,3.3418,3.3418,3.3418,3.3418,3.3418,3.3418,3.3029,3.157,2.8673,2.5383,2.3393,2.2859,2.2859,2.2859,2.2859,2.2859,2.2859,2.2859,2.2859,2.2859,2.2859,2.2779,2.2532,2.1824,2.0165,1.7125,0.0,1.4093,1.1301,1.0812,1.0721,1.0721,1.0721,1.0721,1.0721,1.0724,1.0734,1.0761,0.7247,0.3621,0.0134,0.0,0.0,0.0,0.0,0.0,0.0,0.0,0.0,0.0,0.0,0.0,0.0,0.0,0.0,0.0,0.0,0.0,0.0,0.0,-0.4016,-0.9556,-0.7152,-0.8822,-1.2203,4.7309,4.7309,4.7121,4.6535,4.6159,4.5624,4.4745,4.3606,4.2929,4.2915,4.2513,4.2271,4.2572,4.2823,4.3295,4.4016,4.3394,4.3283,4.4016,4.3394,4.2974,4.2974,4.2974,4.2974,4.2974,4.2974,4.2974,4.2974,4.2974,4.2974,4.2974,4.2974,4.2613,4.1899,4.1899,4.0105,3.7133,3.7133,3.5694,3.3418,3.3418,3.3418,3.3418,3.3418,3.3418,3.3418,3.3418,3.3418,3.3418,3.3418,3.3418,3.3418,3.3418,3.3418,3.3418,3.3418,3.3418,3.2765,3.0125,2.8155,2.6314,2.3529,2.2859,2.2859,2.2859,2.2859,2.2859,2.2859,2.2859,2.2812,2.2652,2.2752,2.2712,2.2258,2.1844,0.0,0.0,1.5944,1.4318,1.1196,1.0761,1.0721,1.0721,1.0721,1.0721,1.0721,1.0721,1.0738,1.0645,0.9154,0.5776,0.0134,0.0,0.0,0.0,0.0,0.0,0.0,0.0,0.0,0.0,0.0,0.0,0.0,0.0,0.0,0.0,0.0,0.0,-0.0404,-0.4204,-0.8151,-1.1287,-0.9176,-1.006,-1.2223,4.7309,4.7309,4.7309,4.7309,4.6948,4.6606,4.6605,4.5303,4.4482,4.4794,4.3977,4.354,4.3855,4.3907,4.4318,4.5356,4.4222,4.3907,4.4941,4.37,4.2974,4.2974,4.2974,4.2974,4.2974,4.2974,4.2974,4.2974,4.2974,4.2974,4.2974,4.2974,4.2974,4.2974,4.2974,4.1431,3.8698,3.8342,3.6539,3.3902,3.3534,3.3418,3.3418,3.3418,3.3418,3.3418,3.3418,3.3418,3.3418,3.3418,3.3418,3.3418,3.3418,3.3418,3.3418,3.3418,3.3418,3.2765,2.9613,2.8163,2.698,2.4188,2.3263,2.2859,2.2859,2.2859,2.2859,2.2859,2.2806,2.2692,2.2458,2.2552,2.2492,2.1971,0.0,0.0,0.0,1.6152,1.459,1.1618,1.0982,1.0721,1.0721,1.0721,1.0721,1.0721,1.0721,1.0738,1.0648,0.9974,0.6591,0.0135,0.0,0.0,0.0,0.0,0.0,0.0,0.0,0.0,0.0,0.0,0.0,0.0,0.0,0.0,-0.0135,-0.175,-0.2422,-0.2963,-0.774,-1.0353,-1.1358,-1.1087,-1.144,-1.1962,4.7309,4.7309,4.7309,4.7309,4.7252,4.72,4.7138,4.7057,4.6908,4.6873,4.6833,4.6744,4.6785,4.6785,4.6785,4.6888,4.5661,4.4941,4.4941,4.37,4.2974,4.2974,4.2974,4.2974,4.2974,4.2974,4.2974,4.2974,4.2974,4.2974,4.2974,4.2974,4.2974,4.2974,4.2974,4.2024,4.0361,3.8817,3.7254,3.5448,3.4017,3.3418,3.3418,3.3418,3.3418,3.3418,3.3418,3.3418,3.3418,3.3418,3.3418,3.3418,3.3418,3.3418,3.3418,3.3418,3.3418,3.3019,3.1166,2.8147,2.5644,2.5383,2.406,2.2859,2.2859,2.2859,2.2859,2.2859,2.2645,2.2445,2.2418,2.2218,2.1944,2.1637,0.0,0.0,1.8471,1.6273,1.4361,1.3261,1.1633,1.0721,1.0721,1.0721,1.0721,1.0721,1.0721,1.0721,1.0727,0.7641,0.4025,0.0135,0.0,0.0,0.0,0.0,0.0,0.0,0.0,0.0,0.0,0.0,0.0,0.0,0.0,0.0,-0.0538,-0.7152,-0.9881,-0.963,-0.7186,-0.8173,-1.1026,-1.101,-1.1248,-1.1633,4.7459,4.7638,4.7788,4.7369,4.7982,4.8492,4.8499,4.8443,4.8405,4.8382,4.7619,4.7094,4.7094,4.7094,4.7402,4.8339,4.6279,4.5356,4.6279,4.4222,4.2974,4.2974,4.2974,4.2974,4.2974,4.2974,4.2974,4.2974,4.2974,4.2974,4.2974,4.2974,4.2974,4.2974,4.2974,4.2137,4.0476,3.8935,3.7254,3.5683,3.4017,3.3418,3.3418,3.3418,3.3418,3.3418,3.3418,3.3418,3.3418,3.3418,3.3418,3.3418,3.3418,3.3418,3.3418,3.3418,3.2619,3.1835,3.2355,3.0642,2.8541,2.7503,2.5778,2.4452,2.4452,2.3659,2.2812,2.2625,2.2498,2.2311,2.1951,2.1937,2.183,2.1356,0.0,2.0024,1.7334,1.6084,1.4487,1.1999,1.1111,1.0721,1.0721,1.0721,1.0721,1.0721,1.0721,1.0734,1.0638,0.7268,0.3767,0.0135,0.0,0.0,0.0,0.0,0.0,0.0,0.0,0.0,0.0,0.0,0.0,0.0,0.0,0.0,-0.0538,-0.7696,-1.0705,-1.0574,-0.939,-0.9706,-1.0978,-1.0924,-1.1209,-1.1599,4.8057,4.8282,4.8461,4.7997,4.8671,4.9329,4.9538,4.9528,4.9543,4.9844,4.895,4.8439,4.8439,4.8439,4.8752,4.9776,4.7721,4.6591,4.7094,4.4522,4.2974,4.2974,4.2974,4.2974,4.2974,4.2974,4.2974,4.2974,4.2974,4.2974,4.2974,4.2974,4.2974,4.2974,4.2974,4.2375,4.1191,3.9053,3.7615,3.6417,3.4258,3.3418,3.3418,3.3418,3.3418,3.3418,3.3418,3.3418,3.3418,3.3418,3.3418,3.3418,3.3418,3.3418,3.3418,3.3418,3.2492,3.1807,3.2865,3.2397,3.1148,2.9327,2.699,2.5211,2.5211,2.3898,2.2532,2.2325,2.2211,2.2024,2.1623,2.1637,2.1577,2.1176,2.1276,2.0291,1.7103,1.6307,1.4749,1.1894,1.0979,1.0721,1.0721,1.0721,1.0721,1.0721,1.0721,1.0199,0.9157,0.7823,0.4853,0.0135,0.0,0.0,0.0,0.0,0.0,0.0,0.0,0.0,0.0,0.0,0.0,0.0,0.0,-0.1211,-0.3635,-0.7414,-0.9725,-1.0678,-1.0812,-1.085,-1.0894,-1.0819,-1.108,-1.146,4.9134,4.9269,4.9284,4.9269,4.9269,4.9494,5.0137,5.0242,5.0481,5.1124,5.1214,5.1214,5.1214,5.1214,5.1214,5.1214,4.9984,4.8638,4.7197,4.4535,4.2974,4.2974,4.2974,4.2974,4.2974,4.2974,4.2974,4.2974,4.2974,4.2974,4.2974,4.2974,4.2974,4.2974,4.2974,4.2974,4.2737,3.9522,3.8223,3.7865,3.4746,3.3418,3.3418,3.3418,3.3418,3.3418,3.3418,3.3418,3.3418,3.3418,3.3418,3.3418,3.3418,3.3418,3.3418,3.3408,3.3408,3.332,3.29,3.3086,3.2903,3.08,2.7338,2.4416,2.4409,2.3138,2.1984,2.1984,2.1757,2.155,2.155,2.1309,2.1109,2.1109,2.1109,2.0462,1.8768,1.6953,1.5269,1.3451,1.1762,1.0721,1.0721,1.0721,1.0721,1.0721,1.0721,0.9111,0.5631,0.877,0.7286,0.0269,0.0,0.0,0.0,0.0,0.0,0.0,0.0,0.0,0.0,0.0,0.0,0.0,0.0,-0.4039,-1.0427,-0.6855,-0.7512,-1.0768,-1.0897,-1.0853,-1.0738,-1.089,-1.1036,-1.1162,4.9419,4.9628,4.9808,4.9344,4.9643,5.0017,5.0212,5.0631,5.099,5.1184,5.1214,5.1214,5.1214,5.1214,5.1214,5.1214,4.9984,4.8225,4.5767,4.4016,4.2974,4.2974,4.2974,4.2974,4.2974,4.2974,4.2974,4.2974,4.2974,4.2974,4.2974,4.2974,4.2974,4.2974,4.2974,4.2974,4.2737,3.9522,3.8223,3.7865,3.4746,3.3418,3.3418,3.3418,3.3418,3.3418,3.3418,3.3418,3.3418,3.3418,3.3418,3.3369,3.3076,3.2978,3.292,3.2627,3.2549,3.2519,3.2393,3.2226,3.1998,3.1664,2.9142,2.6624,2.6384,2.4035,2.1931,2.1724,2.1617,2.149,2.1276,2.1169,2.1109,2.1109,2.1109,2.0068,1.7082,1.6172,1.4749,1.1894,1.0979,1.0721,1.0721,1.0721,1.0721,1.0721,1.0758,0.9146,0.5631,0.4031,0.2153,0.0135,0.0,0.0,0.0,0.0,0.0,0.0,0.0,0.0,0.0,0.0,0.0,0.0,0.0,-0.4039,-1.0568,-0.9582,-0.9692,-1.0755,-1.0778,-1.0761,-1.0724,-1.0772,-1.0948,-1.1162,5.0152,5.0361,5.0496,5.0107,5.0361,5.0631,5.0631,5.096,5.1214,5.1214,5.1214,5.1214,5.1214,5.1214,5.1214,5.1214,4.9984,4.8439,4.6785,4.5356,4.463,4.463,4.4113,4.3492,4.2974,4.2974,4.2974,4.2974,4.2974,4.2974,4.2974,4.2974,4.2974,4.2974,4.2974,4.2974,4.2737,3.9522,3.858,3.8817,3.5694,3.4736,3.5222,3.4622,3.4373,3.4258,3.366,3.3418,3.3398,3.3232,3.3066,3.291,3.2822,3.2685,3.25,3.2246,3.2168,3.2129,3.1953,3.1846,3.1628,3.092,2.8818,2.6917,2.6702,2.4022,2.159,2.1416,2.1376,2.1323,2.1142,2.1109,2.1109,2.1109,2.0462,1.903,1.6302,1.5269,1.3844,1.0979,1.0721,1.0721,1.0721,1.0721,1.0724,1.0734,1.0645,0.9713,0.7672,0.2689,0.0,0.0,0.0,0.0,0.0,0.0,0.0,0.0,0.0,0.0,0.0,0.0,-0.1615,-0.4174,-0.4174,-0.6734,-1.0672,-1.0655,-1.0635,-1.0738,-1.0724,-1.0721,-1.0721,-1.0721,-1.0907,-1.1162,5.1094,5.1214,5.1214,5.1214,5.1214,5.1214,5.1214,5.1214,5.1214,5.1214,5.1214,5.1214,5.1214,5.1214,5.1214,5.1214,4.9984,4.9161,4.9161,4.7923,4.7094,4.7094,4.5767,4.4427,4.3184,4.3085,4.2974,4.2974,4.2974,4.2974,4.2974,4.2974,4.2974,4.2974,4.2974,4.2974,4.2849,3.9756,3.9288,4.0349,3.7243,3.6771,3.7854,3.6406,3.5683,3.5448,3.3902,3.3418,3.3359,3.2939,3.2539,3.2275,3.2578,3.2412,3.21,3.206,3.2051,3.1973,3.1562,3.1748,3.1484,2.9214,2.7443,2.6098,2.5863,2.3303,2.1109,2.1109,2.1109,2.1109,2.1109,2.1109,2.1109,2.1109,1.9674,1.7859,1.6172,1.4358,1.2672,1.085,1.0721,1.0721,1.0721,1.0721,1.0731,1.0751,1.0378,1.0404,1.0702,0.3905,0.0,0.0,0.0,0.0,0.0,0.0,0.0,0.0,0.0,0.0,-0.0,-0.0673,-0.4578,-1.0705,-1.0705,-1.0672,-1.0755,-1.0755,-1.0741,-1.0721,-1.0721,-1.0721,-1.0721,-1.0721,-1.09,-1.1148,5.1094,5.1214,5.1214,5.1214,5.1214,5.1214,5.1214,5.1214,5.1214,5.1214,5.1214,5.1214,5.1214,5.1214,5.1214,5.1214,4.9984,4.9161,4.9161,4.7923,4.7094,4.7094,4.5767,4.4833,4.4522,4.3492,4.2974,4.2974,4.2974,4.2974,4.2974,4.2974,4.2974,4.2974,4.2974,4.2974,4.2862,4.0949,4.0245,4.0476,3.845,3.7133,3.6284,3.5918,3.4964,3.3892,3.3544,3.3418,3.3359,3.2939,3.2734,3.2559,3.1973,3.1728,3.1592,3.1269,3.1172,3.1143,3.1055,3.1094,3.1005,3.0449,2.9157,2.7202,2.4655,2.2584,2.1109,2.1109,2.1109,2.1109,2.1109,2.1109,2.1109,2.1109,1.9674,1.7859,1.6172,1.4358,1.2672,1.085,1.0721,1.0721,1.0721,1.0721,1.0731,1.0751,0.8056,0.7806,1.0564,0.3905,0.0,0.0,0.0,0.0,0.0,0.0,0.0,0.0,0.0,0.0,-0.0135,-0.5794,-0.9198,-1.0705,-1.0689,-1.0655,-1.0755,-1.0755,-1.0741,-1.0721,-1.0721,-1.0721,-1.0721,-1.0721,-1.0836,-1.1162,5.1154,5.1214,5.1214,5.1214,5.1214,5.1214,5.1214,5.1214,5.1214,5.1214,5.1214,5.1214,5.1214,5.1214,5.1214,5.1214,5.0603,5.0191,5.0191,4.947,4.9049,4.9049,4.7094,4.5964,4.5964,4.4016,4.2974,4.2974,4.2974,4.2974,4.2974,4.2974,4.2974,4.2974,4.2974,4.2974,4.2849,4.1305,4.1064,4.1545,4.0001,3.8805,3.7963,3.7254,3.5928,3.4497,3.366,3.3164,3.2936,3.3739,3.3084,3.1846,3.1592,3.1377,3.1172,3.0957,3.0889,3.0889,3.0889,3.0889,3.0762,2.9903,2.903,2.7931,2.6236,2.4047,2.2348,2.2348,2.1601,2.1109,2.1109,2.1109,2.1109,2.1109,1.8896,1.6953,1.6048,1.3713,1.1765,1.085,1.0721,1.0721,1.0721,1.0731,1.0748,1.0642,0.9024,0.7273,0.566,0.2019,0.0,0.0,0.0,0.0,0.0,0.0,0.0,0.0,0.0,-0.175,-0.5253,-0.8923,-1.0692,-1.0665,-1.0652,-1.0765,-1.0738,-1.0738,-1.0731,-1.0721,-1.0721,-1.0721,-1.0721,-1.0721,-1.086,-1.1351,5.1199,5.1214,5.1214,5.1214,5.1214,5.1214,5.1214,5.1214,5.1214,5.1214,5.1214,5.1214,5.1214,5.1214,5.1214,5.1214,5.1214,5.1214,5.1214,5.1214,5.1214,5.1214,4.8539,4.7094,4.7094,4.4427,4.2974,4.2974,4.2974,4.2974,4.2974,4.2974,4.2974,4.2974,4.2974,4.2974,4.2862,4.1545,4.1785,4.2849,4.1545,4.0834,4.0465,3.9078,3.7537,3.604,3.4655,3.345,3.3014,3.4575,3.3299,3.1045,3.1318,3.1172,3.0889,3.0889,3.0889,3.0889,3.0889,3.0889,3.0528,2.9157,2.8792,2.8792,2.8417,2.5871,2.3574,2.3574,2.2223,2.1109,2.1109,2.1109,2.0982,2.0716,1.7988,1.5789,1.5529,1.2672,1.0721,1.0721,1.0721,1.0721,1.0724,1.0741,1.0635,1.0675,1.0695,0.756,0.0404,0.0,0.0,0.0,0.0,0.0,0.0,0.0,0.0,0.0,0.0,-0.3769,-1.0705,-1.0702,-1.0672,-1.0755,-1.0751,-1.0738,-1.0721,-1.0721,-1.0721,-1.0721,-1.0721,-1.0721,-1.0721,-1.0721,-1.0907,-1.159,5.1109,5.1214,5.1214,5.1214,5.1214,5.1214,5.1214,5.1214,5.1214,5.1214,5.1214,5.1214,5.1214,5.1214,5.1214,5.1214,5.1214,5.1214,5.1214,5.1214,5.1214,5.1214,4.8539,4.7094,4.7094,4.4427,4.2974,4.2974,4.2974,4.2974,4.2974,4.2974,4.2974,4.2974,4.2974,4.2974,4.2974,4.2737,4.2849,4.2974,4.2737,4.1785,4.0544,3.9852,3.8908,3.781,3.714,3.5972,3.4758,3.4641,3.3119,3.1377,3.1074,3.0937,3.0889,3.0889,3.0889,3.0889,3.0889,3.0889,3.0889,3.0635,3.0518,3.0147,2.8783,2.5871,2.3574,2.3574,2.2223,2.1109,2.1109,2.1109,2.0589,1.9158,1.7211,1.5394,1.384,1.189,1.0721,1.0721,1.0721,1.0727,1.0748,1.0751,1.0642,1.0699,1.0705,0.756,0.0404,0.0,0.0,0.0,0.0,0.0,0.0,0.0,0.0,0.0,0.0,-0.3769,-1.0705,-1.0685,-1.0655,-1.0751,-1.0734,-1.0724,-1.0721,-1.0721,-1.0721,-1.0721,-1.0721,-1.0721,-1.0721,-1.0721,-1.0907,-1.171,5.1154,5.1214,5.1214,5.1214,5.1214,5.1214,5.1214,5.1214,5.1214,5.1214,5.1214,5.1214,5.1214,5.1214,5.1214,5.1214,5.1214,5.1214,5.1214,5.1214,5.1214,5.1214,4.9357,4.8225,4.8225,4.6279,4.4941,4.4113,4.3394,4.2974,4.2974,4.2974,4.2974,4.2974,4.2974,4.2974,4.2974,4.2974,4.2974,4.2974,4.2974,4.2024,4.0544,4.0009,3.8908,3.7753,3.7133,3.5286,3.3193,3.3903,3.286,3.1133,3.0947,3.0889,3.0889,3.0889,3.0889,3.0889,3.0889,3.0889,3.0889,3.0889,3.0889,3.0518,2.8783,2.6599,2.4655,2.3814,2.2223,2.1109,2.1109,2.1109,2.0583,1.8768,1.7082,1.5265,1.3582,1.1762,1.0721,1.0721,1.0721,1.0727,1.0751,0.8859,0.8609,1.0564,0.7015,0.3366,0.0135,0.0,0.0,0.0,0.0,0.0,0.0,0.0,-0.2019,-0.593,-0.593,-0.6602,-0.7809,-0.985,-1.0645,-1.0734,-1.0724,-1.0721,-1.0721,-1.0721,-1.0721,-1.0721,-1.0721,-1.0721,-1.0721,-1.0721,-1.1517,-1.2934]}]]